[[{"header":{"parameterUnit":"m.s-1","parameterCategory":1,"la1":31.0,"la2":29.5877,"lo1":-88.7671,"lo2":-86.6584,"dy":0.0162,"dx":0.0185,"nx":115,"ny":88,"refTime":"2024-04-17T12:00:00:Z","depth":0,"parameterNumber":2,"parameterNumberName":"U-component_of_WINDS"},"data":[0.0,0.0,0.0,0.0,0.0,0.0,0.0,0.0,0.0,0.0,0.0,0.0,0.0,0.0,0.0,0.0,0.0,0.0,0.0,0.0,0.0,0.0,0.0,0.0,0.0,0.0,0.0,0.0,0.0,0.0,0.0,0.0,0.0,0.0,0.0,0.0,0.0,0.0,0.0,0.0,0.0,0.0,0.0,0.0,0.0,0.0,0.0,0.0,0.0,0.0,0.0,0.0,0.0,0.0,0.0,0.0,0.0,0.0,0.0,0.0,0.0,0.0,0.0,0.0,0.0,0.0,0.0,0.0,0.0,0.0,0.0,0.0,0.0,0.0,0.0,0.0,0.0,0.0,0.0,0.0,0.0,0.0,0.0,0.0,0.0,0.0,0.0,0.0,0.0,0.0,0.0,0.0,0.0,0.0,0.0,0.0,0.0,0.0,0.0,0.0,0.0,0.0,0.0,0.0,0.0,0.0,0.0,0.0,0.0,0.0,0.0,0.0,0.0,0.0,0.0,0.0,0.0,0.0,0.0,0.0,0.0,0.0,0.0,0.0,0.0,0.0,0.0,0.0,0.0,0.0,0.0,0.0,0.0,0.0,0.0,0.0,0.0,0.0,0.0,0.0,0.0,0.0,0.0,0.0,0.0,0.0,0.0,0.0,0.0,0.0,0.0,0.0,0.0,0.0,0.0,0.0,0.0,0.0,0.0,0.0,0.0,0.0,0.0,0.0,0.0,0.0,0.0,0.0,0.0,0.0,0.0,0.0,0.0,0.0,0.0,0.0,0.0,0.0,0.0,0.0,0.0,0.0,0.0,0.0,0.0,0.0,0.0,0.0,0.0,0.0,0.0,0.0,0.0,0.0,0.0,0.0,0.0,0.0,0.0,0.0,0.0,0.0,0.0,0.0,0.0,0.0,0.0,0.0,0.0,0.0,0.0,0.0,0.0,0.0,0.0,0.0,0.0,0.0,0.0,0.0,0.0,0.0,0.0,0.0,0.0,0.0,0.0,0.0,0.0,0.0,0.0,0.0,0.0,0.0,0.0,0.0,0.0,0.0,0.0,0.0,0.0,0.0,0.0,0.0,0.0,0.0,0.0,0.0,0.0,0.0,0.0,0.0,0.0,0.0,0.0,0.0,0.0,0.0,0.0,0.0,0.0,0.0,0.0,0.0,0.0,0.0,0.0,0.0,0.0,0.0,0.0,0.0,0.0,0.0,0.0,0.0,0.0,0.0,0.0,0.0,0.0,0.0,0.0,0.0,0.0,0.0,0.0,0.0,0.0,0.0,0.0,0.0,0.0,0.0,0.0,0.0,0.0,0.0,0.0,0.0,0.0,0.0,0.0,0.0,0.0,0.0,0.0,0.0,0.0,0.0,0.0,0.0,0.0,0.0,0.0,0.0,0.0,0.0,0.0,0.0,0.0,0.0,0.0,0.0,0.0,0.0,0.0,0.0,0.0,0.0,0.0,0.0,0.0,0.0,0.0,0.0,0.0,0.0,0.0,0.0,0.0,0.0,0.0,0.0,0.0,0.0,0.0,0.0,0.0,0.0,0.0,0.0,0.0,0.0,0.0,0.0,0.0,0.0,0.0,0.0,0.0,0.0,0.0,0.0,0.0,0.0,0.0,0.0,0.0,0.0,0.0,0.0,0.0,0.0,0.0,0.0,0.0,0.0,0.0,0.0,0.0,0.0,0.0,0.0,0.0,0.0,0.0,0.0,0.0,0.0,0.0,0.0,0.0,0.0,0.0,0.0,0.0,0.0,0.0,0.0,0.0,0.0,0.0,0.0,0.0,0.0,0.0,0.0,0.0,0.0,0.0,0.0,0.0,0.0,0.0,0.0,0.0,0.0,0.0,0.0,0.0,0.0,0.0,0.0,0.0,0.0,0.0,0.0,0.0,0.0,0.0,0.0,0.0,0.0,0.0,0.0,0.0,0.0,0.0,0.0,0.0,0.0,0.0,0.0,0.0,0.0,0.0,0.0,0.0,0.0,0.0,0.0,0.0,0.0,0.0,0.0,0.0,0.0,0.0,0.0,0.0,0.0,0.0,0.0,0.0,0.0,0.0,0.0,0.0,0.0,0.0,0.0,0.0,0.0,0.0,0.0,0.0,0.0,0.0,0.0,0.0,0.0,0.0,0.0,0.0,0.0,0.0,0.0,0.0,0.0,0.0,0.0,0.0,0.0,0.0,0.0,0.0,0.0,0.0,0.0,0.0,0.0,0.0,0.0,0.0,0.0,0.0,0.0,0.0,0.0,0.0,0.0,0.0,0.0,0.0,0.0,0.0,0.0,0.0,0.0,0.0,0.0,0.0,0.0,0.0,0.0,0.0,0.0,0.0,0.0,0.0,0.0,0.0,0.0,0.0,0.0,0.0,0.0,0.0,0.0,0.0,0.0,0.0,0.0,0.0,0.0,0.0,0.0,0.0,0.0,0.0,0.0,0.0,0.0,0.0,0.0,0.0,0.0,0.0,0.0,0.0,0.0,0.0,0.0,0.0,0.0,0.0,0.0,0.0,0.0,0.0,0.0,0.0,0.0,0.0,0.0,0.0,0.0,0.0,0.0,0.0,0.0,0.0,0.0,0.0,0.0,0.0,0.0,0.0,0.0,0.0,0.0,0.0,0.0,0.0,0.0,0.0,0.0,0.0,0.0,0.0,0.0,0.0,0.0,0.0,0.0,0.0,0.0,0.0,0.0,0.0,0.0,0.0,0.0,0.0,0.0,0.0,0.0,0.0,0.0,0.0,0.0,0.0,0.0,0.0,0.0,0.0,0.0,0.0,0.0,0.0,0.0,0.0,0.0,0.0,0.0,0.0,0.0,0.0,0.0,0.0,0.0,0.0,0.0,0.0,0.0,0.0,0.0,0.0,0.0,0.0,0.0,0.0,0.0,0.0,0.0,0.0,0.0,0.0,0.0,0.0,0.0,0.0,0.0,0.0,0.0,0.0,0.0,0.0,0.0,0.0,0.0,0.0,0.0,0.0,0.0,0.0,0.0,0.0,0.0,0.0,0.0,0.0,0.0,0.0,0.0,0.0,0.0,0.0,0.0,0.0,0.0,0.0,0.0,0.0,0.0,0.0,0.0,0.0,0.0,0.0,0.0,0.0,0.0,0.0,0.0,0.0,0.0,0.0,0.0,0.0,0.0,0.0,0.0,0.0,0.0,0.0,0.0,0.0,0.0,0.0,0.0,0.0,0.0,0.0,0.0,0.0,0.0,0.0,0.0,0.0,0.0,0.0,0.0,0.0,0.0,0.0,0.0,0.0,0.0,0.0,0.0,0.0,0.0,0.0,0.0,0.0,0.0,0.0,0.0,0.0,0.0,0.0,0.0,0.0,0.0,0.0,0.0,0.0,0.0,0.0,0.0,0.0,0.0,0.0,0.0,0.0,0.0,0.0,0.0,0.0,0.0,0.0,0.0,0.0,0.0,0.0,0.0,0.0,0.0,0.0,0.0,0.0,0.0,0.0,0.0,0.0,0.0,0.0,0.0,0.0,0.0,0.0,0.0,0.0,0.0,0.0,0.0,0.0,0.0,0.0,0.0,0.0,0.0,0.0,0.0,0.0,0.0,0.0,0.0,0.0,0.0,0.0,0.0,0.0,0.0,0.0,0.0,0.0,0.0,0.0,0.0,0.0,0.0,0.0,0.0,0.0,0.0,0.0,0.0,0.0,0.0,0.0,0.0,0.0,0.0,0.0,0.0,0.0,0.0,0.0,0.0,0.0,0.0,0.0,0.0,0.0,0.0,0.0,0.0,0.0,0.0,0.0,0.0,0.0,0.0,0.0,0.0,0.0,0.0,0.0,0.0,0.0,0.0,0.0,0.0,0.0,0.0,0.0,0.0,0.0,0.0,0.0,0.0,0.0,0.0,0.0,0.0,0.0,0.0,0.0,0.0,0.0,0.0,0.0,0.0,0.0,0.0,0.0,0.0,0.0,0.0,0.0,0.0,0.0,0.0,0.0,0.0,0.0,0.0,0.0,0.0,0.0,0.0,0.0,0.0,0.0,0.0,0.0,0.0,0.0,0.0,0.0,0.0,0.0,0.0,0.0,0.0,0.0,0.0,0.0,0.0,0.0,0.0,0.0,0.0,0.0,0.0,0.0,0.0,0.0,0.0,0.0,0.0,0.0,0.0,0.0,0.0,0.0,0.0,0.0,0.0,0.0,0.0,0.0,0.0,0.0,0.0,0.0,0.0,0.0,0.0,0.0,0.0,0.0,0.0,0.0,0.0,0.0,0.0,0.0,0.0,0.0,0.0,0.0,0.0,-4.0979,0.0,0.0,0.0,0.0,0.0,0.0,0.0,0.0,0.0,0.0,0.0,0.0,0.0,0.0,0.0,0.0,0.0,0.0,0.0,0.0,0.0,0.0,0.0,0.0,0.0,0.0,0.0,0.0,0.0,0.0,0.0,0.0,0.0,0.0,0.0,0.0,0.0,0.0,0.0,0.0,0.0,0.0,0.0,0.0,0.0,0.0,0.0,0.0,0.0,0.0,0.0,0.0,0.0,0.0,0.0,0.0,0.0,0.0,0.0,0.0,0.0,0.0,0.0,0.0,0.0,0.0,0.0,0.0,0.0,0.0,0.0,0.0,0.0,0.0,0.0,0.0,0.0,0.0,0.0,0.0,0.0,0.0,0.0,0.0,0.0,0.0,0.0,0.0,0.0,0.0,0.0,0.0,0.0,0.0,0.0,0.0,0.0,0.0,0.0,0.0,0.0,0.0,0.0,0.0,0.0,0.0,0.0,0.0,0.0,0.0,-4.1577,-4.1124,-4.1518,-4.1532,-4.1009,0.0,0.0,0.0,0.0,0.0,0.0,0.0,0.0,0.0,0.0,0.0,0.0,0.0,0.0,0.0,0.0,0.0,0.0,0.0,0.0,0.0,0.0,0.0,0.0,0.0,0.0,0.0,0.0,0.0,0.0,0.0,0.0,0.0,0.0,0.0,0.0,0.0,0.0,0.0,0.0,0.0,0.0,0.0,0.0,0.0,0.0,0.0,0.0,0.0,0.0,0.0,0.0,0.0,0.0,0.0,0.0,0.0,0.0,0.0,0.0,0.0,0.0,0.0,0.0,0.0,0.0,0.0,0.0,0.0,0.0,0.0,0.0,0.0,0.0,0.0,0.0,0.0,0.0,0.0,0.0,0.0,0.0,0.0,0.0,0.0,0.0,0.0,0.0,0.0,0.0,0.0,0.0,0.0,0.0,0.0,0.0,0.0,0.0,0.0,0.0,0.0,0.0,0.0,0.0,0.0,0.0,0.0,0.0,0.0,0.0,0.0,0.0,-4.1933,-4.1941,-4.1018,0.0,0.0,0.0,0.0,0.0,0.0,0.0,0.0,0.0,0.0,0.0,0.0,0.0,0.0,0.0,0.0,0.0,0.0,0.0,0.0,0.0,0.0,0.0,0.0,0.0,0.0,0.0,0.0,0.0,0.0,0.0,0.0,0.0,0.0,0.0,0.0,0.0,0.0,0.0,0.0,0.0,0.0,0.0,0.0,0.0,0.0,0.0,0.0,0.0,0.0,0.0,0.0,0.0,0.0,0.0,0.0,0.0,0.0,0.0,0.0,0.0,0.0,0.0,0.0,0.0,0.0,0.0,0.0,0.0,0.0,0.0,0.0,0.0,0.0,0.0,0.0,0.0,0.0,0.0,0.0,0.0,0.0,0.0,0.0,0.0,0.0,0.0,0.0,0.0,0.0,0.0,0.0,0.0,0.0,0.0,0.0,0.0,0.0,0.0,0.0,0.0,0.0,0.0,0.0,0.0,0.0,0.0,0.0,0.0,0.0,-4.1986,-4.1149,-4.1937,0.0,-4.096,0.0,0.0,0.0,0.0,0.0,0.0,0.0,0.0,0.0,0.0,0.0,0.0,0.0,0.0,0.0,0.0,0.0,0.0,0.0,0.0,0.0,0.0,0.0,0.0,0.0,0.0,0.0,0.0,0.0,0.0,0.0,0.0,0.0,0.0,0.0,0.0,0.0,0.0,0.0,0.0,0.0,0.0,0.0,0.0,0.0,0.0,0.0,0.0,0.0,0.0,0.0,0.0,0.0,0.0,0.0,0.0,0.0,0.0,0.0,0.0,0.0,0.0,0.0,0.0,0.0,0.0,0.0,0.0,0.0,0.0,0.0,0.0,0.0,0.0,0.0,0.0,0.0,0.0,0.0,0.0,0.0,0.0,0.0,0.0,0.0,0.0,0.0,0.0,0.0,0.0,0.0,0.0,0.0,0.0,0.0,0.0,0.0,0.0,0.0,0.0,0.0,0.0,0.0,0.0,0.0,0.0,0.0,0.0,0.0,0.0,-4.1992,-4.1113,-4.1445,-4.1432,0.0,0.0,0.0,0.0,0.0,0.0,0.0,0.0,0.0,0.0,0.0,0.0,0.0,0.0,0.0,0.0,0.0,0.0,0.0,0.0,0.0,0.0,0.0,0.0,0.0,0.0,0.0,0.0,0.0,0.0,0.0,0.0,0.0,0.0,0.0,0.0,0.0,0.0,0.0,0.0,0.0,0.0,0.0,0.0,0.0,0.0,0.0,0.0,0.0,0.0,0.0,0.0,0.0,0.0,0.0,0.0,0.0,0.0,0.0,0.0,0.0,0.0,0.0,0.0,0.0,0.0,0.0,0.0,0.0,0.0,0.0,0.0,0.0,0.0,0.0,0.0,0.0,0.0,0.0,0.0,0.0,0.0,0.0,0.0,0.0,0.0,0.0,0.0,0.0,0.0,0.0,0.0,0.0,0.0,0.0,0.0,0.0,0.0,0.0,0.0,0.0,0.0,0.0,0.0,0.0,0.0,0.0,0.0,0.0,0.0,-4.1946,-4.2106,-4.1504,-4.1226,-4.1073,-4.0988,0.0,0.0,0.0,0.0,0.0,0.0,0.0,0.0,0.0,0.0,0.0,0.0,0.0,0.0,0.0,0.0,0.0,0.0,0.0,0.0,0.0,0.0,0.0,0.0,0.0,0.0,0.0,0.0,0.0,0.0,0.0,0.0,0.0,0.0,0.0,0.0,0.0,0.0,0.0,0.0,0.0,0.0,0.0,0.0,0.0,0.0,0.0,0.0,0.0,0.0,0.0,0.0,0.0,0.0,0.0,0.0,0.0,0.0,0.0,0.0,0.0,0.0,0.0,0.0,0.0,0.0,0.0,0.0,0.0,0.0,0.0,0.0,0.0,0.0,0.0,0.0,0.0,0.0,0.0,0.0,0.0,0.0,0.0,0.0,0.0,0.0,0.0,0.0,0.0,0.0,0.0,0.0,0.0,0.0,0.0,0.0,0.0,0.0,0.0,0.0,0.0,0.0,0.0,0.0,0.0,0.0,0.0,0.0,-4.113,-4.1936,-4.2378,-4.2264,-4.1522,-4.1072,0.0,0.0,0.0,0.0,0.0,0.0,0.0,0.0,0.0,0.0,0.0,0.0,0.0,0.0,0.0,0.0,0.0,0.0,0.0,0.0,0.0,0.0,0.0,0.0,0.0,0.0,0.0,0.0,0.0,0.0,0.0,0.0,0.0,0.0,0.0,0.0,0.0,0.0,0.0,0.0,0.0,0.0,0.0,0.0,0.0,0.0,0.0,0.0,0.0,0.0,0.0,0.0,0.0,0.0,0.0,0.0,0.0,0.0,0.0,0.0,0.0,0.0,0.0,0.0,0.0,0.0,0.0,0.0,0.0,0.0,0.0,0.0,0.0,0.0,0.0,0.0,0.0,0.0,0.0,0.0,0.0,0.0,0.0,0.0,0.0,0.0,0.0,0.0,0.0,0.0,0.0,0.0,0.0,0.0,0.0,0.0,0.0,0.0,0.0,0.0,0.0,0.0,0.0,0.0,0.0,0.0,0.0,0.0,0.0,-4.1129,-4.1418,-4.1572,-4.1543,-4.1261,-4.107,0.0,0.0,0.0,0.0,0.0,0.0,0.0,0.0,0.0,0.0,0.0,0.0,0.0,0.0,0.0,0.0,0.0,0.0,0.0,0.0,0.0,0.0,0.0,0.0,0.0,0.0,0.0,0.0,0.0,0.0,0.0,0.0,0.0,0.0,0.0,0.0,0.0,0.0,0.0,0.0,0.0,0.0,0.0,0.0,0.0,0.0,0.0,0.0,0.0,0.0,0.0,0.0,0.0,0.0,0.0,0.0,0.0,0.0,0.0,0.0,0.0,0.0,0.0,0.0,0.0,0.0,0.0,0.0,0.0,0.0,0.0,0.0,0.0,0.0,0.0,0.0,0.0,0.0,0.0,0.0,0.0,0.0,0.0,0.0,0.0,0.0,0.0,0.0,0.0,0.0,0.0,0.0,0.0,0.0,0.0,0.0,0.0,0.0,0.0,0.0,0.0,0.0,0.0,0.0,0.0,0.0,0.0,0.0,0.0,-4.1064,0.0,-4.1112,-4.111,-4.111,-4.1062,0.0,0.0,0.0,0.0,0.0,0.0,0.0,0.0,0.0,0.0,0.0,0.0,0.0,0.0,0.0,0.0,0.0,0.0,0.0,0.0,0.0,0.0,0.0,0.0,0.0,0.0,0.0,0.0,0.0,0.0,0.0,0.0,0.0,0.0,0.0,0.0,0.0,0.0,0.0,0.0,0.0,0.0,0.0,0.0,0.0,0.0,0.0,0.0,0.0,0.0,0.0,0.0,0.0,0.0,0.0,0.0,0.0,0.0,0.0,0.0,0.0,0.0,0.0,0.0,0.0,0.0,0.0,0.0,0.0,0.0,0.0,0.0,0.0,0.0,0.0,0.0,0.0,0.0,0.0,0.0,0.0,0.0,0.0,0.0,0.0,0.0,0.0,0.0,0.0,0.0,0.0,0.0,0.0,0.0,0.0,0.0,0.0,0.0,0.0,0.0,0.0,0.0,0.0,0.0,0.0,0.0,0.0,0.0,-4.0989,-4.1013,-4.1081,-4.1117,-4.1107,-4.1111,-4.1065,0.0,0.0,0.0,0.0,0.0,0.0,0.0,0.0,0.0,0.0,0.0,0.0,0.0,0.0,0.0,0.0,0.0,0.0,0.0,0.0,0.0,0.0,0.0,0.0,0.0,0.0,0.0,0.0,0.0,0.0,0.0,0.0,0.0,0.0,0.0,0.0,0.0,0.0,0.0,0.0,0.0,0.0,0.0,0.0,0.0,0.0,0.0,0.0,0.0,0.0,0.0,0.0,0.0,0.0,0.0,0.0,0.0,0.0,0.0,0.0,0.0,0.0,0.0,0.0,0.0,0.0,0.0,0.0,0.0,0.0,0.0,0.0,0.0,0.0,0.0,0.0,0.0,0.0,0.0,0.0,0.0,0.0,0.0,0.0,0.0,0.0,0.0,0.0,0.0,0.0,0.0,0.0,0.0,0.0,0.0,0.0,0.0,0.0,0.0,0.0,0.0,0.0,0.0,0.0,0.0,0.0,0.0,0.0,0.0,-4.0937,-4.1036,-4.1103,-4.1116,-4.1113,-4.1076,0.0,0.0,0.0,0.0,0.0,0.0,0.0,0.0,0.0,0.0,0.0,0.0,0.0,0.0,0.0,0.0,0.0,0.0,0.0,0.0,0.0,0.0,0.0,0.0,0.0,0.0,0.0,0.0,0.0,0.0,0.0,0.0,0.0,0.0,0.0,0.0,0.0,0.0,0.0,0.0,0.0,0.0,0.0,0.0,0.0,0.0,0.0,0.0,0.0,0.0,0.0,0.0,0.0,0.0,0.0,0.0,0.0,0.0,0.0,0.0,0.0,0.0,0.0,0.0,0.0,0.0,0.0,0.0,0.0,0.0,0.0,0.0,0.0,0.0,0.0,0.0,0.0,0.0,0.0,0.0,0.0,0.0,0.0,0.0,0.0,0.0,0.0,0.0,0.0,0.0,0.0,0.0,0.0,0.0,0.0,0.0,0.0,0.0,0.0,0.0,0.0,0.0,0.0,0.0,0.0,0.0,0.0,0.0,0.0,-4.084,-4.0984,-4.1078,-4.1103,-4.1112,-4.1084,-4.1035,0.0,0.0,0.0,0.0,0.0,0.0,0.0,0.0,0.0,0.0,0.0,0.0,0.0,0.0,0.0,0.0,0.0,0.0,0.0,0.0,0.0,0.0,0.0,0.0,0.0,0.0,0.0,0.0,0.0,0.0,0.0,0.0,0.0,0.0,0.0,0.0,0.0,0.0,0.0,0.0,0.0,0.0,0.0,0.0,0.0,0.0,0.0,0.0,0.0,0.0,0.0,0.0,0.0,0.0,0.0,0.0,0.0,0.0,0.0,0.0,0.0,0.0,0.0,0.0,0.0,0.0,0.0,0.0,0.0,0.0,0.0,0.0,0.0,0.0,0.0,0.0,0.0,0.0,0.0,0.0,0.0,0.0,0.0,0.0,0.0,0.0,0.0,0.0,0.0,0.0,0.0,0.0,0.0,0.0,0.0,0.0,0.0,0.0,0.0,0.0,0.0,0.0,0.0,0.0,0.0,0.0,0.0,0.0,-4.0713,-4.0898,-4.1016,-4.107,-4.1108,-4.111,0.0,0.0,0.0,0.0,0.0,0.0,0.0,0.0,0.0,0.0,0.0,0.0,0.0,0.0,0.0,0.0,0.0,0.0,0.0,0.0,0.0,0.0,0.0,0.0,0.0,0.0,0.0,0.0,0.0,0.0,0.0,0.0,0.0,0.0,0.0,0.0,0.0,0.0,0.0,0.0,0.0,0.0,0.0,0.0,0.0,0.0,0.0,0.0,0.0,0.0,0.0,0.0,0.0,0.0,0.0,0.0,0.0,0.0,0.0,0.0,0.0,0.0,0.0,0.0,0.0,0.0,0.0,0.0,0.0,0.0,0.0,0.0,0.0,0.0,0.0,0.0,0.0,0.0,0.0,0.0,0.0,0.0,0.0,0.0,0.0,0.0,0.0,0.0,0.0,0.0,0.0,0.0,0.0,0.0,0.0,0.0,0.0,0.0,0.0,0.0,0.0,0.0,0.0,0.0,0.0,0.0,0.0,0.0,0.0,-4.07,-4.0787,-4.09,-4.1028,-4.1078,-4.1112,0.0,0.0,0.0,0.0,0.0,0.0,0.0,0.0,0.0,0.0,0.0,0.0,0.0,0.0,0.0,0.0,0.0,0.0,0.0,0.0,0.0,0.0,0.0,0.0,0.0,0.0,0.0,0.0,0.0,0.0,0.0,0.0,0.0,0.0,0.0,0.0,0.0,0.0,0.0,0.0,0.0,0.0,0.0,0.0,0.0,0.0,0.0,0.0,0.0,0.0,0.0,0.0,0.0,0.0,0.0,0.0,0.0,0.0,0.0,0.0,0.0,0.0,0.0,0.0,0.0,0.0,0.0,0.0,0.0,0.0,0.0,0.0,0.0,0.0,0.0,0.0,0.0,0.0,0.0,0.0,0.0,0.0,0.0,0.0,0.0,0.0,0.0,0.0,0.0,0.0,0.0,0.0,0.0,0.0,0.0,0.0,0.0,0.0,0.0,0.0,0.0,0.0,0.0,0.0,0.0,0.0,0.0,0.0,-4.0549,-4.0609,-4.0687,-4.0789,-4.0961,-4.1056,-4.1113,0.0,0.0,0.0,0.0,0.0,0.0,0.0,0.0,0.0,0.0,0.0,0.0,0.0,0.0,0.0,0.0,0.0,0.0,0.0,0.0,0.0,0.0,0.0,0.0,0.0,0.0,0.0,0.0,0.0,0.0,0.0,0.0,0.0,0.0,0.0,0.0,0.0,0.0,0.0,0.0,0.0,0.0,0.0,0.0,0.0,0.0,0.0,0.0,0.0,0.0,0.0,0.0,0.0,0.0,0.0,0.0,0.0,0.0,0.0,0.0,0.0,0.0,0.0,0.0,0.0,0.0,0.0,0.0,0.0,0.0,0.0,0.0,0.0,0.0,0.0,0.0,0.0,0.0,0.0,0.0,0.0,0.0,0.0,0.0,0.0,0.0,0.0,0.0,0.0,0.0,0.0,0.0,0.0,0.0,0.0,0.0,0.0,0.0,0.0,0.0,0.0,0.0,0.0,0.0,0.0,0.0,0.0,0.0,-4.043,-4.05,-4.0554,-4.0699,-4.0878,-4.1039,-4.1088,0.0,0.0,0.0,0.0,0.0,0.0,0.0,0.0,0.0,0.0,0.0,0.0,0.0,0.0,0.0,0.0,0.0,0.0,0.0,0.0,0.0,0.0,0.0,0.0,0.0,0.0,0.0,0.0,0.0,0.0,0.0,0.0,0.0,0.0,0.0,0.0,0.0,0.0,0.0,0.0,0.0,0.0,0.0,0.0,0.0,0.0,0.0,0.0,0.0,0.0,0.0,0.0,0.0,0.0,0.0,0.0,0.0,0.0,0.0,0.0,0.0,0.0,0.0,0.0,0.0,0.0,0.0,0.0,0.0,0.0,0.0,0.0,0.0,0.0,0.0,0.0,0.0,0.0,0.0,0.0,0.0,0.0,0.0,0.0,0.0,0.0,0.0,0.0,0.0,0.0,0.0,0.0,0.0,0.0,0.0,0.0,0.0,0.0,0.0,0.0,0.0,0.0,0.0,0.0,0.0,0.0,0.0,0.0,-4.0405,-4.0411,-4.0549,-4.0675,-4.0823,-4.0958,-4.1039,0.0,0.0,0.0,0.0,0.0,0.0,0.0,0.0,0.0,0.0,0.0,0.0,0.0,0.0,0.0,0.0,0.0,0.0,0.0,0.0,0.0,0.0,0.0,0.0,0.0,0.0,0.0,0.0,0.0,0.0,0.0,0.0,0.0,0.0,0.0,0.0,0.0,0.0,0.0,0.0,0.0,0.0,0.0,0.0,0.0,0.0,0.0,0.0,-4.6196,0.0,0.0,0.0,0.0,0.0,0.0,0.0,0.0,0.0,0.0,0.0,0.0,0.0,0.0,0.0,0.0,0.0,0.0,0.0,0.0,0.0,0.0,0.0,0.0,0.0,0.0,0.0,0.0,0.0,0.0,0.0,0.0,0.0,0.0,0.0,0.0,0.0,0.0,0.0,0.0,0.0,0.0,0.0,0.0,0.0,0.0,0.0,0.0,0.0,0.0,0.0,0.0,0.0,0.0,0.0,0.0,0.0,0.0,0.0,-4.0308,-4.0316,-4.0433,-4.0586,-4.0705,-4.0863,-4.0986,0.0,0.0,0.0,0.0,0.0,0.0,0.0,0.0,0.0,0.0,0.0,0.0,0.0,0.0,0.0,0.0,0.0,0.0,0.0,0.0,0.0,0.0,0.0,0.0,0.0,0.0,0.0,0.0,0.0,0.0,0.0,0.0,0.0,0.0,0.0,0.0,0.0,0.0,0.0,0.0,0.0,0.0,0.0,0.0,0.0,0.0,0.0,0.0,0.0,0.0,0.0,0.0,0.0,0.0,0.0,0.0,0.0,0.0,0.0,0.0,0.0,0.0,0.0,0.0,0.0,0.0,0.0,0.0,0.0,0.0,0.0,0.0,0.0,0.0,0.0,0.0,0.0,0.0,0.0,0.0,0.0,0.0,0.0,0.0,0.0,0.0,0.0,0.0,0.0,0.0,0.0,0.0,0.0,0.0,0.0,0.0,0.0,0.0,0.0,0.0,0.0,0.0,0.0,0.0,0.0,0.0,0.0,-3.9671,-4.0034,-4.0158,-4.0298,-4.0422,-4.0563,-4.0765,-4.0951,-4.1056,0.0,0.0,0.0,0.0,0.0,0.0,0.0,0.0,0.0,0.0,0.0,0.0,0.0,0.0,0.0,0.0,0.0,0.0,0.0,0.0,0.0,0.0,0.0,0.0,0.0,0.0,0.0,0.0,0.0,0.0,0.0,0.0,0.0,0.0,0.0,0.0,0.0,0.0,-4.0878,-4.0906,0.0,0.0,0.0,0.0,0.0,0.0,0.0,0.0,-4.6156,0.0,0.0,0.0,0.0,0.0,0.0,0.0,0.0,0.0,0.0,0.0,0.0,0.0,0.0,0.0,0.0,0.0,0.0,0.0,0.0,0.0,0.0,0.0,0.0,0.0,0.0,0.0,0.0,0.0,0.0,0.0,0.0,0.0,0.0,0.0,0.0,0.0,0.0,0.0,0.0,0.0,0.0,0.0,0.0,0.0,0.0,0.0,0.0,0.0,0.0,0.0,0.0,0.0,0.0,0.0,0.0,-3.8833,-3.8955,-3.9323,-3.9946,-4.0148,-4.0304,-4.0446,-4.0681,-4.0849,-4.0938,0.0,0.0,0.0,0.0,0.0,0.0,0.0,0.0,0.0,0.0,0.0,0.0,0.0,0.0,0.0,0.0,0.0,0.0,0.0,0.0,0.0,0.0,0.0,0.0,0.0,0.0,0.0,0.0,0.0,0.0,0.0,0.0,0.0,0.0,0.0,0.0,0.0,0.0,0.0,-4.1214,-4.1996,0.0,0.0,0.0,0.0,0.0,0.0,0.0,0.0,-4.605,0.0,0.0,0.0,0.0,0.0,0.0,0.0,0.0,0.0,0.0,0.0,0.0,0.0,0.0,0.0,0.0,0.0,0.0,0.0,0.0,0.0,0.0,0.0,0.0,0.0,0.0,0.0,0.0,0.0,0.0,0.0,0.0,0.0,0.0,0.0,0.0,0.0,0.0,0.0,0.0,0.0,0.0,0.0,0.0,0.0,0.0,0.0,0.0,0.0,0.0,0.0,0.0,0.0,0.0,0.0,-3.749,-3.8245,-3.8826,-3.9234,-3.976,-4.0129,-4.0285,-4.0554,-4.0535,0.0,0.0,0.0,0.0,0.0,0.0,0.0,0.0,0.0,0.0,0.0,0.0,0.0,0.0,0.0,0.0,0.0,0.0,0.0,0.0,0.0,0.0,0.0,0.0,0.0,0.0,0.0,0.0,0.0,0.0,0.0,0.0,0.0,0.0,0.0,0.0,0.0,0.0,0.0,0.0,-4.0707,-4.1384,-4.2622,0.0,0.0,0.0,0.0,0.0,0.0,-4.5699,-4.5813,0.0,0.0,0.0,0.0,0.0,0.0,0.0,0.0,0.0,0.0,0.0,0.0,0.0,0.0,0.0,0.0,0.0,0.0,0.0,0.0,0.0,0.0,0.0,0.0,0.0,0.0,0.0,0.0,0.0,0.0,0.0,0.0,0.0,0.0,0.0,0.0,0.0,0.0,0.0,0.0,0.0,0.0,0.0,0.0,0.0,0.0,0.0,0.0,0.0,0.0,0.0,0.0,0.0,0.0,0.0,-3.6283,-3.737,-3.8049,-3.8293,-3.8972,-3.9433,-3.9652,-3.9887,-3.9753,0.0,0.0,0.0,0.0,0.0,0.0,0.0,0.0,0.0,0.0,0.0,0.0,0.0,0.0,0.0,0.0,0.0,0.0,0.0,0.0,0.0,0.0,0.0,0.0,0.0,0.0,0.0,0.0,0.0,0.0,0.0,0.0,0.0,0.0,0.0,0.0,0.0,0.0,0.0,0.0,0.0,-4.0503,-4.1922,-4.2316,0.0,0.0,0.0,0.0,-4.5236,-4.5342,0.0,0.0,0.0,0.0,0.0,0.0,0.0,0.0,0.0,0.0,0.0,0.0,0.0,0.0,0.0,0.0,0.0,0.0,0.0,0.0,0.0,0.0,0.0,0.0,0.0,0.0,0.0,0.0,0.0,0.0,0.0,0.0,0.0,0.0,0.0,0.0,0.0,0.0,0.0,0.0,0.0,0.0,0.0,0.0,0.0,0.0,0.0,0.0,0.0,0.0,0.0,0.0,0.0,0.0,0.0,0.0,-3.6008,-3.6024,-3.6414,-3.7139,-3.7293,-3.7472,-3.7716,-3.7934,-3.8074,0.0,0.0,0.0,0.0,0.0,0.0,0.0,0.0,0.0,0.0,0.0,0.0,0.0,0.0,0.0,0.0,0.0,0.0,0.0,0.0,0.0,0.0,0.0,0.0,0.0,0.0,0.0,0.0,0.0,0.0,0.0,0.0,0.0,0.0,0.0,0.0,0.0,0.0,0.0,0.0,0.0,-3.9907,-4.0791,-4.1531,-4.2326,0.0,0.0,-4.4618,-4.4688,-4.4756,0.0,0.0,0.0,0.0,0.0,0.0,0.0,0.0,0.0,0.0,0.0,0.0,0.0,0.0,0.0,0.0,0.0,0.0,0.0,0.0,0.0,0.0,0.0,0.0,0.0,0.0,0.0,0.0,0.0,0.0,0.0,0.0,0.0,0.0,0.0,0.0,0.0,0.0,0.0,0.0,0.0,0.0,0.0,0.0,0.0,0.0,0.0,0.0,0.0,0.0,0.0,0.0,0.0,0.0,0.0,-3.5107,-3.5256,-3.5399,-3.5684,-3.6087,-3.6541,-3.6888,-3.7115,-3.7383,-3.7399,0.0,0.0,0.0,0.0,0.0,0.0,0.0,0.0,0.0,0.0,0.0,0.0,0.0,0.0,0.0,0.0,0.0,0.0,0.0,0.0,0.0,0.0,0.0,0.0,0.0,0.0,0.0,0.0,0.0,0.0,0.0,0.0,0.0,0.0,0.0,0.0,0.0,0.0,0.0,0.0,0.0,0.0,-4.0188,-4.0933,0.0,0.0,0.0,-4.3952,-4.3967,0.0,0.0,0.0,0.0,0.0,0.0,0.0,0.0,0.0,0.0,0.0,0.0,0.0,0.0,0.0,0.0,0.0,0.0,0.0,0.0,0.0,0.0,0.0,0.0,0.0,0.0,0.0,0.0,0.0,0.0,0.0,0.0,0.0,0.0,0.0,0.0,0.0,0.0,0.0,0.0,0.0,0.0,0.0,0.0,0.0,0.0,0.0,0.0,0.0,0.0,0.0,0.0,0.0,0.0,0.0,0.0,0.0,-3.462,-3.4835,-3.4929,-3.499,-3.5544,-3.5959,-3.6174,-3.6471,0.0,0.0,0.0,0.0,0.0,0.0,0.0,0.0,0.0,0.0,0.0,0.0,0.0,0.0,0.0,0.0,0.0,0.0,0.0,0.0,0.0,0.0,0.0,0.0,0.0,0.0,0.0,-3.5718,0.0,0.0,0.0,0.0,0.0,0.0,0.0,0.0,0.0,0.0,0.0,0.0,0.0,0.0,-3.8842,-3.9347,-3.9997,-4.0697,0.0,0.0,-4.2974,-4.3175,-4.3297,-4.3398,0.0,0.0,0.0,0.0,0.0,0.0,0.0,0.0,0.0,0.0,0.0,0.0,0.0,0.0,0.0,0.0,0.0,0.0,0.0,0.0,0.0,0.0,0.0,0.0,0.0,0.0,0.0,0.0,0.0,0.0,0.0,0.0,0.0,0.0,0.0,0.0,0.0,0.0,0.0,0.0,0.0,0.0,0.0,0.0,0.0,0.0,0.0,0.0,0.0,0.0,0.0,0.0,0.0,0.0,0.0,-3.4347,-3.4053,-3.3885,-3.3817,-3.3785,-3.3931,-3.419,-3.4401,-3.4644,0.0,0.0,0.0,0.0,0.0,0.0,0.0,0.0,0.0,0.0,0.0,0.0,0.0,0.0,0.0,0.0,0.0,0.0,0.0,0.0,0.0,0.0,0.0,0.0,0.0,0.0,0.0,0.0,0.0,0.0,0.0,0.0,0.0,0.0,0.0,0.0,0.0,0.0,0.0,0.0,0.0,-3.7929,-3.7864,-3.842,-3.9117,0.0,0.0,-4.1518,-4.2259,-4.2406,-4.2428,-4.2563,0.0,0.0,0.0,0.0,0.0,0.0,0.0,0.0,0.0,0.0,0.0,0.0,0.0,0.0,0.0,0.0,0.0,0.0,0.0,0.0,0.0,0.0,0.0,0.0,0.0,0.0,0.0,0.0,0.0,0.0,0.0,0.0,0.0,0.0,0.0,0.0,0.0,0.0,0.0,0.0,0.0,0.0,0.0,0.0,0.0,0.0,0.0,0.0,0.0,0.0,0.0,0.0,0.0,-3.4397,-3.4105,-3.3703,-3.3422,-3.3342,-3.3298,-3.3383,-3.3564,-3.3876,-3.4191,0.0,0.0,0.0,0.0,0.0,0.0,0.0,0.0,0.0,0.0,0.0,0.0,0.0,0.0,0.0,0.0,0.0,0.0,0.0,0.0,0.0,0.0,0.0,0.0,0.0,0.0,0.0,0.0,-3.5247,-3.5108,-3.486,0.0,0.0,0.0,0.0,0.0,0.0,0.0,0.0,0.0,0.0,-3.7302,-3.7055,-3.7589,0.0,0.0,-3.9721,-4.0513,-4.1265,-4.1393,-4.1415,-4.1495,-4.1521,0.0,0.0,0.0,0.0,0.0,0.0,0.0,0.0,0.0,0.0,0.0,0.0,0.0,0.0,0.0,0.0,0.0,0.0,0.0,0.0,0.0,0.0,0.0,0.0,0.0,0.0,0.0,0.0,0.0,0.0,0.0,0.0,0.0,0.0,0.0,0.0,0.0,0.0,0.0,0.0,0.0,0.0,0.0,0.0,0.0,0.0,0.0,0.0,0.0,0.0,0.0,0.0,-3.3635,-3.3132,-3.2728,-3.2439,-3.2291,-3.2291,-3.2367,-3.2513,-3.2853,-3.3158,0.0,0.0,0.0,0.0,0.0,0.0,0.0,0.0,0.0,0.0,0.0,0.0,0.0,0.0,0.0,0.0,0.0,0.0,0.0,0.0,0.0,0.0,0.0,0.0,0.0,0.0,0.0,0.0,-3.4944,-3.4754,-3.4464,0.0,0.0,0.0,0.0,0.0,0.0,0.0,0.0,0.0,0.0,-3.658,-3.6333,-3.6608,-3.7055,-3.7718,-3.8412,-3.9163,-3.989,-4.0173,-4.0334,-4.0397,0.0,0.0,0.0,0.0,0.0,0.0,0.0,0.0,0.0,0.0,0.0,0.0,0.0,0.0,0.0,0.0,0.0,0.0,0.0,0.0,0.0,0.0,0.0,0.0,0.0,0.0,0.0,0.0,0.0,0.0,-3.5095,0.0,0.0,0.0,0.0,0.0,0.0,0.0,0.0,0.0,0.0,0.0,0.0,0.0,0.0,0.0,0.0,0.0,0.0,0.0,0.0,0.0,0.0,-3.2205,-3.1195,-3.094,-3.0677,-3.0493,-3.0475,-3.0603,-3.0801,-3.097,-3.1217,-3.1586,0.0,0.0,0.0,0.0,0.0,0.0,0.0,0.0,0.0,0.0,0.0,0.0,0.0,0.0,0.0,0.0,0.0,0.0,0.0,0.0,0.0,0.0,0.0,0.0,0.0,0.0,-3.4793,-3.4513,-3.4269,0.0,0.0,0.0,0.0,0.0,0.0,0.0,0.0,0.0,0.0,-3.602,-3.5715,-3.5638,-3.5293,-3.5402,-3.6135,-3.6704,-3.7302,-3.8057,-3.8745,-3.9216,0.0,0.0,0.0,0.0,0.0,0.0,0.0,0.0,0.0,0.0,0.0,0.0,0.0,0.0,0.0,0.0,0.0,0.0,0.0,0.0,0.0,0.0,0.0,0.0,0.0,0.0,0.0,-3.4637,-3.4706,0.0,0.0,0.0,0.0,0.0,0.0,0.0,0.0,0.0,0.0,0.0,-3.2011,-3.1763,0.0,0.0,0.0,0.0,0.0,0.0,0.0,0.0,0.0,0.0,0.0,0.0,-3.1364,-3.0792,-3.0511,-3.0271,-3.0082,-3.0048,-3.0178,-3.0363,-3.0567,-3.0926,-3.1482,0.0,0.0,0.0,0.0,0.0,0.0,0.0,0.0,0.0,0.0,0.0,0.0,0.0,0.0,0.0,0.0,0.0,0.0,0.0,0.0,0.0,0.0,0.0,0.0,0.0,-3.442,0.0,0.0,0.0,0.0,0.0,0.0,0.0,0.0,0.0,0.0,0.0,-3.6101,-3.5644,-3.5328,-3.4981,-3.4658,-3.4488,-3.4603,0.0,0.0,0.0,0.0,0.0,0.0,0.0,0.0,0.0,0.0,0.0,0.0,0.0,0.0,-3.5086,-3.5987,-3.6062,-3.6015,-3.6057,0.0,0.0,0.0,0.0,0.0,0.0,0.0,0.0,0.0,0.0,0.0,0.0,0.0,0.0,-3.4116,0.0,-3.423,0.0,0.0,0.0,0.0,0.0,0.0,0.0,0.0,-3.1159,-3.0719,-3.0675,-3.0383,-3.0256,0.0,-3.0598,-3.117,0.0,0.0,0.0,0.0,0.0,0.0,0.0,0.0,-3.0164,-2.9585,-2.9364,-2.9166,-2.8974,-2.899,-2.9103,-2.9277,-2.9541,-3.0075,-3.0888,-3.1646,-3.2437,0.0,0.0,0.0,0.0,0.0,0.0,0.0,0.0,0.0,0.0,0.0,0.0,0.0,0.0,0.0,0.0,0.0,0.0,0.0,0.0,0.0,0.0,0.0,-3.3873,0.0,0.0,0.0,0.0,0.0,0.0,0.0,0.0,0.0,-3.4923,-3.5317,-3.5322,-3.4873,-3.4586,-3.4251,-3.3857,0.0,0.0,0.0,0.0,0.0,0.0,0.0,-3.5716,-3.6169,-3.6202,-3.6202,-3.6218,-3.5266,-3.436,-3.3923,0.0,0.0,-3.4374,-3.4733,-3.4868,-3.4962,-3.4554,-3.4118,-3.3832,-3.2782,-3.1817,0.0,0.0,0.0,0.0,0.0,0.0,0.0,0.0,-3.3829,-3.3532,0.0,-3.3716,0.0,0.0,0.0,0.0,0.0,-3.1374,0.0,0.0,-2.9857,-2.9364,-2.9191,-2.8477,-2.8088,-2.8142,-2.8905,-2.9276,-2.9354,-3.0671,0.0,0.0,0.0,0.0,0.0,0.0,-2.8697,-2.7654,-2.7579,-2.7404,-2.7231,-2.7343,-2.7436,-2.7529,-2.7971,-2.8699,-2.9689,-2.9989,-3.0962,-3.2816,-3.3071,0.0,0.0,0.0,0.0,0.0,0.0,0.0,0.0,0.0,0.0,0.0,0.0,0.0,0.0,0.0,0.0,0.0,0.0,0.0,0.0,-3.3528,0.0,0.0,0.0,0.0,0.0,0.0,0.0,0.0,0.0,0.0,-3.4091,-3.4466,-3.4521,-3.4126,0.0,0.0,0.0,0.0,-3.2695,-3.2453,-3.2824,-3.3094,-3.3011,-3.3514,-3.3939,-3.3984,0.0,0.0,-3.3954,-3.3407,-3.2967,-3.2936,-3.2332,-3.2213,-3.3297,-3.3556,-3.3675,-3.3878,-3.3396,-3.2724,-3.2044,-3.1345,-3.0599,-3.6417,0.0,0.0,0.0,0.0,-3.6004,-3.535,-3.4758,-3.3972,-3.3409,-3.3027,-3.3075,0.0,0.0,0.0,0.0,0.0,0.0,-2.9509,-2.9399,-2.8535,-2.8094,-2.802,-2.7777,-2.7672,-2.7689,-2.7899,-2.802,-2.8037,-2.8431,-2.9076,-2.9886,0.0,0.0,0.0,0.0,-2.7794,-2.7294,-2.7168,-2.7105,-2.6991,-2.7024,-2.7152,-2.7419,-2.7748,-2.811,-2.8581,-2.9372,-3.0139,-3.0846,-3.2121,0.0,0.0,0.0,0.0,0.0,0.0,0.0,0.0,0.0,0.0,0.0,0.0,0.0,0.0,0.0,0.0,0.0,0.0,0.0,-3.305,-3.2747,-3.2518,0.0,0.0,0.0,0.0,0.0,0.0,0.0,0.0,0.0,-3.3614,-3.3955,-3.3933,0.0,0.0,-3.2926,-3.2535,-3.2342,-3.2163,-3.1951,-3.1861,0.0,-3.2244,-3.2376,-3.2552,-3.2886,-3.2928,-3.2781,-3.2355,-3.2119,-3.1854,-3.1412,-3.1132,-3.116,-3.1635,-3.2308,-3.2734,-3.2795,-3.2076,-3.1394,-3.111,-3.0188,-2.9272,-3.5423,-3.5464,-3.5916,-3.6207,-3.626,-3.5561,-3.4938,-3.4361,-3.3648,-3.2985,-3.2368,-3.2434,-3.2485,-3.245,-3.1883,0.0,0.0,0.0,-2.8297,-2.8171,-2.7627,-2.7343,-2.7263,-2.7215,-2.7198,-2.7165,-2.7182,-2.7165,-2.7181,-2.7182,-2.7546,-2.8222,0.0,0.0,-2.7537,-2.7353,-2.7166,-2.6908,-2.6842,-2.6809,-2.6742,-2.6792,-2.6957,-2.7231,-2.7494,-2.7719,-2.7914,-2.8578,-2.9202,-2.974,-3.0836,-3.1764,0.0,0.0,0.0,0.0,0.0,0.0,0.0,0.0,0.0,0.0,0.0,-3.4043,0.0,0.0,0.0,0.0,-3.2872,-3.255,-3.2162,-3.1985,0.0,0.0,0.0,0.0,0.0,0.0,0.0,-3.2078,-3.2329,-3.2641,-3.3087,-3.3235,-3.3166,-3.2803,-3.2586,-3.2355,-3.1979,0.0,-3.1611,-3.1307,-3.1117,-3.1087,-3.1228,-3.1179,-3.1201,-3.1392,-3.1449,-3.1303,-3.0974,-3.0888,-3.0758,-3.0502,-3.0401,-3.0447,-3.0598,-3.1219,-3.1766,-3.1962,-3.109,-3.0334,-3.0288,-2.9264,-2.8343,-3.4434,-3.4059,-3.4887,-3.5351,-3.5476,-3.4866,-3.4228,-3.3608,-3.3051,-3.2376,-3.1693,-3.1841,-3.1897,-3.1776,-3.0369,0.0,-2.8432,-2.767,-2.7263,-2.7053,-2.6991,-2.6942,-2.6842,-2.6742,-2.6691,-2.6674,-2.6657,-2.6657,-2.6674,-2.6657,-2.6657,-2.6657,-2.6956,-2.7069,-2.7037,-2.6858,-2.6691,-2.6555,-2.6555,-2.6537,-2.6485,-2.6607,-2.6758,-2.6958,-2.7233,-2.7419,-2.7539,-2.7704,-2.8226,-2.9184,-2.9372,-3.0148,-3.1643,0.0,0.0,0.0,0.0,0.0,0.0,0.0,0.0,0.0,0.0,0.0,0.0,0.0,0.0,0.0,-3.2144,0.0,-3.1359,-3.1242,0.0,0.0,0.0,-3.0354,-3.0228,-3.0526,-3.095,-3.1557,0.0,0.0,-3.2524,-3.2453,-3.2358,-3.2342,-3.2122,-3.184,-3.1508,-3.1365,-3.1102,-3.0687,-3.0612,-3.0447,-3.0246,-3.0123,-3.009,-2.9936,-2.9747,-2.9817,-2.9803,-2.982,-2.9882,-3.0019,-3.005,-3.008,-3.008,-3.0357,-3.0717,-3.1306,-3.0376,-2.9507,-2.946,-2.8591,-2.7765,-3.4176,-3.315,-3.361,-3.4218,-3.4913,-3.4731,-3.4072,-3.3103,-3.2997,-3.2276,-3.1176,-3.1312,-3.1083,-3.0505,-2.9549,-2.873,-2.7998,-2.7232,-2.6808,-2.6725,-2.6708,-2.664,-2.6589,-2.6555,-2.6537,-2.6537,-2.6452,-2.6383,-2.64,-2.6348,-2.6329,-2.6313,-2.6242,-2.6314,-2.6556,-2.647,-2.633,-2.6169,-2.6152,-2.6187,-2.6274,-2.64,-2.6555,-2.6674,-2.6958,-2.7105,-2.7153,-2.7373,-2.7626,-2.794,-2.8589,-2.9153,-2.9614,-3.0285,0.0,0.0,0.0,0.0,0.0,0.0,0.0,0.0,0.0,-3.2663,-3.2399,0.0,-3.179,0.0,-3.1321,-3.0931,-3.0588,-3.0398,0.0,0.0,-2.9766,-2.9785,-3.0222,-3.056,-3.1049,-3.1689,-3.1966,-3.2173,-3.2272,-3.2094,-3.194,-3.194,-3.1754,-3.1537,-3.1365,-3.1102,-3.0851,-3.0642,-3.0477,-3.0266,-2.9915,-2.9696,-2.9571,-2.9495,-2.9369,-2.9275,-2.9275,-2.9415,-2.9495,-2.9571,-2.9634,-2.9758,-2.9867,-2.9946,-3.0129,-3.0451,-2.9839,-2.9208,-2.9193,-2.8213,-2.7335,-3.3699,-3.2574,-3.2861,-3.3324,-3.3876,-3.4134,-3.3582,-3.2521,-3.2613,-3.1933,-3.0654,-3.0523,-3.0068,-2.9364,-2.8626,-2.7938,-2.7264,-2.6809,-2.6589,-2.6554,-2.6503,-2.6434,-2.6379,-2.6293,-2.6258,-2.624,-2.6152,-2.6118,-2.6118,-2.6028,-2.5974,-2.5974,-2.5772,-2.5754,-2.5903,-2.5957,-2.5921,-2.5828,-2.5828,-2.5864,-2.5989,-2.61,-2.6225,-2.6346,-2.6555,-2.6691,-2.6691,-2.6875,-2.6971,-2.7052,-2.7511,-2.7988,-2.8381,-2.8828,-2.9225,0.0,0.0,0.0,0.0,0.0,0.0,0.0,0.0,0.0,0.0,0.0,-3.0878,-3.0633,-3.0402,-3.0145,-2.9799,-2.9645,-2.9489,-2.9241,-2.9051,-2.9085,-2.9437,-2.9834,-3.0351,-3.1005,-3.1416,-3.1759,-3.1979,-3.1898,-3.1727,-3.1597,-3.1438,-3.1278,-3.1205,-3.091,-3.0642,-3.0416,-3.028,-3.0083,-2.9761,-2.9588,-2.9477,-2.9383,-2.9226,-2.9131,-2.9226,-2.9226,-2.9289,-2.9446,-2.954,-2.9634,-2.9682,-2.9747,-2.9901,-3.0017,-2.9421,-2.8894,-2.8889,-2.7962,-2.7104,-3.315,-3.215,-3.241,-3.2614,-3.2761,-3.3219,-3.2839,-3.1948,-3.2013,-3.135,-3.014,-2.9707,-2.9118,-2.842,-2.78,-2.7118,-2.6432,-2.6433,-2.6433,-2.6415,-2.6377,-2.6338,-2.6298,-2.6257,-2.6217,-2.6178,-2.6141,-2.6122,-2.6122,-2.5977,-2.5918,-2.5883,-2.5612,-2.5426,-2.5368,-2.5426,-2.5492,-2.5511,-2.5511,-2.5567,-2.5645,-2.577,-2.5879,-2.5937,-2.6136,-2.6242,-2.6242,-2.6296,-2.6349,-2.6402,-2.6402,-2.6722,-2.7465,-2.7445,-2.7678,0.0,-2.8276,0.0,0.0,0.0,0.0,0.0,0.0,0.0,0.0,-3.036,-2.993,-2.9483,-2.9438,-2.9325,-2.902,-2.8997,-2.8858,-2.8503,-2.8455,-2.8453,-2.8486,-2.8868,-2.9404,-3.006,-3.0563,-3.1018,-3.1392,-3.1515,-3.1399,-3.1186,-3.1042,-3.0969,-3.1029,-3.0791,-3.0492,-3.0142,-3.005,-2.9913,-2.9665,-2.9571,-2.9509,-2.9415,-2.9226,-2.9162,-2.932,-2.9226,-2.9226,-2.9509,-2.9571,-2.9602,-2.9602,-2.9713,-2.9822,-3.0052,-2.9301,-2.8627,-2.8594,-2.7788,-2.7021,-3.2796,-3.1682,-3.1966,-3.2247,-3.2446,-3.2013,-3.172,-3.1478,-3.1045,-3.0529,-3.0006,-2.9394,-2.8755,-2.8056,-2.7405,-2.6716,-2.6025,-2.6025,-2.6007,-2.604,-2.6547,-2.6773,-2.6787,-2.7361,-2.762,-2.7581,-2.744,-2.734,-2.7356,-2.7175,-2.7011,-2.6908,-2.6232,-2.5844,-2.5674,0.0,0.0,0.0,-2.5123,-2.5201,-2.5355,-2.541,-2.5505,-2.5661,-2.5756,0.0,-2.583,-2.5919,-2.5956,-2.5868,-2.585,0.0,0.0,0.0,0.0,0.0,0.0,0.0,0.0,0.0,0.0,0.0,-2.6739,-2.7749,-2.949,-2.9377,-2.9028,-2.8748,-2.8701,-2.8646,-2.8549,-2.8429,-2.8341,-2.8268,-2.8162,-2.8301,-2.8799,-2.8849,-2.913,-2.9796,-2.9873,-2.9886,-3.0023,-3.0036,-3.0163,-3.0444,-3.0378,-3.0455,-3.0807,-3.0687,-3.0492,-3.0172,-2.9896,-2.9696,-2.9602,-2.9509,-2.9446,-2.9383,-2.9226,-2.9131,-2.9162,-2.9289,-2.932,-2.9446,-2.9509,-2.9602,-2.9602,-2.9634,-2.9744,-3.0036,-2.9483,-2.8928,-2.8711,-2.7692,-2.6846,-3.2613,0.0,-3.1788,-3.1881,0.0,-3.1175,-3.0835,-3.0861,-3.0513,-2.9927,-2.9227,-2.8642,-2.7989,-2.728,-2.6711,-2.626,-2.5914,-2.6241,-2.6389,-2.6438,-2.7126,-2.7431,-2.7405,-2.7708,-2.7826,-2.7745,-2.7618,-2.7557,-2.7536,-2.729,-2.7179,-2.7094,-2.6613,-2.6082,-2.5544,-2.4724,-2.4446,-2.4762,-2.4762,-2.4822,-2.493,-2.5025,-2.5123,-2.5282,-2.5355,0.0,0.0,0.0,0.0,0.0,0.0,0.0,0.0,-2.4843,0.0,-2.4759,-2.4527,-2.4405,-2.4384,-2.4235,-2.4365,-2.5009,-2.5735,-2.6851,-2.8481,-2.8455,-2.8277,-2.8067,-2.8042,-2.8008,-2.793,-2.7855,-2.779,-2.77,-2.764,-2.7739,-2.8049,-2.8058,-2.8286,-2.8868,-2.8991,-2.911,-2.9453,-2.9537,-2.9645,-2.9792,-3.0008,-3.0132,-3.0295,-3.0498,-3.0492,-3.0142,-2.9882,-2.9682,-2.9588,-2.954,-2.9509,-2.9477,-2.9352,-2.9289,-2.932,-2.9352,-2.9415,-2.9477,-2.9571,-2.9602,-2.9602,-2.9665,-2.9789,-2.9962,-2.9657,-2.913,-2.8768,-2.7911,-2.7142,-3.2482,-3.2078,-3.1662,-3.1582,-3.1679,-3.0581,-3.0092,-3.0027,0.0,0.0,0.0,-2.7862,-2.7219,-2.6529,-2.6021,-2.587,-2.6015,-2.6553,-2.6879,-2.7007,-2.7708,-2.8042,-2.7993,-2.8003,-2.7932,-2.788,-2.7737,-2.7689,-2.7689,-2.7437,-2.7306,-2.7209,-2.6845,-2.6118,-2.5084,-2.432,-2.4051,-2.4317,-2.438,-2.4441,-2.4528,-2.4625,-2.4726,-2.4866,-2.4866,-2.4791,-2.4679,-2.4675,-2.4594,-2.4467,-2.4328,-2.4251,-2.423,-2.4021,-2.3931,-2.3915,-2.3717,-2.3595,-2.361,-2.3377,-2.3533,-2.4159,-2.5102,-2.6212,-2.754,-2.7625,-2.7549,-2.7448,-2.7433,-2.7397,-2.7284,-2.7299,-2.7233,-2.7155,-2.7155,-2.7181,-2.7207,-2.7192,-2.7469,-2.7927,-2.8136,-2.8381,-2.8925,-2.9053,-2.9227,-2.9198,-2.9431,-2.978,-2.9842,-3.0235,-3.0417,-3.0189,-2.996,-2.9761,-2.9665,-2.9602,-2.9602,-2.9571,-2.9509,-2.9477,-2.954,-2.9509,-2.9477,-2.9571,-2.9602,-2.9602,-2.962,-2.973,-2.9884,-3.0111,-2.9847,-2.9391,-2.8812,-2.826,-2.7665,-3.2372,-3.1805,-3.1471,-3.1423,-3.1447,-3.0325,-2.9407,-2.8713,-2.8982,-2.873,-2.8113,-2.7545,-2.6933,-2.631,-2.5676,-2.5709,-2.6234,-2.6346,-2.6715,-2.7345,-2.8019,-2.834,-2.8367,-2.8954,-2.9237,-2.9192,-2.8989,-2.886,-2.8837,-2.8646,-2.8428,-2.8068,-2.7025,-2.5696,-2.4274,-2.3842,-2.3674,-2.3739,-2.3961,-2.4094,-2.4162,-2.4183,-2.4261,-2.4385,-2.4302,-2.4224,-2.4188,-2.4135,-2.4051,-2.3909,-2.3788,-2.3659,-2.3537,-2.3341,-2.326,-2.3238,-2.3001,-2.2867,-2.2867,-2.2717,-2.2853,-2.3417,-2.3968,-2.5051,-2.6836,-2.693,-2.6841,-2.6841,-2.6841,-2.68,-2.6788,-2.6814,-2.6855,-2.6989,-2.7015,-2.7067,-2.7141,-2.7167,-2.7225,-2.7343,-2.734,-2.7462,-2.7732,-2.7784,-2.7992,-2.8325,-2.8621,-2.8739,-2.9493,-3.0028,-3.0283,-3.0235,-3.0007,-2.9808,-2.9775,-2.9682,-2.9634,-2.9602,-2.9571,-2.9571,-2.9571,-2.9571,-2.9585,-2.9602,-2.9602,-2.9651,-2.973,-2.9777,-2.9931,-3.019,-3.0152,-2.9838,-2.9,-2.8607,-2.8142,-3.2482,-3.2182,-3.1485,-3.1263,-3.1318,-3.0243,-2.9238,-2.833,-2.851,-2.8178,-2.7454,-2.7199,-2.6783,-2.6254,-2.5959,-2.6234,-2.6906,-2.7273,-2.7609,-2.7982,-2.8686,-2.8962,-2.8911,-2.9162,-2.9236,-2.9167,-2.9021,-2.8944,-2.892,-2.8723,-2.8532,-2.8295,-2.6779,-2.5417,-2.4406,-2.3746,-2.3436,-2.3436,-2.3625,-2.3747,-2.3775,-2.3824,-2.3867,-2.3894,-2.3788,-2.3702,-2.3689,-2.3581,-2.3436,-2.3312,-2.315,-2.3038,-2.2971,-2.2746,-2.2609,-2.2609,-2.2411,-2.231,-2.2226,-2.2016,-2.2162,-2.2776,-2.2992,-2.362,-2.4836,-2.5753,-2.6272,-2.6258,-2.6258,-2.6258,-2.6258,-2.6338,-2.6392,-2.65,-2.6553,-2.6686,-2.6803,-2.68,-2.6855,-2.6974,-2.7041,-2.7119,-2.7185,-2.7299,-2.7476,-2.7806,-2.8205,-2.8886,-2.9508,-3.0087,-3.0417,-3.0326,-3.016,-3.0038,-2.996,-2.9806,-2.9744,-2.9699,-2.962,-2.9602,-2.9602,-2.9602,-2.9602,-2.9602,-2.9651,-2.973,-2.9808,-2.9962,-3.0129,-3.0221,-3.0372,-3.0072,-2.9421,-2.8737,-2.7948,-3.2576,-3.2572,-3.1483,-3.0969,-3.0772,-2.9931,-2.902,-2.8192,-2.8314,-2.786,-2.7098,-2.7121,-2.6751,-2.6129,-2.6286,-2.6788,-2.7476,-2.8001,-2.8319,-2.8526,-2.9082,-2.9275,-2.9167,-2.9091,-2.8982,-2.8889,-2.8803,-2.8747,-2.866,-2.8468,-2.813,-2.7666,-2.6163,-2.503,-2.4395,-2.3629,-2.3231,-2.3216,-2.329,-2.3356,-2.3422,-2.3458,-2.3486,-2.3443,-2.3297,-2.3224,-2.3172,-2.3038,-2.2904,-2.2791,-2.2601,-2.2463,-2.2463,-2.2231,-2.2091,-2.2067,-2.1935,-2.1807,-2.164,-2.1447,-2.1504,-2.1988,-2.2163,-2.2434,-2.2946,-2.4243,-2.523,-2.5465,-2.5617,-2.5757,-2.5757,-2.588,-2.5989,-2.6043,-2.6152,-2.6299,-2.6445,-2.6484,-2.6551,-2.6712,-2.6873,-2.6977,-2.7029,-2.717,-2.7314,-2.7451,-2.8184,-2.8931,-2.9377,-2.9958,-3.029,-3.0388,-3.0326,-3.0266,-3.0142,-2.9991,-2.9898,-2.9867,-2.9775,-2.9758,-2.9741,-2.9727,-2.9696,-2.9727,-2.982,-2.9898,-2.9946,-3.0099,-3.0282,-3.0372,-3.0477,-3.0336,-2.9508,-2.8659,-2.7791,-3.2513,-3.2356,-3.1302,-3.0279,-2.9525,-2.9075,-2.856,-2.809,-2.8152,-2.7933,-2.7442,-2.7595,-2.6945,-2.593,-2.6404,-2.7045,-2.7677,-2.7732,-2.813,-2.8717,-2.8834,-2.8842,-2.8865,-2.8826,-2.8818,-2.8794,-2.866,-2.8541,-2.8436,-2.8268,-2.7415,-2.5948,-2.5022,-2.423,-2.3519,-2.3223,-2.3068,-2.2934,-2.2865,-2.2947,-2.3127,-2.315,-2.3105,-2.2957,-2.283,-2.2777,-2.2754,-2.2578,-2.2463,-2.244,-2.2208,-2.2053,-2.2044,-2.1926,-2.1769,-2.1664,-2.153,-2.135,-2.112,-2.1071,-2.1023,-2.0989,-2.1479,-2.1719,-2.1694,-2.2339,-2.3177,-2.4042,-2.4833,-2.5148,-2.5286,-2.5411,-2.5591,-2.5853,-2.5921,-2.6029,-2.6286,-2.6418,-2.651,-2.651,-2.6712,-2.6873,-2.6951,-2.7029,-2.7055,-2.7081,-2.7686,-2.8322,-2.8839,-2.9406,-3.0031,-3.0363,-3.0417,-3.0326,-3.0266,-3.0158,-3.0066,-3.0066,-3.005,-3.0019,-2.9988,-2.9988,-3.005,-2.9958,-3.0036,-3.0097,-3.0174,-3.0296,-3.0387,-3.0477,-3.0495,-3.0293,-2.9272,-2.8605,-2.7995,-3.2481,-3.2396,-3.1271,-3.022,-2.9305,-2.8782,-2.8306,-2.7896,-2.794,-2.7731,-2.7402,-2.7804,-2.7566,-2.6901,-2.7165,-2.7664,-2.8342,-2.8358,-2.8514,-2.8794,-2.881,-2.8747,-2.8684,-2.8589,-2.8517,-2.8444,-2.8284,-2.8226,-2.8067,-2.757,-2.6633,-2.5512,-2.4657,-2.3908,-2.3215,-2.3007,-2.288,-2.2834,-2.2721,-2.2698,-2.2678,-2.2768,-2.2783,-2.2723,-2.2601,-2.2472,-2.2388,-2.2254,-2.2137,-2.2044,-2.1878,-2.1722,-2.165,-2.1506,-2.1399,-2.124,-2.1044,-2.0883,-2.0759,-2.0623,-2.0511,-2.0447,-2.0668,-2.081,-2.0772,-2.1302,-2.1836,-2.2325,-2.3137,-2.3823,-2.4242,-2.4503,-2.486,-2.5301,-2.5619,-2.5852,-2.6029,-2.6177,-2.6297,-2.6498,-2.6578,-2.6712,-2.6832,-2.6951,-2.7003,-2.7076,-2.7515,-2.8061,-2.8635,-2.9218,-2.9856,-3.0408,-3.0507,-3.0477,-3.0447,-3.0326,-3.0235,-3.0205,-3.0127,-3.008,-3.0111,-3.008,-3.008,-3.0111,-3.0172,-3.0249,-3.0266,-3.0417,-3.0507,-3.0598,-3.0644,-3.0411,-2.9364,-2.9003,-2.8506,-3.2283,-3.1985,-3.0804,-2.9854,-2.9151,-2.8429,-2.7987,-2.7771,-2.779,-2.7643,-2.7496,-2.7939,-2.8023,-2.7829,-2.786,-2.8194,-2.8653,-2.87,-2.8676,-2.8636,-2.8652,-2.8565,-2.8429,-2.8348,-2.8226,-2.8152,-2.8054,-2.7889,-2.7612,-2.672,-2.5869,-2.5073,-2.4252,-2.3572,-2.3073,-2.2886,-2.2772,-2.2735,-2.2615,-2.2463,-2.237,-2.244,-2.25,-2.2486,-2.237,-2.224,-2.2137,-2.1973,-2.1855,-2.1746,-2.1616,-2.1482,-2.135,-2.1253,-2.112,-2.0909,-2.0711,-2.0548,-2.0485,-2.0271,-2.0131,-2.0093,-2.008,-2.0029,-2.0054,-2.0397,-2.0626,-2.0768,-2.1366,-2.2138,-2.316,-2.3526,-2.3905,-2.4407,-2.4819,-2.5119,-2.5279,-2.558,-2.5881,-2.616,-2.6354,-2.6578,-2.6779,-2.6873,-2.6925,-2.701,-2.7316,-2.7917,-2.8548,-2.9087,-2.961,-3.0408,-3.0598,-3.0612,-3.0582,-3.0477,-3.0372,-3.0357,-3.031,-3.0264,-3.0264,-3.0233,-3.0233,-3.0341,-3.0357,-3.0387,-3.0417,-3.0538,-3.0628,-3.0672,-3.0748,-3.0602,-2.9814,-2.9527,-2.8982,-3.1768,-3.1135,-2.9624,-2.9007,-2.883,-2.7879,-2.7508,-2.764,-2.774,-2.7835,-2.7889,-2.7989,-2.7989,-2.8002,-2.8176,-2.8365,-2.8436,-2.8411,-2.8348,-2.8275,-2.825,-2.8177,-2.8044,-2.802,-2.802,-2.8005,-2.798,-2.7603,-2.6862,-2.5956,-2.5082,-2.4359,-2.3596,-2.3081,-2.2925,-2.2826,-2.2735,-2.2629,-2.2463,-2.2347,-2.2231,-2.2231,-2.2231,-2.2231,-2.2114,-2.2006,-2.1973,-2.1746,-2.1602,-2.1602,-2.1482,-2.135,-2.1215,-2.118,-2.0995,-2.0673,-2.0536,-2.0398,-2.022,-2.008,-1.9952,-1.9837,-1.9708,-1.9591,-1.9486,-1.956,-1.965,-1.9679,-1.9883,-2.0571,-2.1909,-2.2469,-2.2831,-2.3205,-2.339,-2.3693,-2.4002,-2.4703,-2.5111,-2.546,-2.6014,-2.6477,-2.675,-2.6794,-2.682,-2.682,-2.6864,-2.7329,-2.8404,-2.8767,-2.9334,-3.022,-3.0612,-3.0612,-3.0612,-3.0568,-3.0568,-3.0552,-3.0522,-3.0507,-3.0582,-3.0582,-3.0582,-3.0552,-3.0538,-3.0538,-3.0582,-3.0612,-3.0672,-3.0791,-3.0955,-3.0718,-3.0164,-2.9841,-2.9238,-3.1252,-3.0025,-2.8987,-2.8476,-2.8188,-2.746,-2.7273,-2.7463,-2.7514,-2.768,-2.7855,-2.788,-2.7905,-2.802,-2.8103,-2.8128,-2.8128,-2.8168,-2.8103,-2.8079,-2.8079,-2.8054,-2.798,-2.7905,-2.788,-2.7865,-2.775,-2.7345,-2.6523,-2.5714,-2.4935,-2.4147,-2.3343,-2.2933,-2.2865,-2.2743,-2.2638,-2.2592,-2.2394,-2.2254,-2.2208,-2.2194,-2.2147,-2.2067,-2.203,-2.1926,-2.1746,-2.165,-2.1568,-2.1471,-2.1337,-2.1204,-2.1057,-2.0873,-2.0699,-2.0549,-2.0322,-2.0105,-1.9965,-1.9811,-1.9668,-1.9565,-1.9422,-1.9317,-1.9277,-1.9198,-1.9198,-1.9317,-1.9344,-1.9747,-2.0312,-2.1155,-2.1929,-2.2551,-2.295,-2.3213,-2.353,-2.3981,-2.4364,-2.4654,-2.5352,-2.6127,-2.6608,-2.6779,-2.6794,-2.6794,-2.6794,-2.7401,-2.8331,-2.8694,-2.9159,-3.022,-3.0612,-3.0612,-3.0612,-3.0612,-3.0612,-3.0612,-3.0612,-3.0582,-3.0612,-3.0612,-3.0582,-3.0582,-3.0612,-3.0612,-3.0612,-3.0702,-3.0791,-3.0955,-3.1132,-3.0997,-3.0529,-3.0046,-2.9415,-3.0497,-2.9243,-2.8656,-2.8149,-2.7746,-2.7214,-2.7107,-2.7273,-2.735,-2.7488,-2.764,-2.7715,-2.779,-2.7855,-2.7865,-2.788,-2.7865,-2.7955,-2.7955,-2.7945,-2.793,-2.7905,-2.7855,-2.779,-2.7725,-2.7715,-2.7615,-2.7056,-2.6109,-2.5514,-2.4737,-2.3771,-2.3159,-2.288,-2.2834,-2.2684,-2.2592,-2.2523,-2.231,-2.2194,-2.2194,-2.2147,-2.2077,-2.1949,-2.1888,-2.1793,-2.1616,-2.1568,-2.1482,-2.1399,-2.1277,-2.1131,-2.0961,-2.0662,-2.0461,-2.0385,-2.0105,-1.9862,-1.9734,-1.9539,-1.9356,-1.9251,-1.9119,-1.9028,-1.8975,-1.8934,-1.8934,-1.8987,-1.9013,-1.9093,-1.9377,-1.9978,-2.0766,-2.1549,-2.2036,-2.2387,-2.2671,-2.3167,-2.368,-2.4275,-2.5091,-2.5839,-2.6361,-2.6649,-2.6765,-2.6794,-2.6794,-2.7329,-2.8375,-2.8738,-2.9159,-3.0322,-3.0598,-3.0612,-3.0612,-3.0612,-3.0612,-3.0612,-3.0612,-3.0612,-3.0612,-3.0612,-3.0612,-3.0612,-3.0642,-3.0642,-3.0702,-3.0791,-3.094,-3.1132,-3.1205,-3.1129,-3.0662,-3.0176,-2.9645,-2.9468,-2.8848,-2.8555,-2.8009,-2.7456,-2.7106,-2.7003,-2.7081,-2.7273,-2.7376,-2.7478,-2.7549,-2.7625,-2.7625,-2.765,-2.7625,-2.7675,-2.788,-2.7905,-2.7815,-2.779,-2.774,-2.765,-2.7625,-2.7625,-2.76,-2.7463,-2.6703,-2.5497,-2.5197,-2.4452,-2.3316,-2.3014,-2.2872,-2.2809,-2.2675,-2.2546,-2.2431,-2.2278,-2.2194,-2.217,-2.2091,-2.1935,-2.1817,-2.1712,-2.1626,-2.1592,-2.1471,-2.1399,-2.1375,-2.1253,-2.1095,-2.0888,-2.0625,-2.0398,-2.0182,-1.9939,-1.9734,-1.9552,-1.9225,-1.9066,-1.896,-1.8747,-1.864,-1.8614,-1.8587,-1.8587,-1.8587,-1.8614,-1.8721,-1.8946,-1.9153,-1.9506,-2.0105,-2.0667,-2.102,-2.152,-2.2155,-2.3067,-2.4149,-2.4966,-2.5579,-2.5897,-2.6326,-2.6634,-2.675,-2.6808,-2.727,-2.8404,-2.8694,-2.9261,-3.0205,-3.0612,-3.0612,-3.0612,-3.0612,-3.0612,-3.0612,-3.0612,-3.0612,-3.0612,-3.0612,-3.0642,-3.0642,-3.0732,-3.0762,-3.0866,-3.0955,-3.1087,-3.1234,-3.1278,-3.1335,-3.1061,-3.0633,-3.0027,-2.9106,-2.8336,-2.8268,-2.7695,-2.687,-2.6852,-2.6884,-2.7003,-2.7107,-2.7237,-2.7376,-2.7452,-2.7514,-2.7575,-2.7585,-2.7585,-2.7585,-2.77,-2.77,-2.7675,-2.765,-2.765,-2.7585,-2.7585,-2.7549,-2.7488,-2.7427,-2.6618,-2.5418,-2.5116,-2.4361,-2.3211,-2.2925,-2.2872,-2.2795,-2.2675,-2.2532,-2.2394,-2.2278,-2.2194,-2.217,-2.2053,-2.1926,-2.1793,-2.165,-2.1568,-2.1458,-2.1423,-2.135,-2.1264,-2.1131,-2.0923,-2.0662,-2.0398,-2.0182,-1.9965,-1.9759,-1.95,-1.9251,-1.9066,-1.8881,-1.8747,-1.8545,-1.8383,-1.8263,-1.8182,-1.817,-1.8247,-1.8275,-1.8383,-1.8679,-1.8907,-1.9251,-1.9862,-2.0169,-2.0523,-2.1008,-2.1635,-2.2495,-2.3392,-2.392,-2.4536,-2.542,-2.6002,-2.6315,-2.6721,-2.6794,-2.7273,-2.8346,-2.8694,-2.9203,-3.0307,-3.0452,-3.0612,-3.0612,-3.0642,-3.0628,-3.0628,-3.0628,-3.0642,-3.0642,-3.0702,-3.0702,-3.0762,-3.0836,-3.0925,-3.1014,-3.1132,-3.1234,-3.1322,-3.138,-3.1436,-3.1504,-3.0988,-3.0184,-2.8947,-2.7964,-2.8082,-2.7483,-2.6488,-2.6618,-2.6765,-2.6925,-2.6977,-2.7093,-2.7248,-2.7299,-2.7346,-2.7423,-2.7448,-2.7448,-2.7463,-2.7448,-2.7448,-2.7473,-2.7575,-2.7585,-2.7575,-2.7564,-2.7463,-2.7335,-2.7273,-2.6493,-2.516,-2.4961,-2.4291,-2.3113,-2.2888,-2.282,-2.2721,-2.2638,-2.2509,-2.2347,-2.2254,-2.2184,-2.2114,-2.1996,-2.1878,-2.1736,-2.1578,-2.1496,-2.1399,-2.135,-2.1277,-2.118,-2.0983,-2.0749,-2.0498,-2.0207,-1.9991,-1.9811,-1.9526,-1.9239,-1.9013,-1.8866,-1.8679,-1.8464,-1.8302,-1.8139,-1.7975,-1.7865,-1.7893,-1.792,-1.7991,-1.8139,-1.8398,-1.8694,-1.904,-1.9448,-1.9837,-2.0271,-2.0797,-2.1385,-2.1979,-2.2732,-2.3264,-2.4032,-2.4912,-2.5644,-2.6039,-2.6631,-2.6794,-2.7244,-2.8273,-2.868,-2.945,-3.0133,-3.0525,-3.0612,-3.0612,-3.0628,-3.0657,-3.0687,-3.0687,-3.0687,-3.0687,-3.0821,-3.0895,-3.0955,-3.1043,-3.1087,-3.1176,-3.1292,-3.1409,-3.1438,-3.1453,-3.1538,-3.1473,-3.0709,-2.9989,-2.89,-2.7891,-2.7951,-2.7343,-2.6397,-2.6457,-2.6645,-2.6806,-2.6925,-2.6977,-2.7041,-2.7144,-2.7207,-2.7207,-2.7244,-2.7244,-2.7192,-2.7218,-2.7218,-2.7295,-2.7423,-2.7524,-2.7524,-2.7437,-2.7325,-2.7196,-2.7067,-2.6356,-2.5248,-2.4951,-2.4186,-2.3134,-2.296,-2.2783,-2.2661,-2.2615,-2.2463,-2.2254,-2.2194,-2.2137,-2.2006,-2.1902,-2.1759,-2.1602,-2.1496,-2.1399,-2.135,-2.1229,-2.1131,-2.1106,-2.0797,-2.0561,-2.0372,-2.0029,-1.9837,-1.9734,-1.9277,-1.9066,-1.8907,-1.8625,-1.8329,-1.8127,-1.7991,-1.7854,-1.7739,-1.77,-1.77,-1.7711,-1.7799,-1.7936,-1.8127,-1.8383,-1.8694,-1.904,-1.9604,-2.0195,-2.0871,-2.1337,-2.1791,-2.2216,-2.2932,-2.3774,-2.4575,-2.5286,-2.5926,-2.6602,-2.6808,-2.7387,-2.8115,-2.8694,-2.9305,-2.9871,-3.0394,-3.0612,-3.0612,-3.0702,-3.0732,-3.0762,-3.0821,-3.0866,-3.0836,-3.0969,-3.1043,-3.1132,-3.119,-3.1263,-3.1336,-3.1409,-3.1467,-3.1467,-3.1539,-3.1612,-3.1304,-3.0643,-3.0095,-2.8886,-2.7847,-2.7951,-2.7343,-2.6385,-2.6445,-2.6618,-2.6779,-2.6832,-2.691,-2.6977,-2.7015,-2.7119,-2.7181,-2.7192,-2.7192,-2.7167,-2.7167,-2.7192,-2.7207,-2.7258,-2.731,-2.731,-2.7284,-2.7196,-2.7067,-2.7,-2.6513,-2.5635,-2.5096,-2.4404,-2.3644,-2.3134,-2.2812,-2.2638,-2.2615,-2.2477,-2.2217,-2.2194,-2.2137,-2.1996,-2.1864,-2.1736,-2.1602,-2.1458,-2.1337,-2.1229,-2.0945,-2.0759,-2.0747,-2.0649,-2.0334,-2.0054,-1.9862,-1.9656,-1.9394,-1.9158,-1.8907,-1.8667,-1.8383,-1.8111,-1.7963,-1.7838,-1.7711,-1.7562,-1.7551,-1.7551,-1.7562,-1.7579,-1.7717,-1.792,-1.8139,-1.8506,-1.9107,-1.9656,-2.0232,-2.0759,-2.1215,-2.1578,-2.1892,-2.2306,-2.3174,-2.4222,-2.4869,-2.5503,-2.6448,-2.6852,-2.707,-2.7882,-2.8536,-2.9101,-2.9653,-3.0147,-3.0452,-3.0642,-3.0732,-3.0791,-3.0866,-3.094,-3.1117,-3.1117,-3.1161,-3.1205,-3.1263,-3.1322,-3.1409,-3.1438,-3.1467,-3.1496,-3.1496,-3.1626,-3.1697,-3.1505,-3.1019,-3.0456,-2.904,-2.8185,-2.8006,-2.7457,-2.674,-2.6506,-2.658,-2.6753,-2.6794,-2.6832,-2.6884,-2.6925,-2.6963,-2.7026,-2.7026,-2.7026,-2.7041,-2.7026,-2.7041,-2.7026,-2.7026,-2.7052,-2.7093,-2.7119,-2.7041,-2.6925,-2.6925,-2.648,-2.5861,-2.54,-2.4776,-2.3978,-2.3459,-2.3025,-2.2601,-2.2532,-2.2417,-2.2217,-2.2147,-2.2067,-2.1926,-2.1807,-2.1664,-2.1506,-2.1385,-2.1267,-2.1059,-2.0785,-2.061,-2.056,-2.0346,-2.008,-1.9837,-1.9604,-1.9408,-1.9117,-1.8946,-1.8721,-1.8506,-1.822,-1.7963,-1.7826,-1.77,-1.7573,-1.7451,-1.7423,-1.7396,-1.7407,-1.7451,-1.7617,-1.781,-1.8111,-1.8533,-1.9066,-1.9617,-2.0131,-2.0585,-2.097,-2.135,-2.1664,-2.2066,-2.2757,-2.4209,-2.4554,-2.5355,-2.6269,-2.6738,-2.7115,-2.7666,-2.8274,-2.8898,-2.945,-3.006,-3.0467,-3.0672,-3.0791,-3.0925,-3.0955,-3.1132,-3.1292,-3.1307,-3.1307,-3.1322,-3.138,-3.1467,-3.1496,-3.1496,-3.1496,-3.1496,-3.1553,-3.1683,-3.1751,-3.1632,-3.1341,-3.0777,-2.9251,-2.8633,-2.8115,-2.7711,-2.734,-2.6756,-2.6831,-2.6999,-2.7125,-2.7053,-2.698,-2.691,-2.6948,-2.6794,-2.6832,-2.6806,-2.682,-2.6832,-2.6806,-2.6832,-2.6832,-2.6884,-2.6977,-2.6977,-2.6925,-2.682,-2.6794,-2.65,-2.6054,-2.5876,-2.5222,-2.4375,-2.3903,-2.3353,-2.2849,-2.2557,-2.2324,-2.2194,-2.2077,-2.1959,-2.1817,-2.1712,-2.1568,-2.1447,-2.124,-2.1071,-2.0886,-2.0661,-2.051,-2.051,-2.0055,-1.9824,-1.9734,-1.9394,-1.9143,-1.8972,-1.8721,-1.8518,-1.8329,-1.8057,-1.7838,-1.77,-1.7562,-1.7451,-1.7351,-1.7334,-1.7334,-1.7334,-1.7407,-1.7534,-1.7755,-1.822,-1.864,-1.8999,-1.9356,-1.9811,-2.0271,-2.0736,-2.1144,-2.1544,-2.1912,-2.2788,-2.3826,-2.4594,-2.5142,-2.6318,-2.6686,-2.6982,-2.7534,-2.8173,-2.8724,-2.9247,-2.9885,-3.0569,-3.0732,-3.0836,-3.0984,-3.1102,-3.1292,-3.1438,-3.1438,-3.1438,-3.1467,-3.1496,-3.1496,-3.1496,-3.1496,-3.1496,-3.1496,-3.1611,-3.1769,-3.1883,-3.1918,-3.1476,-3.101,-2.9251,-2.8689,-2.8549,-2.8304,-2.8011,-2.7854,-2.7952,-2.8231,-2.8258,-2.7926,-2.7607,-2.752,-2.7229,-2.6808,-2.6835,-2.6794,-2.6794,-2.6794,-2.6794,-2.6794,-2.6794,-2.6806,-2.6846,-2.6846,-2.682,-2.6794,-2.6794,-2.6692,-2.6474,-2.6079,-2.5701,-2.5299,-2.4283,-2.3569,-2.3278,-2.271,-2.2361,-2.2208,-2.2053,-2.1912,-2.1793,-2.1664,-2.152,-2.1375,-2.1155,-2.0896,-2.0661,-2.0397,-2.0195,-2.0016,-1.9875,-1.9708,-1.9499,-1.9237,-1.8999,-1.8825,-1.861,-1.8356,-1.8166,-1.792,-1.7673,-1.7562,-1.7423,-1.7334,-1.7306,-1.7278,-1.7306,-1.7306,-1.7323,-1.7462,-1.7711,-1.8236,-1.8614,-1.8893,-1.921,-1.9617,-2.0054,-2.0523,-2.0981,-2.1361,-2.1739,-2.2456,-2.3892,-2.4341,-2.5102,-2.6182,-2.6633,-2.6852,-2.7401,-2.8041,-2.8536,-2.9015,-2.9726,-3.038,-3.0672,-3.0821,-3.1043,-3.119,-3.138,-3.1496,-3.1496,-3.1496,-3.1496,-3.1496,-3.1496,-3.1496,-3.1496,-3.1511,-3.1511,-3.1683,-3.1826,-3.1953,-3.1942,-3.1573,-3.1313,-2.942,-2.9097,-2.883,-2.8672,-2.8596,-2.834,-2.8383,-2.8638,-2.8694,-2.8534,-2.8158,-2.7855,-2.7507,-2.7215,-2.6924,-2.6794,-2.6794,-2.6794,-2.6794,-2.6794,-2.6794,-2.6794,-2.6794,-2.6794,-2.6794,-2.6794,-2.6794,-2.6794,-2.6663,-2.6431,-2.6137,-2.5792,-2.4893,-2.4142,-2.3531,-2.2975,-2.256,-2.2226,-2.1983,-2.1864,-2.1793,-2.1616,-2.1399,-2.1242,-2.1035,-2.0837,-2.0574,-2.0334,-2.0093,-1.9837,-1.9682,-1.9539,-1.9328,-1.9052,-1.8878,-1.8718,-1.853,-1.8275,-1.803,-1.781,-1.7645,-1.7507,-1.7312,-1.72,-1.7145,-1.7145,-1.7172,-1.7172,-1.7267,-1.7407,-1.7711,-1.8247,-1.8598,-1.8786,-1.9143,-1.9512,-1.9888,-2.0346,-2.0797,-2.1191,-2.1544,-2.2301,-2.3168,-2.395,-2.479,-2.5761,-2.6481,-2.6703,-2.6997,-2.7621,-2.8216,-2.8797,-2.9552,-3.0132,-3.0526,-3.0821,-3.1058,-3.1234,-3.1395,-3.1467,-3.1496,-3.1496,-3.1496,-3.1496,-3.1496,-3.1496,-3.1496,-3.1511,-3.1583,-3.1727,-3.1883,-3.201,-3.2086,-3.1965,-3.1666,-2.9602,-2.9574,-2.9055,-2.8997,-2.9137,-2.8754,-2.8757,-2.9015,-2.8999,-2.9015,-2.8739,-2.8203,-2.8014,-2.7608,-2.72,-2.6939,-2.6794,-2.6794,-2.6794,-2.6794,-2.6794,-2.6794,-2.6794,-2.6794,-2.6794,-2.6794,-2.6794,-2.6794,-2.6794,-2.675,-2.6471,-2.5984,-2.5526,-2.4851,-2.3963,-2.3257,-2.2831,-2.2394,-2.2019,-2.1793,-2.1722,-2.1544,-2.1302,-2.1071,-2.0949,-2.075,-2.0473,-2.0271,-2.0054,-1.9759,-1.9512,-1.9342,-1.9143,-1.8931,-1.8732,-1.8614,-1.8449,-1.8177,-1.792,-1.7767,-1.7629,-1.7479,-1.7245,-1.7067,-1.7078,-1.7078,-1.7106,-1.7162,-1.7256,-1.7501,-1.7711,-1.8247,-1.8533,-1.8694,-1.9105,-1.9486,-1.9759,-2.0144,-2.0598,-2.1082,-2.1426,-2.2045,-2.2881,-2.3727,-2.4495,-2.5286,-2.6002,-2.658,-2.6874,-2.7316,-2.7955,-2.8623,-2.9377,-3.0074,-3.0467,-3.0836,-3.1102,-3.122,-3.1395,-3.1467,-3.1496,-3.1496,-3.1496,-3.1496,-3.1496,-3.1496,-3.1539,-3.1568,-3.167,-3.1784,-3.194,-3.2122,-3.2219,-3.233,-3.2032,-2.9602,-2.9602,-2.9504,-2.9633,-2.9895,-2.9825,-2.9892,-3.0263,-3.0191,-2.9943,-2.9464,-2.9305,-2.8609,-2.7942,-2.7637,-2.7287,-2.6895,-2.6794,-2.6794,-2.6794,-2.6794,-2.6794,-2.6794,-2.6794,-2.6794,-2.6794,-2.6794,-2.6794,-2.6794,-2.6765,-2.6704,-2.6437,-2.5828,-2.5197,-2.4693,-2.3879,-2.3105,-2.2658,-2.2193,-2.1842,-2.164,-2.1447,-2.1253,-2.1021,-2.0924,-2.0662,-2.0359,-2.0207,-1.9978,-1.9525,-1.942,-1.9263,-1.9052,-1.8813,-1.8679,-1.8572,-1.8329,-1.8057,-1.7822,-1.7739,-1.7573,-1.7379,-1.7228,-1.7239,-1.7239,-1.725,-1.72,-1.7284,-1.7451,-1.7656,-1.7711,-1.8263,-1.8533,-1.8721,-1.9066,-1.946,-1.9694,-2.0016,-2.046,-2.0959,-2.1307,-2.1708,-2.256,-2.342,-2.4281,-2.5083,-2.5854,-2.633,-2.665,-2.7163,-2.7811,-2.8521,-2.9218,-2.9885,-3.0496,-3.0822,-3.1117,-3.119,-3.1307,-3.1467,-3.1496,-3.1496,-3.1496,-3.1496,-3.1496,-3.1511,-3.1568,-3.1641,-3.1769,-3.1912,-3.2066,-3.2191,-3.2302,-3.237,-3.2468,-2.9602,-2.9602,-2.9602,-2.9803,-3.005,-3.008,-3.0294,-3.0582,-3.0598,-3.0438,-3.0089,-2.9755,-2.9291,-2.8623,-2.7913,-2.7389,-2.6924,-2.6794,-2.6794,-2.6794,-2.6794,-2.6794,-2.6794,-2.6794,-2.6794,-2.6794,-2.6794,-2.6794,-2.6794,-2.6794,-2.6779,-2.6654,-2.6129,-2.5714,-2.5331,-2.4586,-2.3638,-2.3041,-2.2488,-2.2011,-2.1619,-2.1375,-2.112,-2.1021,-2.0837,-2.0574,-2.0309,-2.0195,-1.9952,-1.9525,-1.942,-1.9225,-1.9013,-1.8839,-1.8679,-1.856,-1.829,-1.7975,-1.7767,-1.7684,-1.7584,-1.7323,-1.72,-1.7134,-1.7134,-1.7134,-1.7228,-1.7396,-1.7545,-1.7739,-1.781,-1.829,-1.8533,-1.8694,-1.9066,-1.9408,-1.9642,-1.9965,-2.0397,-2.0835,-2.1158,-2.1583,-2.2169,-2.3066,-2.4011,-2.4881,-2.569,-2.6122,-2.6414,-2.6909,-2.7496,-2.8261,-2.8971,-2.9798,-3.0395,-3.0807,-3.1102,-3.119,-3.1278,-3.1438,-3.1496,-3.1496,-3.1496,-3.1496,-3.1511,-3.1539,-3.1641,-3.1756,-3.1912,-3.2038,-3.2135,-3.2247,-3.2342,-3.2425,-3.2496,-2.9602,-2.9602,-2.9602,-2.9772,-3.0019,-3.008,-3.0264,-3.0507,-3.0568,-3.0598,-3.0539,-3.006,-2.9755,-2.9276,-2.8319,-2.7362,-2.6823,-2.6794,-2.6794,-2.6794,-2.6794,-2.6794,-2.6794,-2.6794,-2.6794,-2.6794,-2.6794,-2.6794,-2.6794,-2.6794,-2.6779,-2.6645,-2.6406,-2.6073,-2.555,-2.5069,-2.4198,-2.3406,-2.2793,-2.2314,-2.1632,-2.1204,-2.0997,-2.0972,-2.0812,-2.0549,-2.0245,-2.0195,-1.9952,-1.9603,-1.942,-1.9289,-1.9052,-1.8878,-1.8744,-1.8625,-1.8317,-1.803,-1.781,-1.7711,-1.7601,-1.7379,-1.72,-1.7106,-1.7078,-1.7162,-1.719,-1.744,-1.7617,-1.7783,-1.7963,-1.8344,-1.856,-1.8747,-1.9078,-1.9447,-1.9617,-1.9914,-2.0308,-2.0698,-2.0995,-2.1432,-2.2011,-2.264,-2.359,-2.445,-2.5256,-2.5959,-2.6263,-2.6455,-2.7025,-2.7885,-2.871,-2.9639,-3.0279,-3.0793,-3.1043,-3.1205,-3.1322,-3.1467,-3.1496,-3.1496,-3.1496,-3.1496,-3.1597,-3.1655,-3.1756,-3.1841,-3.1968,-3.2094,-3.2191,-3.2259,-3.237,-3.2453,-3.2551,-2.9602,-2.9602,-2.9602,-2.9682,-2.9853,-3.0005,-3.0203,-3.0342,-3.0538,-3.0612,-3.0612,-3.0481,-3.0103,-2.9421,-2.8377,-2.7476,-2.6997,-2.6881,-2.6852,-2.6835,-2.6794,-2.6794,-2.6794,-2.6794,-2.6794,-2.6794,-2.6794,-2.6794,-2.6794,-2.6794,-2.6686,-2.6551,-2.6406,-2.6162,-2.5882,-2.5383,-2.4551,-2.365,-2.2992,-2.2215,-2.1396,-2.1082,-2.0985,-2.0899,-2.0762,-2.0549,-2.0258,-2.0195,-1.9978,-1.9642,-1.9473,-1.9316,-1.9143,-1.8931,-1.8825,-1.8691,-1.8503,-1.8232,-1.7947,-1.7783,-1.7656,-1.7479,-1.7323,-1.7295,-1.7239,-1.7267,-1.734,-1.7468,-1.7645,-1.7849,-1.8084,-1.8398,-1.8598,-1.8839,-1.9131,-1.9368,-1.9525,-1.9926,-2.0321,-2.0598,-2.0896,-2.1313,-2.1832,-2.2467,-2.3148,-2.3974,-2.4798,-2.5538,-2.6126,-2.64,-2.6808,-2.7697,-2.8492,-2.942,-3.0192,-3.0676,-3.1014,-3.1219,-3.1351,-3.1496,-3.1496,-3.1496,-3.1524,-3.1553,-3.1626,-3.1741,-3.1855,-3.1968,-3.2038,-3.2135,-3.2259,-3.2342,-3.2398,-3.2496,-3.2621,-2.9602,-2.9602,-2.9602,-2.9682,-2.9822,-3.0005,-3.0189,-3.0326,-3.0507,-3.0612,-3.0612,-3.0598,-3.0219,-2.9523,-2.8942,-2.8246,-2.7505,-2.7302,-2.7084,-2.6864,-2.6808,-2.6794,-2.6794,-2.6794,-2.6794,-2.6794,-2.6794,-2.6794,-2.6779,-2.6779,-2.6712,-2.6498,-2.6338,-2.6218,-2.6084,-2.5721,-2.4833,-2.3735,-2.2635,-2.1757,-2.1296,-2.1071,-2.0985,-2.0901,-2.0775,-2.0524,-2.0309,-2.0195,-1.9991,-1.9682,-1.9539,-1.9447,-1.9328,-1.9143,-1.8984,-1.8893,-1.8732,-1.8437,-1.8084,-1.7909,-1.7717,-1.7562,-1.7451,-1.7407,-1.7323,-1.7379,-1.7462,-1.7601,-1.7717,-1.7936,-1.822,-1.8452,-1.8625,-1.8878,-1.9184,-1.9342,-1.9551,-1.9952,-2.0309,-2.0586,-2.0847,-2.1288,-2.1719,-2.2266,-2.2981,-2.382,-2.4645,-2.54,-2.604,-2.651,-2.7006,-2.7596,-2.8418,-2.9188,-2.9929,-3.0573,-3.1013,-3.1248,-3.1395,-3.1511,-3.1496,-3.1496,-3.1553,-3.1626,-3.1727,-3.1826,-3.1968,-3.2066,-3.2135,-3.2231,-3.2342,-3.2398,-3.2425,-3.2597,-3.2707,-2.9602,-2.9602,-2.9602,-2.9651,-2.9761,-3.0019,-3.0158,-3.0266,-3.0507,-3.0612,-3.0612,-3.0583,-3.0219,-2.974,-2.9479,-2.8899,-2.7956,-2.7782,-2.7476,-2.7128,-2.6893,-2.6794,-2.6794,-2.6794,-2.6794,-2.6794,-2.6794,-2.6753,-2.6712,-2.6686,-2.6618,-2.6445,-2.6285,-2.6165,-2.6056,-2.5753,-2.506,-2.3632,-2.2223,-2.1421,-2.1155,-2.1033,-2.0961,-2.085,-2.0737,-2.0574,-2.0322,-2.0207,-1.9991,-1.9798,-1.9617,-1.9539,-1.9447,-1.9316,-1.9223,-1.9105,-1.8946,-1.8744,-1.841,-1.8154,-1.7881,-1.7689,-1.7562,-1.7545,-1.7462,-1.7507,-1.7579,-1.7728,-1.7826,-1.8073,-1.8356,-1.8533,-1.8706,-1.8931,-1.9184,-1.9342,-1.9565,-1.9952,-2.0334,-2.0648,-2.0921,-2.1277,-2.1715,-2.2135,-2.2814,-2.3652,-2.4478,-2.5249,-2.5912,-2.6549,-2.6903,-2.7391,-2.7969,-2.875,-2.9547,-3.0233,-3.0761,-3.1278,-3.1438,-3.1511,-3.1511,-3.1568,-3.1655,-3.1727,-3.1813,-3.1968,-3.2094,-3.2163,-3.2231,-3.2315,-3.2398,-3.2425,-3.2496,-3.2714,-3.3033,-2.9602,-2.9602,-2.9602,-2.9602,-2.9634,-2.9958,-3.008,-3.0172,-3.0462,-3.0612,-3.0612,-3.0569,-3.0234,-2.9784,-2.9653,-2.9334,-2.8594,-2.7998,-2.771,-2.7447,-2.7113,-2.6837,-2.6794,-2.6794,-2.6794,-2.6794,-2.6753,-2.6671,-2.6551,-2.6498,-2.6433,-2.6313,-2.6192,-2.6056,-2.5864,-2.563,-2.4883,-2.354,-2.219,-2.1347,-2.1133,-2.0997,-2.0898,-2.0749,-2.0712,-2.0637,-2.0499,-2.0322,-2.0156,-1.9965,-1.9798,-1.9668,-1.9617,-1.9486,-1.942,-1.9316,-1.9131,-1.8972,-1.8786,-1.841,-1.8111,-1.8014,-1.7849,-1.7656,-1.7629,-1.7656,-1.7755,-1.7854,-1.7936,-1.8154,-1.8425,-1.8614,-1.8798,-1.9037,-1.9263,-1.946,-1.9668,-1.9978,-2.0346,-2.0684,-2.1019,-2.1313,-2.164,-2.2066,-2.2609,-2.3442,-2.4504,-2.5291,-2.5948,-2.6503,-2.6698,-2.707,-2.7505,-2.8196,-2.9059,-2.9788,-3.0597,-3.1172,-3.1467,-3.1511,-3.1539,-3.1626,-3.1727,-3.1883,-3.1968,-3.2122,-3.2219,-3.2247,-3.2287,-3.237,-3.2487,-3.2746,-3.316,-3.3575,-3.385,-2.9602,-2.9602,-2.9602,-2.9602,-2.9602,-2.9958,-3.008,-3.0142,-3.0462,-3.0612,-3.0612,-3.0598,-3.0481,-3.0263,-3.0176,-2.9856,-2.9232,-2.8594,-2.8158,-2.7607,-2.7142,-2.6837,-2.6794,-2.6794,-2.6794,-2.6779,-2.6686,-2.6604,-2.651,-2.6365,-2.6245,-2.6179,-2.6111,-2.6029,-2.5837,-2.5339,-2.4458,-2.3597,-2.2489,-2.1695,-2.1084,-2.0997,-2.0898,-2.0724,-2.0699,-2.0637,-2.0524,-2.0436,-2.0271,-2.0131,-2.0003,-1.9926,-1.9811,-1.9708,-1.9617,-1.9539,-1.933,-1.9237,-1.9078,-1.8679,-1.8356,-1.8068,-1.7877,-1.7711,-1.7739,-1.7755,-1.7826,-1.7936,-1.8084,-1.8317,-1.8533,-1.8679,-1.8851,-1.9143,-1.9342,-1.9539,-1.9811,-2.0093,-2.0422,-2.0797,-2.1068,-2.1313,-2.1626,-2.1977,-2.2548,-2.3219,-2.4309,-2.5314,-2.5931,-2.6512,-2.6721,-2.6931,-2.7338,-2.8102,-2.898,-2.9755,-3.0477,-3.1007,-3.1496,-3.1568,-3.1597,-3.1698,-3.1813,-3.1968,-3.2137,-3.2191,-3.2274,-3.2287,-3.2388,-3.2536,-3.2931,-3.3388,-3.3849,-3.4338,-3.4663,-2.9602,-2.9602,-2.9602,-2.9634,-2.9696,-2.9988,-3.0111,-3.0219,-3.0492,-3.0612,-3.0612,-3.0612,-3.0612,-3.0612,-3.0583,-3.0409,-2.9813,-2.9247,-2.8623,-2.8028,-2.7476,-2.7012,-2.6852,-2.6779,-2.6753,-2.6712,-2.6592,-2.6484,-2.6324,-2.6192,-2.6125,-2.6056,-2.6015,-2.5975,-2.5726,-2.5048,-2.4225,-2.3424,-2.2682,-2.187,-2.1126,-2.0997,-2.0898,-2.0724,-2.0699,-2.0662,-2.0587,-2.0511,-2.0423,-2.0296,-2.0207,-2.0131,-2.0054,-1.9965,-1.9862,-1.9746,-1.9591,-1.9473,-1.9263,-1.8919,-1.8545,-1.8232,-1.8084,-1.792,-1.7865,-1.7893,-1.7963,-1.7991,-1.822,-1.8464,-1.8598,-1.8706,-1.8931,-1.9223,-1.9316,-1.9512,-1.9875,-2.0207,-2.0548,-2.0896,-2.1142,-2.1434,-2.1888,-2.2245,-2.2757,-2.3374,-2.4193,-2.5131,-2.5806,-2.6358,-2.6829,-2.7039,-2.7281,-2.8133,-2.9005,-2.9544,-3.0132,-3.1126,-3.1524,-3.1626,-3.1683,-3.1784,-3.1912,-3.2066,-3.2191,-3.2287,-3.245,-3.2604,-3.2693,-3.2752,-3.3388,-3.412,-3.455,-3.5059,-3.5427,-2.9659,-2.9602,-2.9645,-2.971,-2.9893,-3.0005,-3.0158,-3.0296,-3.0507,-3.0612,-3.0612,-3.0612,-3.0612,-3.0612,-3.0612,-3.0525,-3.0351,-2.9784,-2.916,-2.8492,-2.7824,-2.7331,-2.6927,-2.6738,-2.6659,-2.6537,-2.6431,-2.6312,-2.6138,-2.6084,-2.6029,-2.5975,-2.5948,-2.5893,-2.581,-2.5048,-2.4159,-2.3281,-2.2685,-2.1953,-2.1297,-2.1063,-2.0898,-2.0749,-2.0699,-2.0687,-2.0662,-2.0587,-2.0511,-2.0486,-2.0334,-2.0258,-2.0207,-2.0207,-2.0105,-1.999,-1.9875,-1.9734,-1.9552,-1.9078,-1.8732,-1.8449,-1.8302,-1.8247,-1.815,-1.8123,-1.8139,-1.8182,-1.834,-1.8491,-1.8598,-1.8759,-1.9025,-1.9237,-1.9368,-1.9642,-2.0003,-2.0296,-2.0648,-2.1044,-2.1326,-2.1616,-2.21,-2.2575,-2.3046,-2.3629,-2.4274,-2.4953,-2.5614,-2.6199,-2.6685,-2.7085,-2.7324,-2.8122,-2.888,-2.9183,-2.9803,-3.0899,-3.1553,-3.1683,-3.1798,-3.1896,-3.2038,-3.2176,-3.229,-3.2388,-3.2678,-3.2982,-3.3409,-3.3926,-3.4348,-3.4943,-3.5347,-3.5742,-3.6174,-3.0867,-3.0857,-3.0531,-3.0474,-3.0529,-3.0207,-3.0189,-3.0312,-3.0507,-3.0612,-3.0612,-3.0612,-3.0612,-3.0612,-3.0612,-3.0598,-3.0481,-2.9929,-2.929,-2.8652,-2.8029,-2.7294,-2.6818,-2.6592,-2.6527,-2.6379,-2.6299,-2.6231,-2.6111,-2.6029,-2.5975,-2.5921,-2.5893,-2.5798,-2.5647,-2.5218,-2.4737,-2.3865,-2.3189,-2.249,-2.1645,-2.1209,-2.0885,-2.0724,-2.0699,-2.0699,-2.0699,-2.0637,-2.0612,-2.0612,-2.0485,-2.0473,-2.0398,-2.0398,-2.0322,-2.0195,-2.0067,-1.9965,-1.9734,-1.9382,-1.9025,-1.8798,-1.861,-1.8518,-1.8437,-1.8437,-1.8425,-1.8437,-1.853,-1.8664,-1.8744,-1.8958,-1.9196,-1.938,-1.9577,-1.9901,-2.022,-2.0409,-2.0709,-2.1191,-2.152,-2.203,-2.2503,-2.2822,-2.3235,-2.3538,-2.4101,-2.4683,-2.5326,-2.5966,-2.6516,-2.6993,-2.7425,-2.8195,-2.8809,-2.919,-2.9886,-3.0986,-3.1564,-3.1769,-3.1912,-3.2038,-3.2163,-3.2287,-3.2388,-3.2536,-3.3134,-3.3779,-3.4665,-3.5278,-3.5504,-3.5839,-3.6283,-3.6681,-3.7022,-3.1485,-3.1462,-3.1231,-3.1194,-3.1208,-3.0499,-3.0249,-3.0417,-3.0538,-3.0612,-3.0612,-3.0612,-3.0612,-3.0612,-3.0612,-3.0612,-3.0554,-3.0176,-2.9363,-2.8739,-2.8233,-2.7427,-2.6811,-2.6445,-2.6379,-2.6245,-2.6152,-2.6098,-2.6002,-2.5948,-2.5893,-2.5893,-2.5893,-2.5798,-2.5633,-2.5398,-2.4998,-2.4123,-2.3392,-2.2745,-2.1974,-2.1419,-2.0949,-2.0812,-2.0724,-2.0699,-2.0699,-2.0699,-2.0699,-2.0699,-2.0674,-2.0662,-2.0612,-2.0562,-2.0486,-2.0372,-2.0207,-2.0067,-1.9811,-1.9682,-1.933,-1.9064,-1.8866,-1.8694,-1.864,-1.856,-1.856,-1.8587,-1.8732,-1.8825,-1.8931,-1.9143,-1.9328,-1.9499,-1.9784,-2.0105,-2.0422,-2.0635,-2.1006,-2.1458,-2.1912,-2.2411,-2.2889,-2.3091,-2.34,-2.3637,-2.3859,-2.4512,-2.5115,-2.578,-2.6485,-2.7054,-2.7461,-2.8073,-2.8737,-2.9271,-3.0073,-3.1087,-3.1545,-3.1868,-3.201,-3.2107,-3.2231,-3.2385,-3.2475,-3.2798,-3.375,-3.4593,-3.5389,-3.5959,-3.6326,-3.6726,-3.7222,-3.7405,-3.751,-3.1569,-3.1574,-3.1698,-3.1833,-3.1829,-3.0898,-3.0489,-3.0611,-3.0627,-3.0612,-3.0612,-3.0612,-3.0612,-3.0612,-3.0612,-3.0612,-3.0598,-3.0525,-2.9726,-2.8942,-2.8466,-2.7559,-2.679,-2.6353,-2.6218,-2.6138,-2.6071,-2.6002,-2.5921,-2.5893,-2.5893,-2.5893,-2.5893,-2.5784,-2.5674,-2.5467,-2.5053,-2.4395,-2.3554,-2.2933,-2.2265,-2.1431,-2.1027,-2.0837,-2.0762,-2.0699,-2.0699,-2.0699,-2.0699,-2.0699,-2.0712,-2.0712,-2.0712,-2.0712,-2.0637,-2.0537,-2.0334,-2.0144,-1.9991,-1.9888,-1.9694,-1.9447,-1.9237,-1.8934,-1.8774,-1.8774,-1.8801,-1.8801,-1.8893,-1.8972,-1.904,-1.9263,-1.9459,-1.9707,-1.9978,-2.0309,-2.0673,-2.1019,-2.141,-2.1841,-2.2287,-2.2768,-2.3246,-2.3523,-2.3696,-2.3836,-2.4135,-2.4687,-2.5302,-2.5828,-2.6544,-2.732,-2.7684,-2.7959,-2.8569,-2.9297,-3.0045,-3.1001,-3.1585,-3.1968,-3.2094,-3.2191,-3.2287,-3.2401,-3.2505,-3.3041,-3.4012,-3.5024,-3.5993,-3.6501,-3.6808,-3.7051,-3.7405,-3.7435,-3.751,-3.2792,-3.277,-3.259,-3.2606,-3.2487,-3.1567,-3.1174,-3.1192,-3.08,-3.0612,-3.0612,-3.0612,-3.0612,-3.0612,-3.0612,-3.0612,-3.0612,-3.0438,-2.9726,-2.9087,-2.8511,-2.7563,-2.6767,-2.6218,-2.6098,-2.6002,-2.5948,-2.5948,-2.5921,-2.5893,-2.5893,-2.5893,-2.5893,-2.5797,-2.5702,-2.5564,-2.5204,-2.4682,-2.3797,-2.3162,-2.2479,-2.1629,-2.1211,-2.0913,-2.08,-2.0724,-2.0699,-2.0699,-2.0699,-2.0712,-2.08,-2.0838,-2.0863,-2.0886,-2.0873,-2.0848,-2.0648,-2.0434,-2.0372,-2.0195,-2.0016,-1.9875,-1.9695,-1.9525,-1.9316,-1.916,-1.9133,-1.9158,-1.9073,-1.9117,-1.9173,-1.9342,-1.9521,-1.975,-2.005,-2.046,-2.0839,-2.1295,-2.1726,-2.2426,-2.2859,-2.3268,-2.3717,-2.3952,-2.4099,-2.4156,-2.4432,-2.4979,-2.5477,-2.6015,-2.6711,-2.751,-2.7841,-2.8072,-2.8701,-2.9407,-3.014,-3.0849,-3.1496,-3.2035,-3.2163,-3.2274,-3.2342,-3.2598,-3.2921,-3.3534,-3.4289,-3.5347,-3.6503,-3.6795,-3.7087,-3.7314,-3.748,-3.751,-3.751,-3.3276,-3.3304,-3.3297,-3.3364,-3.3346,-3.2619,-3.2164,-3.1801,-3.0959,-3.0612,-3.0612,-3.0612,-3.0612,-3.0612,-3.0612,-3.0612,-3.0612,-3.0554,-2.99,-2.8828,-2.8468,-2.741,-2.6617,-2.6098,-2.5975,-2.5921,-2.5893,-2.5921,-2.5893,-2.5893,-2.5893,-2.5893,-2.5893,-2.5866,-2.5771,-2.5661,-2.5495,-2.4957,-2.4273,-2.3513,-2.2734,-2.1986,-2.1446,-2.0976,-2.085,-2.0762,-2.0724,-2.0737,-2.0775,-2.0787,-2.0913,-2.0949,-2.0949,-2.0985,-2.0997,-2.0934,-2.0885,-2.0723,-2.0635,-2.0535,-2.0372,-2.0206,-2.0041,-1.9762,-1.9636,-1.9495,-1.9504,-1.9514,-1.9341,-1.9269,-1.9334,-1.9421,-1.9567,-1.9722,-2.016,-2.0583,-2.1045,-2.1555,-2.223,-2.2958,-2.348,-2.3867,-2.4198,-2.4369,-2.4513,-2.4569,-2.4859,-2.5383,-2.5796,-2.6198,-2.6954,-2.7786,-2.7999,-2.8191,-2.8829,-2.9448,-3.0103,-3.0788,-3.1588,-3.201,-3.2213,-3.233,-3.237,-3.289,-3.3521,-3.4058,-3.4534,-3.5839,-3.6921,-3.7121,-3.7241,-3.7391,-3.751,-3.751,-3.751,-3.3276,-3.3326,-3.3744,-3.4031,-3.4279,-3.3645,-3.3035,-3.2365,-3.1221,-3.0656,-3.0627,-3.0612,-3.0612,-3.0612,-3.0612,-3.0612,-3.0612,-3.0569,-2.9957,-2.8583,-2.834,-2.7512,-2.6592,-2.6003,-2.5935,-2.5921,-2.5893,-2.5893,-2.5893,-2.5893,-2.5893,-2.5893,-2.5893,-2.5893,-2.5866,-2.5729,-2.5591,-2.5343,-2.4723,-2.3987,-2.3149,-2.2424,-2.1772,-2.1153,-2.0936,-2.085,-2.0787,-2.0825,-2.0901,-2.0938,-2.0961,-2.1021,-2.1082,-2.1131,-2.1131,-2.112,-2.1131,-2.1044,-2.0995,-2.0883,-2.0716,-2.046,-2.0098,-1.9876,-1.9757,-1.9481,-1.9421,-1.9408,-1.9255,-1.9251,-1.9307,-1.9333,-1.9428,-1.9727,-2.0134,-2.0775,-2.1465,-2.2139,-2.2995,-2.3664,-2.4084,-2.4472,-2.4735,-2.4934,-2.5052,-2.5048,-2.5207,-2.5715,-2.6314,-2.6676,-2.7318,-2.8143,-2.828,-2.8449,-2.8694,-2.9307,-2.9959,-3.0693,-3.1542,-3.2075,-3.2312,-3.237,-3.2398,-3.2921,-3.3519,-3.4133,-3.4793,-3.6054,-3.6906,-3.7105,-3.7255,-3.745,-3.751,-3.751,-3.751,-3.3276,-3.3312,-3.3724,-3.4088,-3.4293,-3.3732,-3.3108,-3.2454,-3.1671,-3.1018,-3.067,-3.0612,-3.0612,-3.0612,-3.0612,-3.0612,-3.0612,-3.0569,-2.9985,-2.9117,-2.8526,-2.7684,-2.6763,-2.6131,-2.5963,-2.5893,-2.5893,-2.5893,-2.5893,-2.5893,-2.5893,-2.5893,-2.5893,-2.5893,-2.5893,-2.577,-2.5674,-2.5591,-2.526,-2.4381,-2.339,-2.2543,-2.1797,-2.1294,-2.1046,-2.0985,-2.0923,-2.0947,-2.0985,-2.0972,-2.1082,-2.124,-2.1434,-2.153,-2.1602,-2.1592,-2.152,-2.1458,-2.1434,-2.1307,-2.1124,-2.0762,-2.0402,-2.0101,-1.9779,-1.9352,-1.9141,-1.9173,-1.9167,-1.9229,-1.9261,-1.9274,-1.9382,-1.977,-2.0159,-2.1012,-2.1859,-2.2861,-2.3793,-2.4266,-2.4699,-2.4993,-2.5266,-2.5438,-2.5549,-2.5586,-2.5551,-2.5966,-2.6921,-2.7491,-2.7939,-2.8573,-2.8686,-2.8833,-2.8914,-2.9286,-3.0017,-3.072,-3.152,-3.2009,-3.2394,-3.2398,-3.2444,-3.2872,-3.338,-3.401,-3.4854,-3.6053,-3.6749,-3.7011,-3.7255,-3.748,-3.751,-3.751,-3.751,-3.3276,-3.3347,-3.3709,-3.4054,-3.4172,-3.3989,-3.3383,-3.2524,-3.2089,-3.1424,-3.0685,-3.0612,-3.0612,-3.0612,-3.0612,-3.0612,-3.0612,-3.0612,-2.9998,-2.9273,-2.8569,-2.7726,-2.6961,-2.6272,-2.6019,-2.5893,-2.5893,-2.5893,-2.5893,-2.5893,-2.5893,-2.5893,-2.5893,-2.5893,-2.5893,-2.5811,-2.5757,-2.5674,-2.5647,-2.4914,-2.378,-2.3088,-2.2123,-2.1576,-2.1144,-2.1095,-2.1033,-2.1033,-2.1131,-2.1253,-2.141,-2.1602,-2.1783,-2.1878,-2.1949,-2.1959,-2.1935,-2.1935,-2.1935,-2.1852,-2.1597,-2.1204,-2.0698,-2.0394,-1.974,-1.9363,-1.9331,-1.9325,-1.9206,-1.9225,-1.9213,-1.921,-1.9565,-1.9937,-2.0469,-2.1182,-2.2491,-2.3793,-2.4484,-2.4969,-2.5326,-2.5575,-2.5813,-2.5905,-2.6028,-2.6162,-2.6127,-2.6749,-2.7626,-2.8241,-2.8715,-2.9057,-2.9175,-2.9036,-2.8936,-2.9432,-3.017,-3.0856,-3.1522,-3.1952,-3.2314,-3.2379,-3.2505,-3.2767,-3.3226,-3.3946,-3.4881,-3.5927,-3.6685,-3.7055,-3.7284,-3.751,-3.751,-3.751,-3.751,-3.3326,-3.3396,-3.3744,-3.3985,-3.4142,-3.4298,-3.3674,-3.2643,-3.2452,-3.1758,-3.0699,-3.0612,-3.0612,-3.0612,-3.0612,-3.0612,-3.0612,-3.0612,-3.0012,-2.9372,-2.8583,-2.7882,-2.7074,-2.6301,-2.602,-2.5893,-2.5893,-2.5893,-2.5893,-2.5893,-2.5893,-2.5893,-2.5893,-2.5893,-2.5921,-2.5921,-2.5893,-2.5866,-2.57,-2.5339,-2.4622,-2.3909,-2.2756,-2.1862,-2.1318,-2.1204,-2.118,-2.1229,-2.135,-2.152,-2.1746,-2.1973,-2.21,-2.2217,-2.2324,-2.2356,-2.2449,-2.2472,-2.2518,-2.2535,-2.2186,-2.1735,-2.1162,-2.0565,-1.9967,-1.9749,-1.9725,-1.9664,-1.9561,-1.9401,-1.9373,-1.9572,-1.9958,-2.0567,-2.1147,-2.1766,-2.3283,-2.4668,-2.5174,-2.5682,-2.5905,-2.6157,-2.6298,-2.6401,-2.6604,-2.6722,-2.7156,-2.7871,-2.8515,-2.8923,-2.9342,-2.9608,-2.9772,-2.9538,-2.916,-2.9517,-3.0237,-3.0873,-3.1488,-3.1905,-3.2233,-3.2403,-3.2499,-3.2521,-3.3041,-3.382,-3.4632,-3.5599,-3.6293,-3.7051,-3.7328,-3.751,-3.751,-3.751,-3.751,-3.3396,-3.357,-3.3813,-3.3971,-3.4128,-3.4312,-3.3655,-3.2611,-3.2498,-3.1772,-3.0845,-3.0612,-3.0612,-3.0612,-3.0612,-3.0612,-3.0612,-3.0598,-3.0401,-2.9856,-2.8683,-2.8024,-2.73,-2.6329,-2.5992,-2.5893,-2.5893,-2.5893,-2.5893,-2.5893,-2.5893,-2.5893,-2.5893,-2.5948,-2.6071,-2.6071,-2.6098,-2.6056,-2.5973,-2.5666,-2.4917,-2.4144,-2.3273,-2.2537,-2.1935,-2.1784,-2.1664,-2.1674,-2.1698,-2.1793,-2.202,-2.2278,-2.2449,-2.2595,-2.2723,-2.2881,-2.2971,-2.3038,-2.3083,-2.3157,-2.2863,-2.231,-2.1768,-2.1307,-2.0895,-2.0745,-2.0725,-2.0722,-2.0533,-2.02,-2.0188,-2.0542,-2.0956,-2.1968,-2.272,-2.3449,-2.4525,-2.5335,-2.595,-2.6245,-2.6454,-2.6674,-2.6857,-2.7076,-2.7415,-2.7622,-2.7981,-2.8712,-2.9559,-2.9825,-3.0005,-3.0157,-3.033,-3.0017,-2.9653,-2.9696,-3.0251,-3.0885,-3.1544,-3.2111,-3.2458,-3.2516,-3.257,-3.26,-3.3017,-3.3694,-3.4534,-3.5297,-3.6193,-3.6906,-3.7279,-3.751,-3.751,-3.751,-3.751]},{"header":{"parameterUnit":"m.s-1","parameterCategory":1,"la1":31.0,"la2":29.5877,"lo1":-88.7671,"lo2":-86.6584,"dy":0.0162,"dx":0.0185,"nx":115,"ny":88,"refTime":"2024-04-17T12:00:00:Z","depth":0,"parameterNumber":3,"parameterNumberName":"V-component_of_WINDS"},"data":[0.0,0.0,0.0,0.0,0.0,0.0,0.0,0.0,0.0,0.0,0.0,0.0,0.0,0.0,0.0,0.0,0.0,0.0,0.0,0.0,0.0,0.0,0.0,0.0,0.0,0.0,0.0,0.0,0.0,0.0,0.0,0.0,0.0,0.0,0.0,0.0,0.0,0.0,0.0,0.0,0.0,0.0,0.0,0.0,0.0,0.0,0.0,0.0,0.0,0.0,0.0,0.0,0.0,0.0,0.0,0.0,0.0,0.0,0.0,0.0,0.0,0.0,0.0,0.0,0.0,0.0,0.0,0.0,0.0,0.0,0.0,0.0,0.0,0.0,0.0,0.0,0.0,0.0,0.0,0.0,0.0,0.0,0.0,0.0,0.0,0.0,0.0,0.0,0.0,0.0,0.0,0.0,0.0,0.0,0.0,0.0,0.0,0.0,0.0,0.0,0.0,0.0,0.0,0.0,0.0,0.0,0.0,0.0,0.0,0.0,0.0,0.0,0.0,0.0,0.0,0.0,0.0,0.0,0.0,0.0,0.0,0.0,0.0,0.0,0.0,0.0,0.0,0.0,0.0,0.0,0.0,0.0,0.0,0.0,0.0,0.0,0.0,0.0,0.0,0.0,0.0,0.0,0.0,0.0,0.0,0.0,0.0,0.0,0.0,0.0,0.0,0.0,0.0,0.0,0.0,0.0,0.0,0.0,0.0,0.0,0.0,0.0,0.0,0.0,0.0,0.0,0.0,0.0,0.0,0.0,0.0,0.0,0.0,0.0,0.0,0.0,0.0,0.0,0.0,0.0,0.0,0.0,0.0,0.0,0.0,0.0,0.0,0.0,0.0,0.0,0.0,0.0,0.0,0.0,0.0,0.0,0.0,0.0,0.0,0.0,0.0,0.0,0.0,0.0,0.0,0.0,0.0,0.0,0.0,0.0,0.0,0.0,0.0,0.0,0.0,0.0,0.0,0.0,0.0,0.0,0.0,0.0,0.0,0.0,0.0,0.0,0.0,0.0,0.0,0.0,0.0,0.0,0.0,0.0,0.0,0.0,0.0,0.0,0.0,0.0,0.0,0.0,0.0,0.0,0.0,0.0,0.0,0.0,0.0,0.0,0.0,0.0,0.0,0.0,0.0,0.0,0.0,0.0,0.0,0.0,0.0,0.0,0.0,0.0,0.0,0.0,0.0,0.0,0.0,0.0,0.0,0.0,0.0,0.0,0.0,0.0,0.0,0.0,0.0,0.0,0.0,0.0,0.0,0.0,0.0,0.0,0.0,0.0,0.0,0.0,0.0,0.0,0.0,0.0,0.0,0.0,0.0,0.0,0.0,0.0,0.0,0.0,0.0,0.0,0.0,0.0,0.0,0.0,0.0,0.0,0.0,0.0,0.0,0.0,0.0,0.0,0.0,0.0,0.0,0.0,0.0,0.0,0.0,0.0,0.0,0.0,0.0,0.0,0.0,0.0,0.0,0.0,0.0,0.0,0.0,0.0,0.0,0.0,0.0,0.0,0.0,0.0,0.0,0.0,0.0,0.0,0.0,0.0,0.0,0.0,0.0,0.0,0.0,0.0,0.0,0.0,0.0,0.0,0.0,0.0,0.0,0.0,0.0,0.0,0.0,0.0,0.0,0.0,0.0,0.0,0.0,0.0,0.0,0.0,0.0,0.0,0.0,0.0,0.0,0.0,0.0,0.0,0.0,0.0,0.0,0.0,0.0,0.0,0.0,0.0,0.0,0.0,0.0,0.0,0.0,0.0,0.0,0.0,0.0,0.0,0.0,0.0,0.0,0.0,0.0,0.0,0.0,0.0,0.0,0.0,0.0,0.0,0.0,0.0,0.0,0.0,0.0,0.0,0.0,0.0,0.0,0.0,0.0,0.0,0.0,0.0,0.0,0.0,0.0,0.0,0.0,0.0,0.0,0.0,0.0,0.0,0.0,0.0,0.0,0.0,0.0,0.0,0.0,0.0,0.0,0.0,0.0,0.0,0.0,0.0,0.0,0.0,0.0,0.0,0.0,0.0,0.0,0.0,0.0,0.0,0.0,0.0,0.0,0.0,0.0,0.0,0.0,0.0,0.0,0.0,0.0,0.0,0.0,0.0,0.0,0.0,0.0,0.0,0.0,0.0,0.0,0.0,0.0,0.0,0.0,0.0,0.0,0.0,0.0,0.0,0.0,0.0,0.0,0.0,0.0,0.0,0.0,0.0,0.0,0.0,0.0,0.0,0.0,0.0,0.0,0.0,0.0,0.0,0.0,0.0,0.0,0.0,0.0,0.0,0.0,0.0,0.0,0.0,0.0,0.0,0.0,0.0,0.0,0.0,0.0,0.0,0.0,0.0,0.0,0.0,0.0,0.0,0.0,0.0,0.0,0.0,0.0,0.0,0.0,0.0,0.0,0.0,0.0,0.0,0.0,0.0,0.0,0.0,0.0,0.0,0.0,0.0,0.0,0.0,0.0,0.0,0.0,0.0,0.0,0.0,0.0,0.0,0.0,0.0,0.0,0.0,0.0,0.0,0.0,0.0,0.0,0.0,0.0,0.0,0.0,0.0,0.0,0.0,0.0,0.0,0.0,0.0,0.0,0.0,0.0,0.0,0.0,0.0,0.0,0.0,0.0,0.0,0.0,0.0,0.0,0.0,0.0,0.0,0.0,0.0,0.0,0.0,0.0,0.0,0.0,0.0,0.0,0.0,0.0,0.0,0.0,0.0,0.0,0.0,0.0,0.0,0.0,0.0,0.0,0.0,0.0,0.0,0.0,0.0,0.0,0.0,0.0,0.0,0.0,0.0,0.0,0.0,0.0,0.0,0.0,0.0,0.0,0.0,0.0,0.0,0.0,0.0,0.0,0.0,0.0,0.0,0.0,0.0,0.0,0.0,0.0,0.0,0.0,0.0,0.0,0.0,0.0,0.0,0.0,0.0,0.0,0.0,0.0,0.0,0.0,0.0,0.0,0.0,0.0,0.0,0.0,0.0,0.0,0.0,0.0,0.0,0.0,0.0,0.0,0.0,0.0,0.0,0.0,0.0,0.0,0.0,0.0,0.0,0.0,0.0,0.0,0.0,0.0,0.0,0.0,0.0,0.0,0.0,0.0,0.0,0.0,0.0,0.0,0.0,0.0,0.0,0.0,0.0,0.0,0.0,0.0,0.0,0.0,0.0,0.0,0.0,0.0,0.0,0.0,0.0,0.0,0.0,0.0,0.0,0.0,0.0,0.0,0.0,0.0,0.0,0.0,0.0,0.0,0.0,0.0,0.0,0.0,0.0,0.0,0.0,0.0,0.0,0.0,0.0,0.0,0.0,0.0,0.0,0.0,0.0,0.0,0.0,0.0,0.0,0.0,0.0,0.0,0.0,0.0,0.0,0.0,0.0,0.0,0.0,0.0,0.0,0.0,0.0,0.0,0.0,0.0,0.0,0.0,0.0,0.0,0.0,0.0,0.0,0.0,0.0,0.0,0.0,0.0,0.0,0.0,0.0,0.0,0.0,0.0,0.0,0.0,0.0,0.0,0.0,0.0,0.0,0.0,0.0,0.0,0.0,0.0,0.0,0.0,0.0,0.0,0.0,0.0,0.0,0.0,0.0,0.0,0.0,0.0,0.0,0.0,0.0,0.0,0.0,0.0,0.0,0.0,0.0,0.0,0.0,0.0,0.0,0.0,0.0,0.0,0.0,0.0,0.0,0.0,0.0,0.0,0.0,0.0,0.0,0.0,0.0,0.0,0.0,0.0,0.0,0.0,0.0,0.0,0.0,0.0,0.0,0.0,0.0,0.0,0.0,0.0,0.0,0.0,0.0,0.0,0.0,0.0,0.0,0.0,0.0,0.0,0.0,0.0,0.0,0.0,0.0,0.0,0.0,0.0,0.0,0.0,0.0,0.0,0.0,0.0,0.0,0.0,0.0,0.0,0.0,0.0,0.0,0.0,0.0,0.0,0.0,0.0,0.0,0.0,0.0,0.0,0.0,0.0,0.0,0.0,0.0,0.0,0.0,0.0,0.0,0.0,0.0,0.0,0.0,0.0,0.0,0.0,0.0,0.0,0.0,0.0,0.0,0.0,0.0,0.0,0.0,0.0,0.0,0.0,0.0,0.0,0.0,0.0,0.0,0.0,0.0,0.0,0.0,0.0,0.0,0.0,0.0,0.0,0.0,0.0,0.0,0.0,0.0,0.0,0.0,0.0,0.0,0.0,0.0,0.0,0.0,0.0,0.0,0.0,0.0,0.0,0.0,0.0,0.0,0.0,0.0,0.0,0.0,0.0,0.0,0.0,0.0,-0.3315,0.0,0.0,0.0,0.0,0.0,0.0,0.0,0.0,0.0,0.0,0.0,0.0,0.0,0.0,0.0,0.0,0.0,0.0,0.0,0.0,0.0,0.0,0.0,0.0,0.0,0.0,0.0,0.0,0.0,0.0,0.0,0.0,0.0,0.0,0.0,0.0,0.0,0.0,0.0,0.0,0.0,0.0,0.0,0.0,0.0,0.0,0.0,0.0,0.0,0.0,0.0,0.0,0.0,0.0,0.0,0.0,0.0,0.0,0.0,0.0,0.0,0.0,0.0,0.0,0.0,0.0,0.0,0.0,0.0,0.0,0.0,0.0,0.0,0.0,0.0,0.0,0.0,0.0,0.0,0.0,0.0,0.0,0.0,0.0,0.0,0.0,0.0,0.0,0.0,0.0,0.0,0.0,0.0,0.0,0.0,0.0,0.0,0.0,0.0,0.0,0.0,0.0,0.0,0.0,0.0,0.0,0.0,0.0,0.0,0.0,-0.1906,-0.1975,-0.2312,-0.2722,-0.3183,0.0,0.0,0.0,0.0,0.0,0.0,0.0,0.0,0.0,0.0,0.0,0.0,0.0,0.0,0.0,0.0,0.0,0.0,0.0,0.0,0.0,0.0,0.0,0.0,0.0,0.0,0.0,0.0,0.0,0.0,0.0,0.0,0.0,0.0,0.0,0.0,0.0,0.0,0.0,0.0,0.0,0.0,0.0,0.0,0.0,0.0,0.0,0.0,0.0,0.0,0.0,0.0,0.0,0.0,0.0,0.0,0.0,0.0,0.0,0.0,0.0,0.0,0.0,0.0,0.0,0.0,0.0,0.0,0.0,0.0,0.0,0.0,0.0,0.0,0.0,0.0,0.0,0.0,0.0,0.0,0.0,0.0,0.0,0.0,0.0,0.0,0.0,0.0,0.0,0.0,0.0,0.0,0.0,0.0,0.0,0.0,0.0,0.0,0.0,0.0,0.0,0.0,0.0,0.0,0.0,0.0,0.0,0.0,0.0,0.0,0.0,0.0,-0.1831,-0.2428,-0.3318,0.0,0.0,0.0,0.0,0.0,0.0,0.0,0.0,0.0,0.0,0.0,0.0,0.0,0.0,0.0,0.0,0.0,0.0,0.0,0.0,0.0,0.0,0.0,0.0,0.0,0.0,0.0,0.0,0.0,0.0,0.0,0.0,0.0,0.0,0.0,0.0,0.0,0.0,0.0,0.0,0.0,0.0,0.0,0.0,0.0,0.0,0.0,0.0,0.0,0.0,0.0,0.0,0.0,0.0,0.0,0.0,0.0,0.0,0.0,0.0,0.0,0.0,0.0,0.0,0.0,0.0,0.0,0.0,0.0,0.0,0.0,0.0,0.0,0.0,0.0,0.0,0.0,0.0,0.0,0.0,0.0,0.0,0.0,0.0,0.0,0.0,0.0,0.0,0.0,0.0,0.0,0.0,0.0,0.0,0.0,0.0,0.0,0.0,0.0,0.0,0.0,0.0,0.0,0.0,0.0,0.0,0.0,0.0,0.0,0.0,-0.0687,-0.0539,-0.1144,0.0,-0.3764,0.0,0.0,0.0,0.0,0.0,0.0,0.0,0.0,0.0,0.0,0.0,0.0,0.0,0.0,0.0,0.0,0.0,0.0,0.0,0.0,0.0,0.0,0.0,0.0,0.0,0.0,0.0,0.0,0.0,0.0,0.0,0.0,0.0,0.0,0.0,0.0,0.0,0.0,0.0,0.0,0.0,0.0,0.0,0.0,0.0,0.0,0.0,0.0,0.0,0.0,0.0,0.0,0.0,0.0,0.0,0.0,0.0,0.0,0.0,0.0,0.0,0.0,0.0,0.0,0.0,0.0,0.0,0.0,0.0,0.0,0.0,0.0,0.0,0.0,0.0,0.0,0.0,0.0,0.0,0.0,0.0,0.0,0.0,0.0,0.0,0.0,0.0,0.0,0.0,0.0,0.0,0.0,0.0,0.0,0.0,0.0,0.0,0.0,0.0,0.0,0.0,0.0,0.0,0.0,0.0,0.0,0.0,0.0,0.0,0.0,0.0046,-0.0135,-0.1266,-0.2443,0.0,0.0,0.0,0.0,0.0,0.0,0.0,0.0,0.0,0.0,0.0,0.0,0.0,0.0,0.0,0.0,0.0,0.0,0.0,0.0,0.0,0.0,0.0,0.0,0.0,0.0,0.0,0.0,0.0,0.0,0.0,0.0,0.0,0.0,0.0,0.0,0.0,0.0,0.0,0.0,0.0,0.0,0.0,0.0,0.0,0.0,0.0,0.0,0.0,0.0,0.0,0.0,0.0,0.0,0.0,0.0,0.0,0.0,0.0,0.0,0.0,0.0,0.0,0.0,0.0,0.0,0.0,0.0,0.0,0.0,0.0,0.0,0.0,0.0,0.0,0.0,0.0,0.0,0.0,0.0,0.0,0.0,0.0,0.0,0.0,0.0,0.0,0.0,0.0,0.0,0.0,0.0,0.0,0.0,0.0,0.0,0.0,0.0,0.0,0.0,0.0,0.0,0.0,0.0,0.0,0.0,0.0,0.0,0.0,0.0,0.0778,0.0505,-0.0136,-0.1395,-0.2557,-0.3451,0.0,0.0,0.0,0.0,0.0,0.0,0.0,0.0,0.0,0.0,0.0,0.0,0.0,0.0,0.0,0.0,0.0,0.0,0.0,0.0,0.0,0.0,0.0,0.0,0.0,0.0,0.0,0.0,0.0,0.0,0.0,0.0,0.0,0.0,0.0,0.0,0.0,0.0,0.0,0.0,0.0,0.0,0.0,0.0,0.0,0.0,0.0,0.0,0.0,0.0,0.0,0.0,0.0,0.0,0.0,0.0,0.0,0.0,0.0,0.0,0.0,0.0,0.0,0.0,0.0,0.0,0.0,0.0,0.0,0.0,0.0,0.0,0.0,0.0,0.0,0.0,0.0,0.0,0.0,0.0,0.0,0.0,0.0,0.0,0.0,0.0,0.0,0.0,0.0,0.0,0.0,0.0,0.0,0.0,0.0,0.0,0.0,0.0,0.0,0.0,0.0,0.0,0.0,0.0,0.0,0.0,0.0,0.0,0.1346,0.119,0.0601,-0.0323,-0.1314,-0.2242,0.0,0.0,0.0,0.0,0.0,0.0,0.0,0.0,0.0,0.0,0.0,0.0,0.0,0.0,0.0,0.0,0.0,0.0,0.0,0.0,0.0,0.0,0.0,0.0,0.0,0.0,0.0,0.0,0.0,0.0,0.0,0.0,0.0,0.0,0.0,0.0,0.0,0.0,0.0,0.0,0.0,0.0,0.0,0.0,0.0,0.0,0.0,0.0,0.0,0.0,0.0,0.0,0.0,0.0,0.0,0.0,0.0,0.0,0.0,0.0,0.0,0.0,0.0,0.0,0.0,0.0,0.0,0.0,0.0,0.0,0.0,0.0,0.0,0.0,0.0,0.0,0.0,0.0,0.0,0.0,0.0,0.0,0.0,0.0,0.0,0.0,0.0,0.0,0.0,0.0,0.0,0.0,0.0,0.0,0.0,0.0,0.0,0.0,0.0,0.0,0.0,0.0,0.0,0.0,0.0,0.0,0.0,0.0,0.0,0.1886,0.1492,0.0907,0.0136,-0.0855,-0.1883,0.0,0.0,0.0,0.0,0.0,0.0,0.0,0.0,0.0,0.0,0.0,0.0,0.0,0.0,0.0,0.0,0.0,0.0,0.0,0.0,0.0,0.0,0.0,0.0,0.0,0.0,0.0,0.0,0.0,0.0,0.0,0.0,0.0,0.0,0.0,0.0,0.0,0.0,0.0,0.0,0.0,0.0,0.0,0.0,0.0,0.0,0.0,0.0,0.0,0.0,0.0,0.0,0.0,0.0,0.0,0.0,0.0,0.0,0.0,0.0,0.0,0.0,0.0,0.0,0.0,0.0,0.0,0.0,0.0,0.0,0.0,0.0,0.0,0.0,0.0,0.0,0.0,0.0,0.0,0.0,0.0,0.0,0.0,0.0,0.0,0.0,0.0,0.0,0.0,0.0,0.0,0.0,0.0,0.0,0.0,0.0,0.0,0.0,0.0,0.0,0.0,0.0,0.0,0.0,0.0,0.0,0.0,0.0,0.0,0.2377,0.0,0.1301,0.0493,-0.0538,-0.1613,0.0,0.0,0.0,0.0,0.0,0.0,0.0,0.0,0.0,0.0,0.0,0.0,0.0,0.0,0.0,0.0,0.0,0.0,0.0,0.0,0.0,0.0,0.0,0.0,0.0,0.0,0.0,0.0,0.0,0.0,0.0,0.0,0.0,0.0,0.0,0.0,0.0,0.0,0.0,0.0,0.0,0.0,0.0,0.0,0.0,0.0,0.0,0.0,0.0,0.0,0.0,0.0,0.0,0.0,0.0,0.0,0.0,0.0,0.0,0.0,0.0,0.0,0.0,0.0,0.0,0.0,0.0,0.0,0.0,0.0,0.0,0.0,0.0,0.0,0.0,0.0,0.0,0.0,0.0,0.0,0.0,0.0,0.0,0.0,0.0,0.0,0.0,0.0,0.0,0.0,0.0,0.0,0.0,0.0,0.0,0.0,0.0,0.0,0.0,0.0,0.0,0.0,0.0,0.0,0.0,0.0,0.0,0.0,0.2642,0.2868,0.2423,0.1705,0.0718,-0.0448,-0.1524,0.0,0.0,0.0,0.0,0.0,0.0,0.0,0.0,0.0,0.0,0.0,0.0,0.0,0.0,0.0,0.0,0.0,0.0,0.0,0.0,0.0,0.0,0.0,0.0,0.0,0.0,0.0,0.0,0.0,0.0,0.0,0.0,0.0,0.0,0.0,0.0,0.0,0.0,0.0,0.0,0.0,0.0,0.0,0.0,0.0,0.0,0.0,0.0,0.0,0.0,0.0,0.0,0.0,0.0,0.0,0.0,0.0,0.0,0.0,0.0,0.0,0.0,0.0,0.0,0.0,0.0,0.0,0.0,0.0,0.0,0.0,0.0,0.0,0.0,0.0,0.0,0.0,0.0,0.0,0.0,0.0,0.0,0.0,0.0,0.0,0.0,0.0,0.0,0.0,0.0,0.0,0.0,0.0,0.0,0.0,0.0,0.0,0.0,0.0,0.0,0.0,0.0,0.0,0.0,0.0,0.0,0.0,0.0,0.0,0.3582,0.2825,0.2019,0.1166,0.0,-0.121,0.0,0.0,0.0,0.0,0.0,0.0,0.0,0.0,0.0,0.0,0.0,0.0,0.0,0.0,0.0,0.0,0.0,0.0,0.0,0.0,0.0,0.0,0.0,0.0,0.0,0.0,0.0,0.0,0.0,0.0,0.0,0.0,0.0,0.0,0.0,0.0,0.0,0.0,0.0,0.0,0.0,0.0,0.0,0.0,0.0,0.0,0.0,0.0,0.0,0.0,0.0,0.0,0.0,0.0,0.0,0.0,0.0,0.0,0.0,0.0,0.0,0.0,0.0,0.0,0.0,0.0,0.0,0.0,0.0,0.0,0.0,0.0,0.0,0.0,0.0,0.0,0.0,0.0,0.0,0.0,0.0,0.0,0.0,0.0,0.0,0.0,0.0,0.0,0.0,0.0,0.0,0.0,0.0,0.0,0.0,0.0,0.0,0.0,0.0,0.0,0.0,0.0,0.0,0.0,0.0,0.0,0.0,0.0,0.0,0.4563,0.3496,0.2467,0.157,0.0359,-0.0896,-0.2195,0.0,0.0,0.0,0.0,0.0,0.0,0.0,0.0,0.0,0.0,0.0,0.0,0.0,0.0,0.0,0.0,0.0,0.0,0.0,0.0,0.0,0.0,0.0,0.0,0.0,0.0,0.0,0.0,0.0,0.0,0.0,0.0,0.0,0.0,0.0,0.0,0.0,0.0,0.0,0.0,0.0,0.0,0.0,0.0,0.0,0.0,0.0,0.0,0.0,0.0,0.0,0.0,0.0,0.0,0.0,0.0,0.0,0.0,0.0,0.0,0.0,0.0,0.0,0.0,0.0,0.0,0.0,0.0,0.0,0.0,0.0,0.0,0.0,0.0,0.0,0.0,0.0,0.0,0.0,0.0,0.0,0.0,0.0,0.0,0.0,0.0,0.0,0.0,0.0,0.0,0.0,0.0,0.0,0.0,0.0,0.0,0.0,0.0,0.0,0.0,0.0,0.0,0.0,0.0,0.0,0.0,0.0,0.0,0.5722,0.4389,0.3093,0.1883,0.0673,-0.0538,0.0,0.0,0.0,0.0,0.0,0.0,0.0,0.0,0.0,0.0,0.0,0.0,0.0,0.0,0.0,0.0,0.0,0.0,0.0,0.0,0.0,0.0,0.0,0.0,0.0,0.0,0.0,0.0,0.0,0.0,0.0,0.0,0.0,0.0,0.0,0.0,0.0,0.0,0.0,0.0,0.0,0.0,0.0,0.0,0.0,0.0,0.0,0.0,0.0,0.0,0.0,0.0,0.0,0.0,0.0,0.0,0.0,0.0,0.0,0.0,0.0,0.0,0.0,0.0,0.0,0.0,0.0,0.0,0.0,0.0,0.0,0.0,0.0,0.0,0.0,0.0,0.0,0.0,0.0,0.0,0.0,0.0,0.0,0.0,0.0,0.0,0.0,0.0,0.0,0.0,0.0,0.0,0.0,0.0,0.0,0.0,0.0,0.0,0.0,0.0,0.0,0.0,0.0,0.0,0.0,0.0,0.0,0.0,0.0,0.5675,0.5008,0.3983,0.2644,0.1121,-0.0269,0.0,0.0,0.0,0.0,0.0,0.0,0.0,0.0,0.0,0.0,0.0,0.0,0.0,0.0,0.0,0.0,0.0,0.0,0.0,0.0,0.0,0.0,0.0,0.0,0.0,0.0,0.0,0.0,0.0,0.0,0.0,0.0,0.0,0.0,0.0,0.0,0.0,0.0,0.0,0.0,0.0,0.0,0.0,0.0,0.0,0.0,0.0,0.0,0.0,0.0,0.0,0.0,0.0,0.0,0.0,0.0,0.0,0.0,0.0,0.0,0.0,0.0,0.0,0.0,0.0,0.0,0.0,0.0,0.0,0.0,0.0,0.0,0.0,0.0,0.0,0.0,0.0,0.0,0.0,0.0,0.0,0.0,0.0,0.0,0.0,0.0,0.0,0.0,0.0,0.0,0.0,0.0,0.0,0.0,0.0,0.0,0.0,0.0,0.0,0.0,0.0,0.0,0.0,0.0,0.0,0.0,0.0,0.0,0.6786,0.6296,0.5764,0.4828,0.3539,0.1748,0.0135,0.0,0.0,0.0,0.0,0.0,0.0,0.0,0.0,0.0,0.0,0.0,0.0,0.0,0.0,0.0,0.0,0.0,0.0,0.0,0.0,0.0,0.0,0.0,0.0,0.0,0.0,0.0,0.0,0.0,0.0,0.0,0.0,0.0,0.0,0.0,0.0,0.0,0.0,0.0,0.0,0.0,0.0,0.0,0.0,0.0,0.0,0.0,0.0,0.0,0.0,0.0,0.0,0.0,0.0,0.0,0.0,0.0,0.0,0.0,0.0,0.0,0.0,0.0,0.0,0.0,0.0,0.0,0.0,0.0,0.0,0.0,0.0,0.0,0.0,0.0,0.0,0.0,0.0,0.0,0.0,0.0,0.0,0.0,0.0,0.0,0.0,0.0,0.0,0.0,0.0,0.0,0.0,0.0,0.0,0.0,0.0,0.0,0.0,0.0,0.0,0.0,0.0,0.0,0.0,0.0,0.0,0.0,0.0,0.7676,0.7187,0.6514,0.5539,0.4387,0.2465,0.0672,0.0,0.0,0.0,0.0,0.0,0.0,0.0,0.0,0.0,0.0,0.0,0.0,0.0,0.0,0.0,0.0,0.0,0.0,0.0,0.0,0.0,0.0,0.0,0.0,0.0,0.0,0.0,0.0,0.0,0.0,0.0,0.0,0.0,0.0,0.0,0.0,0.0,0.0,0.0,0.0,0.0,0.0,0.0,0.0,0.0,0.0,0.0,0.0,0.0,0.0,0.0,0.0,0.0,0.0,0.0,0.0,0.0,0.0,0.0,0.0,0.0,0.0,0.0,0.0,0.0,0.0,0.0,0.0,0.0,0.0,0.0,0.0,0.0,0.0,0.0,0.0,0.0,0.0,0.0,0.0,0.0,0.0,0.0,0.0,0.0,0.0,0.0,0.0,0.0,0.0,0.0,0.0,0.0,0.0,0.0,0.0,0.0,0.0,0.0,0.0,0.0,0.0,0.0,0.0,0.0,0.0,0.0,0.0,0.7808,0.7672,0.6786,0.5852,0.4877,0.2819,0.1119,0.0,0.0,0.0,0.0,0.0,0.0,0.0,0.0,0.0,0.0,0.0,0.0,0.0,0.0,0.0,0.0,0.0,0.0,0.0,0.0,0.0,0.0,0.0,0.0,0.0,0.0,0.0,0.0,0.0,0.0,0.0,0.0,0.0,0.0,0.0,0.0,0.0,0.0,0.0,0.0,0.0,0.0,0.0,0.0,0.0,0.0,0.0,0.0,-0.1159,0.0,0.0,0.0,0.0,0.0,0.0,0.0,0.0,0.0,0.0,0.0,0.0,0.0,0.0,0.0,0.0,0.0,0.0,0.0,0.0,0.0,0.0,0.0,0.0,0.0,0.0,0.0,0.0,0.0,0.0,0.0,0.0,0.0,0.0,0.0,0.0,0.0,0.0,0.0,0.0,0.0,0.0,0.0,0.0,0.0,0.0,0.0,0.0,0.0,0.0,0.0,0.0,0.0,0.0,0.0,0.0,0.0,0.0,0.0,0.8292,0.8157,0.7448,0.6564,0.5494,0.3755,0.2013,0.0,0.0,0.0,0.0,0.0,0.0,0.0,0.0,0.0,0.0,0.0,0.0,0.0,0.0,0.0,0.0,0.0,0.0,0.0,0.0,0.0,0.0,0.0,0.0,0.0,0.0,0.0,0.0,0.0,0.0,0.0,0.0,0.0,0.0,0.0,0.0,0.0,0.0,0.0,0.0,0.0,0.0,0.0,0.0,0.0,0.0,0.0,0.0,0.0,0.0,0.0,0.0,0.0,0.0,0.0,0.0,0.0,0.0,0.0,0.0,0.0,0.0,0.0,0.0,0.0,0.0,0.0,0.0,0.0,0.0,0.0,0.0,0.0,0.0,0.0,0.0,0.0,0.0,0.0,0.0,0.0,0.0,0.0,0.0,0.0,0.0,0.0,0.0,0.0,0.0,0.0,0.0,0.0,0.0,0.0,0.0,0.0,0.0,0.0,0.0,0.0,0.0,0.0,0.0,0.0,0.0,0.0,0.8568,0.8921,0.8811,0.8245,0.7401,0.6334,0.487,0.3178,0.121,0.0,0.0,0.0,0.0,0.0,0.0,0.0,0.0,0.0,0.0,0.0,0.0,0.0,0.0,0.0,0.0,0.0,0.0,0.0,0.0,0.0,0.0,0.0,0.0,0.0,0.0,0.0,0.0,0.0,0.0,0.0,0.0,0.0,0.0,0.0,0.0,0.0,0.0,0.4206,0.4842,0.0,0.0,0.0,0.0,0.0,0.0,0.0,0.0,0.1813,0.0,0.0,0.0,0.0,0.0,0.0,0.0,0.0,0.0,0.0,0.0,0.0,0.0,0.0,0.0,0.0,0.0,0.0,0.0,0.0,0.0,0.0,0.0,0.0,0.0,0.0,0.0,0.0,0.0,0.0,0.0,0.0,0.0,0.0,0.0,0.0,0.0,0.0,0.0,0.0,0.0,0.0,0.0,0.0,0.0,0.0,0.0,0.0,0.0,0.0,0.0,0.0,0.0,0.0,0.0,0.0,0.8742,0.9083,0.9395,0.9728,0.8855,0.8017,0.7268,0.5672,0.4293,0.3087,0.0,0.0,0.0,0.0,0.0,0.0,0.0,0.0,0.0,0.0,0.0,0.0,0.0,0.0,0.0,0.0,0.0,0.0,0.0,0.0,0.0,0.0,0.0,0.0,0.0,0.0,0.0,0.0,0.0,0.0,0.0,0.0,0.0,0.0,0.0,0.0,0.0,0.0,0.0,0.6343,0.6652,0.0,0.0,0.0,0.0,0.0,0.0,0.0,0.0,0.3069,0.0,0.0,0.0,0.0,0.0,0.0,0.0,0.0,0.0,0.0,0.0,0.0,0.0,0.0,0.0,0.0,0.0,0.0,0.0,0.0,0.0,0.0,0.0,0.0,0.0,0.0,0.0,0.0,0.0,0.0,0.0,0.0,0.0,0.0,0.0,0.0,0.0,0.0,0.0,0.0,0.0,0.0,0.0,0.0,0.0,0.0,0.0,0.0,0.0,0.0,0.0,0.0,0.0,0.0,0.0,0.8655,0.9447,0.9861,0.9919,0.95,0.8851,0.8013,0.6514,0.5292,0.0,0.0,0.0,0.0,0.0,0.0,0.0,0.0,0.0,0.0,0.0,0.0,0.0,0.0,0.0,0.0,0.0,0.0,0.0,0.0,0.0,0.0,0.0,0.0,0.0,0.0,0.0,0.0,0.0,0.0,0.0,0.0,0.0,0.0,0.0,0.0,0.0,0.0,0.0,0.0,0.7682,0.8091,0.8478,0.0,0.0,0.0,0.0,0.0,0.0,0.6169,0.5422,0.0,0.0,0.0,0.0,0.0,0.0,0.0,0.0,0.0,0.0,0.0,0.0,0.0,0.0,0.0,0.0,0.0,0.0,0.0,0.0,0.0,0.0,0.0,0.0,0.0,0.0,0.0,0.0,0.0,0.0,0.0,0.0,0.0,0.0,0.0,0.0,0.0,0.0,0.0,0.0,0.0,0.0,0.0,0.0,0.0,0.0,0.0,0.0,0.0,0.0,0.0,0.0,0.0,0.0,0.0,0.8669,0.9795,1.0284,1.0126,1.0079,0.9604,0.8655,0.7393,0.6207,0.0,0.0,0.0,0.0,0.0,0.0,0.0,0.0,0.0,0.0,0.0,0.0,0.0,0.0,0.0,0.0,0.0,0.0,0.0,0.0,0.0,0.0,0.0,0.0,0.0,0.0,0.0,0.0,0.0,0.0,0.0,0.0,0.0,0.0,0.0,0.0,0.0,0.0,0.0,0.0,0.0,0.9584,1.0113,1.0062,0.0,0.0,0.0,0.0,0.9152,0.8506,0.0,0.0,0.0,0.0,0.0,0.0,0.0,0.0,0.0,0.0,0.0,0.0,0.0,0.0,0.0,0.0,0.0,0.0,0.0,0.0,0.0,0.0,0.0,0.0,0.0,0.0,0.0,0.0,0.0,0.0,0.0,0.0,0.0,0.0,0.0,0.0,0.0,0.0,0.0,0.0,0.0,0.0,0.0,0.0,0.0,0.0,0.0,0.0,0.0,0.0,0.0,0.0,0.0,0.0,0.0,0.0,0.9522,1.0202,1.0614,1.0781,1.0738,1.0172,0.9142,0.8193,0.71,0.0,0.0,0.0,0.0,0.0,0.0,0.0,0.0,0.0,0.0,0.0,0.0,0.0,0.0,0.0,0.0,0.0,0.0,0.0,0.0,0.0,0.0,0.0,0.0,0.0,0.0,0.0,0.0,0.0,0.0,0.0,0.0,0.0,0.0,0.0,0.0,0.0,0.0,0.0,0.0,0.0,1.1114,1.136,1.1762,1.2037,0.0,0.0,1.1799,1.1609,1.1107,0.0,0.0,0.0,0.0,0.0,0.0,0.0,0.0,0.0,0.0,0.0,0.0,0.0,0.0,0.0,0.0,0.0,0.0,0.0,0.0,0.0,0.0,0.0,0.0,0.0,0.0,0.0,0.0,0.0,0.0,0.0,0.0,0.0,0.0,0.0,0.0,0.0,0.0,0.0,0.0,0.0,0.0,0.0,0.0,0.0,0.0,0.0,0.0,0.0,0.0,0.0,0.0,0.0,0.0,0.0,0.855,0.9612,1.0738,1.1337,1.1422,1.1477,1.1146,1.0293,0.9191,0.8077,0.0,0.0,0.0,0.0,0.0,0.0,0.0,0.0,0.0,0.0,0.0,0.0,0.0,0.0,0.0,0.0,0.0,0.0,0.0,0.0,0.0,0.0,0.0,0.0,0.0,0.0,0.0,0.0,0.0,0.0,0.0,0.0,0.0,0.0,0.0,0.0,0.0,0.0,0.0,0.0,0.0,0.0,1.2961,1.3448,0.0,0.0,0.0,1.4016,1.3968,0.0,0.0,0.0,0.0,0.0,0.0,0.0,0.0,0.0,0.0,0.0,0.0,0.0,0.0,0.0,0.0,0.0,0.0,0.0,0.0,0.0,0.0,0.0,0.0,0.0,0.0,0.0,0.0,0.0,0.0,0.0,0.0,0.0,0.0,0.0,0.0,0.0,0.0,0.0,0.0,0.0,0.0,0.0,0.0,0.0,0.0,0.0,0.0,0.0,0.0,0.0,0.0,0.0,0.0,0.0,0.0,0.0,0.9927,1.1235,1.1942,1.2005,1.2195,1.1944,1.1276,1.02,0.0,0.0,0.0,0.0,0.0,0.0,0.0,0.0,0.0,0.0,0.0,0.0,0.0,0.0,0.0,0.0,0.0,0.0,0.0,0.0,0.0,0.0,0.0,0.0,0.0,0.0,0.0,0.4307,0.0,0.0,0.0,0.0,0.0,0.0,0.0,0.0,0.0,0.0,0.0,0.0,0.0,0.0,1.3946,1.4613,1.5104,1.5571,0.0,0.0,1.6121,1.6142,1.5812,1.5475,0.0,0.0,0.0,0.0,0.0,0.0,0.0,0.0,0.0,0.0,0.0,0.0,0.0,0.0,0.0,0.0,0.0,0.0,0.0,0.0,0.0,0.0,0.0,0.0,0.0,0.0,0.0,0.0,0.0,0.0,0.0,0.0,0.0,0.0,0.0,0.0,0.0,0.0,0.0,0.0,0.0,0.0,0.0,0.0,0.0,0.0,0.0,0.0,0.0,0.0,0.0,0.0,0.0,0.0,0.0,1.0706,1.1726,1.2375,1.256,1.2758,1.2476,1.1689,1.1053,1.0057,0.0,0.0,0.0,0.0,0.0,0.0,0.0,0.0,0.0,0.0,0.0,0.0,0.0,0.0,0.0,0.0,0.0,0.0,0.0,0.0,0.0,0.0,0.0,0.0,0.0,0.0,0.0,0.0,0.0,0.0,0.0,0.0,0.0,0.0,0.0,0.0,0.0,0.0,0.0,0.0,0.0,1.5711,1.617,1.6656,1.711,0.0,0.0,1.8053,1.821,1.8164,1.8064,1.7794,0.0,0.0,0.0,0.0,0.0,0.0,0.0,0.0,0.0,0.0,0.0,0.0,0.0,0.0,0.0,0.0,0.0,0.0,0.0,0.0,0.0,0.0,0.0,0.0,0.0,0.0,0.0,0.0,0.0,0.0,0.0,0.0,0.0,0.0,0.0,0.0,0.0,0.0,0.0,0.0,0.0,0.0,0.0,0.0,0.0,0.0,0.0,0.0,0.0,0.0,0.0,0.0,0.0,1.0475,1.1329,1.2475,1.3208,1.3513,1.3622,1.3361,1.2842,1.1996,1.1068,0.0,0.0,0.0,0.0,0.0,0.0,0.0,0.0,0.0,0.0,0.0,0.0,0.0,0.0,0.0,0.0,0.0,0.0,0.0,0.0,0.0,0.0,0.0,0.0,0.0,0.0,0.0,0.0,0.7011,0.7583,0.8571,0.0,0.0,0.0,0.0,0.0,0.0,0.0,0.0,0.0,0.0,1.7147,1.7674,1.8232,0.0,0.0,1.9696,2.0034,2.0406,2.0413,2.0367,2.007,1.9971,0.0,0.0,0.0,0.0,0.0,0.0,0.0,0.0,0.0,0.0,0.0,0.0,0.0,0.0,0.0,0.0,0.0,0.0,0.0,0.0,0.0,0.0,0.0,0.0,0.0,0.0,0.0,0.0,0.0,0.0,0.0,0.0,0.0,0.0,0.0,0.0,0.0,0.0,0.0,0.0,0.0,0.0,0.0,0.0,0.0,0.0,0.0,0.0,0.0,0.0,0.0,0.0,1.1132,1.1814,1.2892,1.3603,1.3999,1.3999,1.3823,1.3426,1.257,1.1742,0.0,0.0,0.0,0.0,0.0,0.0,0.0,0.0,0.0,0.0,0.0,0.0,0.0,0.0,0.0,0.0,0.0,0.0,0.0,0.0,0.0,0.0,0.0,0.0,0.0,0.0,0.0,0.0,0.8389,0.9069,1.0045,0.0,0.0,0.0,0.0,0.0,0.0,0.0,0.0,0.0,0.0,1.8638,1.9116,1.9721,2.0329,2.0907,2.1347,2.1764,2.2225,2.244,2.2473,2.2277,0.0,0.0,0.0,0.0,0.0,0.0,0.0,0.0,0.0,0.0,0.0,0.0,0.0,0.0,0.0,0.0,0.0,0.0,0.0,0.0,0.0,0.0,0.0,0.0,0.0,0.0,0.0,0.0,0.0,0.0,0.746,0.0,0.0,0.0,0.0,0.0,0.0,0.0,0.0,0.0,0.0,0.0,0.0,0.0,0.0,0.0,0.0,0.0,0.0,0.0,0.0,0.0,0.0,1.1682,1.2092,1.2935,1.3498,1.3816,1.3808,1.3665,1.3313,1.271,1.1983,1.103,0.0,0.0,0.0,0.0,0.0,0.0,0.0,0.0,0.0,0.0,0.0,0.0,0.0,0.0,0.0,0.0,0.0,0.0,0.0,0.0,0.0,0.0,0.0,0.0,0.0,0.0,0.8998,1.0019,1.0887,0.0,0.0,0.0,0.0,0.0,0.0,0.0,0.0,0.0,0.0,1.9659,2.0207,2.0421,2.1049,2.1588,2.2036,2.2603,2.3196,2.3608,2.4093,2.4445,0.0,0.0,0.0,0.0,0.0,0.0,0.0,0.0,0.0,0.0,0.0,0.0,0.0,0.0,0.0,0.0,0.0,0.0,0.0,0.0,0.0,0.0,0.0,0.0,0.0,0.0,0.0,0.9281,0.9097,0.0,0.0,0.0,0.0,0.0,0.0,0.0,0.0,0.0,0.0,0.0,1.0633,1.0512,0.0,0.0,0.0,0.0,0.0,0.0,0.0,0.0,0.0,0.0,0.0,0.0,1.2197,1.2833,1.3584,1.4156,1.451,1.4534,1.4354,1.3958,1.341,1.2456,1.1033,0.0,0.0,0.0,0.0,0.0,0.0,0.0,0.0,0.0,0.0,0.0,0.0,0.0,0.0,0.0,0.0,0.0,0.0,0.0,0.0,0.0,0.0,0.0,0.0,0.0,1.0196,0.0,0.0,0.0,0.0,0.0,0.0,0.0,0.0,0.0,0.0,0.0,1.955,2.0372,2.0914,2.1489,2.208,2.2344,2.274,0.0,0.0,0.0,0.0,0.0,0.0,0.0,0.0,0.0,0.0,0.0,0.0,0.0,0.0,2.1765,2.0361,1.9784,1.9504,1.9425,0.0,0.0,0.0,0.0,0.0,0.0,0.0,0.0,0.0,0.0,0.0,0.0,0.0,0.0,1.1044,0.0,1.0752,0.0,0.0,0.0,0.0,0.0,0.0,0.0,0.0,1.1805,1.1753,1.1813,1.1701,1.1652,0.0,1.1631,1.1153,0.0,0.0,0.0,0.0,0.0,0.0,0.0,0.0,1.2765,1.3405,1.3928,1.4383,1.4723,1.4691,1.451,1.42,1.3502,1.2573,1.1357,1.0858,1.0266,0.0,0.0,0.0,0.0,0.0,0.0,0.0,0.0,0.0,0.0,0.0,0.0,0.0,0.0,0.0,0.0,0.0,0.0,0.0,0.0,0.0,0.0,0.0,1.1829,0.0,0.0,0.0,0.0,0.0,0.0,0.0,0.0,0.0,1.8814,1.988,2.0962,2.1738,2.2193,2.267,2.3324,0.0,0.0,0.0,0.0,0.0,0.0,0.0,2.6792,2.7132,2.7218,2.7218,2.723,2.6514,2.5833,2.5505,0.0,0.0,2.2269,2.1704,2.1524,2.1372,2.0762,2.0198,2.0028,1.9503,1.9023,0.0,0.0,0.0,0.0,0.0,0.0,0.0,0.0,1.3241,1.2872,0.0,1.2439,0.0,0.0,0.0,0.0,0.0,1.2438,0.0,0.0,1.2789,1.2844,1.2996,1.2679,1.2543,1.2566,1.2869,1.2996,1.2916,1.1659,0.0,0.0,0.0,0.0,0.0,0.0,1.342,1.3826,1.3976,1.4189,1.4517,1.4348,1.4169,1.3989,1.308,1.2367,1.192,1.1474,1.104,1.0623,1.0269,0.0,0.0,0.0,0.0,0.0,0.0,0.0,0.0,0.0,0.0,0.0,0.0,0.0,0.0,0.0,0.0,0.0,0.0,0.0,0.0,1.2828,0.0,0.0,0.0,0.0,0.0,0.0,0.0,0.0,0.0,0.0,2.0434,2.1432,2.2365,2.2964,0.0,0.0,0.0,0.0,2.4862,2.5241,2.5876,2.6384,2.6613,2.7078,2.7422,2.7459,0.0,0.0,2.7434,2.6992,2.6636,2.6612,2.6241,2.5452,2.3916,2.3551,2.3415,2.3121,2.2579,2.2073,2.1614,2.1043,2.0543,2.0031,0.0,0.0,0.0,0.0,1.6837,1.6203,1.5521,1.5125,1.4613,1.4019,1.3954,0.0,0.0,0.0,0.0,0.0,0.0,1.3526,1.367,1.3534,1.3551,1.3704,1.3623,1.3571,1.358,1.3683,1.3704,1.3713,1.3296,1.287,1.2417,0.0,0.0,0.0,0.0,1.3896,1.4398,1.4636,1.4793,1.5,1.4941,1.4666,1.416,1.3459,1.2922,1.2539,1.2129,1.1683,1.1189,1.1099,0.0,0.0,0.0,0.0,0.0,0.0,0.0,0.0,0.0,0.0,0.0,0.0,0.0,0.0,0.0,0.0,0.0,0.0,0.0,1.4114,1.4708,1.5207,0.0,0.0,0.0,0.0,0.0,0.0,0.0,0.0,0.0,2.278,2.2903,2.3213,0.0,0.0,2.4587,2.5135,2.5382,2.5641,2.5873,2.6323,0.0,2.7357,2.7713,2.8048,2.8587,2.8687,2.8559,2.8126,2.7921,2.769,2.7306,2.7122,2.679,2.6136,2.5299,2.4779,2.4601,2.3735,2.2914,2.2707,2.1983,2.1316,2.2296,2.0682,1.9806,1.9353,1.9128,1.8611,1.7946,1.7226,1.6731,1.6132,1.5525,1.534,1.5278,1.5261,1.4952,0.0,0.0,0.0,1.407,1.4276,1.4267,1.4348,1.4458,1.4547,1.4538,1.4558,1.4567,1.4558,1.4529,1.4567,1.4339,1.3956,0.0,0.0,1.3842,1.4201,1.4597,1.5069,1.5225,1.5362,1.5478,1.5352,1.502,1.4517,1.3971,1.3519,1.3202,1.2836,1.2433,1.2053,1.1992,1.1916,0.0,0.0,0.0,0.0,0.0,0.0,0.0,0.0,0.0,0.0,0.0,1.1267,0.0,0.0,0.0,0.0,1.4378,1.5092,1.5991,1.6341,0.0,0.0,0.0,0.0,0.0,0.0,0.0,2.1282,2.2375,2.339,2.4205,2.4202,2.4263,2.4719,2.5004,2.5335,2.5838,0.0,2.6349,2.6679,2.6871,2.7203,2.7811,2.8012,2.8279,2.8765,2.8818,2.8747,2.8383,2.8303,2.8185,2.7828,2.7736,2.7656,2.749,2.6722,2.607,2.5767,2.473,2.386,2.3824,2.2915,2.2094,2.3999,2.3027,2.1642,2.0875,2.0585,2.0079,1.9464,1.8773,1.8086,1.7487,1.6985,1.662,1.6428,1.6322,1.5641,0.0,1.4879,1.4481,1.4458,1.4765,1.5,1.5127,1.5264,1.54,1.5449,1.5439,1.5468,1.5468,1.5439,1.5468,1.5468,1.5468,1.4942,1.4736,1.4795,1.5118,1.5449,1.5759,1.5759,1.5827,1.5914,1.5594,1.5332,1.5059,1.4556,1.416,1.3881,1.3549,1.3274,1.3108,1.2924,1.2953,1.3228,0.0,0.0,0.0,0.0,0.0,0.0,0.0,0.0,0.0,0.0,0.0,0.0,0.0,0.0,0.0,1.6026,0.0,1.7472,1.7721,0.0,0.0,0.0,1.9384,1.9724,2.0687,2.1621,2.2251,0.0,0.0,2.4957,2.5241,2.5394,2.5382,2.5723,2.6072,2.638,2.6611,2.6918,2.739,2.7503,2.7656,2.802,2.8152,2.8244,2.8408,2.8352,2.8419,2.8406,2.836,2.8295,2.8177,2.8145,2.8112,2.8112,2.7756,2.7356,2.662,2.5602,2.4815,2.472,2.3779,2.2939,2.5231,2.4251,2.3644,2.2756,2.1711,2.1597,2.0879,1.9841,1.9485,1.8823,1.7954,1.7716,1.7407,1.704,1.6548,1.6131,1.572,1.529,1.5245,1.5469,1.5498,1.5614,1.574,1.5759,1.5788,1.5788,1.5894,1.5931,1.5941,1.6028,1.6095,1.6085,1.62,1.6046,1.5642,1.5787,1.6056,1.6392,1.6381,1.6363,1.6259,1.5941,1.5681,1.5556,1.5059,1.4793,1.4704,1.4249,1.3925,1.3778,1.3828,1.3827,1.3809,1.3801,0.0,0.0,0.0,0.0,0.0,0.0,0.0,0.0,0.0,1.4799,1.5323,0.0,1.6549,0.0,1.7541,1.822,1.879,1.9133,0.0,0.0,2.0172,2.0662,2.1162,2.2102,2.2923,2.3502,2.4529,2.525,2.5441,2.5758,2.598,2.598,2.6176,2.6346,2.6611,2.6918,2.7235,2.7469,2.7623,2.7855,2.8203,2.849,2.8619,2.867,2.8798,2.8894,2.8894,2.878,2.867,2.8619,2.8554,2.8425,2.8281,2.817,2.7973,2.7478,2.6226,2.5167,2.5154,2.4256,2.345,2.6152,2.5052,2.4707,2.4045,2.3228,2.2916,2.2017,2.0818,2.0527,1.9809,1.8831,1.8295,1.78,1.734,1.6862,1.6375,1.594,1.5713,1.5701,1.5798,1.5846,1.5961,1.6126,1.6192,1.6249,1.6278,1.6381,1.64,1.64,1.6542,1.6627,1.6627,1.6937,1.6965,1.6701,1.6616,1.6673,1.6853,1.6853,1.6797,1.6676,1.6428,1.6228,1.6105,1.572,1.5488,1.5488,1.5167,1.4874,1.4726,1.4782,1.4842,1.4892,1.5007,1.5173,0.0,0.0,0.0,0.0,0.0,0.0,0.0,0.0,0.0,0.0,0.0,1.8234,1.868,1.909,1.9529,2.0053,2.0279,2.0505,2.0858,2.1155,2.1472,2.1882,2.2687,2.3394,2.3953,2.4822,2.5489,2.5838,2.6062,2.627,2.6396,2.6555,2.6714,2.6829,2.7167,2.7469,2.7749,2.7868,2.8052,2.8365,2.8573,2.8716,2.8812,2.8972,2.9067,2.8972,2.8972,2.8908,2.8748,2.8651,2.8554,2.8476,2.8352,2.8189,2.7808,2.6724,2.5732,2.5503,2.4576,2.3717,2.6844,2.5688,2.5264,2.4969,2.4743,2.4024,2.2941,2.1651,2.1239,2.0505,1.9573,1.8653,1.7975,1.7544,1.6911,1.6415,1.6039,1.6,1.6,1.6029,1.6204,1.6378,1.6553,1.6728,1.6863,1.6959,1.7017,1.7045,1.7045,1.7194,1.7318,1.7336,1.7562,1.7762,1.7845,1.7557,1.7357,1.7329,1.7329,1.7245,1.7095,1.6976,1.6846,1.6684,1.6371,1.62,1.62,1.6075,1.595,1.5786,1.5786,1.5898,1.6138,1.6287,1.6507,0.0,1.699,0.0,0.0,0.0,0.0,0.0,0.0,0.0,0.0,1.9156,1.9857,2.0549,2.0613,2.0773,2.123,2.1262,2.1451,2.192,2.1982,2.208,2.2356,2.2912,2.3494,2.4018,2.4639,2.5287,2.5878,2.6037,2.6115,2.6459,2.6688,2.6862,2.7032,2.7302,2.7636,2.8046,2.8145,2.8262,2.8522,2.8619,2.8683,2.878,2.8972,2.9035,2.8876,2.8972,2.8972,2.8683,2.8619,2.8587,2.8587,2.8444,2.83,2.8085,2.7086,2.6174,2.5746,2.4801,2.3959,2.7337,2.6233,2.5886,2.5535,2.5122,2.4564,2.3525,2.2195,2.1587,2.0786,1.9813,1.918,1.8585,1.8047,1.7543,1.7061,1.662,1.662,1.6648,1.6669,1.7035,1.7262,1.7313,1.7684,1.7894,1.7954,1.8205,1.8354,1.8365,1.8633,1.8869,1.9016,1.8754,1.8691,1.8825,0.0,0.0,0.0,1.792,1.781,1.759,1.7545,1.7407,1.7106,1.6927,0.0,1.6814,1.6712,1.6655,1.6719,1.6747,0.0,0.0,0.0,0.0,0.0,0.0,0.0,0.0,0.0,0.0,0.0,1.9651,2.0023,2.0126,2.0666,2.1187,2.1565,2.1628,2.1733,2.1956,2.2111,2.2192,2.2285,2.2451,2.2714,2.3217,2.3466,2.3801,2.4344,2.4681,2.4911,2.5081,2.5036,2.531,2.5945,2.6233,2.6591,2.7136,2.739,2.7636,2.8013,2.8308,2.849,2.8587,2.8683,2.8748,2.8812,2.8972,2.9067,2.9035,2.8908,2.8876,2.8748,2.8683,2.8587,2.8587,2.8554,2.8411,2.8131,2.7493,2.6741,2.5965,2.4879,2.4067,2.7916,0.0,2.638,2.599,0.0,2.4687,2.3821,2.3045,2.2067,2.1004,1.9853,1.9183,1.8613,1.8056,1.7429,1.7013,1.6828,1.7041,1.7137,1.7169,1.7616,1.7899,1.801,1.8296,1.8505,1.8627,1.8849,1.8939,1.8969,1.9287,1.9477,1.9595,1.9558,1.9521,1.9424,1.9144,1.8801,1.8449,1.8449,1.8367,1.8154,1.8057,1.792,1.7661,1.759,0.0,0.0,0.0,0.0,0.0,0.0,0.0,0.0,1.8174,0.0,1.8321,1.8566,1.8727,1.8753,1.8977,1.9381,1.9982,2.1073,2.1743,2.1756,2.1982,2.2242,2.2476,2.2506,2.258,2.2769,2.286,2.2909,2.2987,2.309,2.3276,2.3484,2.3595,2.384,2.4331,2.4488,2.4589,2.4879,2.484,2.4985,2.5445,2.5914,2.6367,2.6802,2.722,2.7636,2.8046,2.8295,2.8476,2.8573,2.8651,2.8683,2.8716,2.8844,2.8908,2.8876,2.8844,2.878,2.8716,2.8619,2.8587,2.8587,2.8522,2.8392,2.8124,2.7535,2.681,2.596,2.5132,2.4439,2.8486,2.764,2.6804,2.6383,2.6114,2.4709,2.3883,2.346,0.0,0.0,0.0,1.9149,1.8533,1.802,1.7305,1.7002,1.7137,1.7492,1.7707,1.7833,1.8296,1.8605,1.8748,1.8978,1.9152,1.9296,1.9467,1.9569,1.9569,1.9888,2.0067,2.0133,2.0229,2.0087,1.973,1.9562,1.9303,1.8999,1.8919,1.8839,1.8694,1.8598,1.8464,1.8275,1.8275,1.8344,1.8429,1.8467,1.8575,1.8774,1.8922,1.8989,1.9016,1.9279,1.9422,1.941,1.9682,1.9798,1.9811,2.0055,2.0412,2.1002,2.2208,2.2987,2.3058,2.3078,2.3168,2.3288,2.3275,2.3348,2.3509,2.3522,2.3569,2.3658,2.3658,2.3628,2.3599,2.3586,2.3773,2.417,2.4137,2.424,2.4596,2.4596,2.4633,2.4938,2.5416,2.6116,2.646,2.7104,2.7689,2.7967,2.8183,2.8365,2.8522,2.8587,2.8587,2.8619,2.8683,2.8716,2.8651,2.8683,2.8716,2.8619,2.8587,2.8587,2.8541,2.8398,2.8235,2.8079,2.753,2.6814,2.5999,2.5445,2.4909,2.864,2.7954,2.7058,2.6543,2.6271,2.5054,2.3707,2.2383,2.1741,2.1065,2.0285,1.9603,1.8946,1.8337,1.7812,1.7835,1.8242,1.832,1.8576,1.897,1.9438,1.966,1.9725,2.018,2.0424,2.0488,2.0773,2.092,2.0951,2.1245,2.1568,2.1684,2.0925,2.0121,1.9525,1.9654,1.9734,1.9656,1.9447,1.9251,1.9133,1.9107,1.904,1.8881,1.8987,1.9054,1.9069,1.9198,1.9303,1.9448,1.9566,1.9721,1.9837,2.0067,2.022,2.0245,2.0485,2.0635,2.0635,2.0771,2.1171,2.1884,2.2695,2.331,2.3638,2.3826,2.3956,2.3956,2.3956,2.3972,2.4015,2.3985,2.3969,2.3878,2.3848,2.3789,2.3645,2.3616,2.3667,2.3769,2.3714,2.3662,2.3738,2.3677,2.3854,2.4246,2.477,2.5259,2.644,2.7275,2.7749,2.7888,2.8105,2.8287,2.8379,2.8476,2.8554,2.8587,2.8619,2.8619,2.8619,2.8619,2.8633,2.8587,2.8587,2.8509,2.8398,2.832,2.8157,2.7908,2.769,2.7222,2.6112,2.5702,2.5284,2.8928,2.8472,2.737,2.676,2.6454,2.5153,2.373,2.2333,2.1975,2.1186,2.013,1.9716,1.9192,1.8554,1.8261,1.8412,1.8883,1.9141,1.9377,1.9593,2.0086,2.0374,2.048,2.0801,2.0999,2.1094,2.1328,2.1466,2.1498,2.1792,2.2042,2.2156,2.1397,2.0721,2.0074,2.0013,2.0016,2.0016,1.9823,1.9707,1.9642,1.9552,1.95,1.9436,1.9566,1.9669,1.9746,1.9875,2.0016,2.0131,2.0346,2.0472,2.0548,2.0797,2.0945,2.0945,2.1129,2.1264,2.1323,2.1541,2.1921,2.2578,2.2942,2.3363,2.3879,2.4332,2.4607,2.4593,2.4593,2.4593,2.4593,2.4507,2.445,2.439,2.4332,2.4187,2.4028,2.3972,2.3969,2.3865,2.3819,2.373,2.3684,2.3522,2.3466,2.3801,2.4356,2.5388,2.6511,2.721,2.7689,2.7789,2.7941,2.8072,2.8183,2.8346,2.8411,2.843,2.8541,2.8587,2.8587,2.8587,2.8587,2.8587,2.8509,2.8398,2.8287,2.8124,2.7973,2.7875,2.7709,2.7256,2.6491,2.5762,2.4944,2.9203,2.8944,2.761,2.6803,2.6223,2.4948,2.3658,2.2475,2.2321,2.1474,2.0281,2.0022,1.9569,1.8897,1.888,1.9152,1.9599,1.9973,2.02,2.0347,2.0744,2.0978,2.1094,2.1233,2.1348,2.1474,2.1655,2.1761,2.1843,2.2092,2.2176,2.2007,2.1567,2.1096,2.0515,2.036,2.0283,2.0271,2.0246,2.0169,2.0093,1.9991,1.9927,1.9978,2.0118,2.0232,2.0321,2.0472,2.0623,2.0747,2.0983,2.1131,2.1131,2.1375,2.152,2.1544,2.165,2.1807,2.1973,2.2161,2.2513,2.2969,2.3152,2.3434,2.3917,2.4563,2.4957,2.4969,2.5065,2.5146,2.5146,2.5047,2.4934,2.4877,2.4763,2.4578,2.4392,2.4321,2.4276,2.4157,2.4037,2.392,2.3861,2.3671,2.3535,2.3705,2.45,2.5484,2.6335,2.6974,2.7393,2.7663,2.7789,2.7855,2.8046,2.8151,2.8249,2.8281,2.8379,2.8425,2.8471,2.8457,2.849,2.8457,2.836,2.8249,2.817,2.8006,2.7809,2.7709,2.7623,2.7255,2.6453,2.5467,2.4533,2.9274,2.9069,2.7816,2.6495,2.5217,2.4235,2.3387,2.2696,2.2494,2.1922,2.1057,2.0889,2.0258,1.9495,1.9807,2.0288,2.0714,2.0803,2.1054,2.1444,2.158,2.1635,2.1604,2.1624,2.1667,2.1698,2.1843,2.1999,2.2166,2.2285,2.2102,2.1581,2.1136,2.074,2.031,2.0411,2.0498,2.056,2.0724,2.0662,2.0372,2.0346,2.0397,2.0535,2.0646,2.0734,2.0759,2.1008,2.1131,2.1155,2.1399,2.153,2.1568,2.1688,2.1817,2.1949,2.2053,2.2254,2.25,2.2546,2.2644,2.2755,2.3286,2.365,2.3831,2.4432,2.4855,2.495,2.5325,2.5535,2.5619,2.5467,2.5258,2.5075,2.4977,2.4863,2.462,2.4421,2.4292,2.4292,2.4157,2.4037,2.3949,2.3861,2.3832,2.3802,2.4387,2.5112,2.5853,2.6478,2.704,2.7459,2.7689,2.7789,2.7855,2.8,2.8099,2.8099,2.8145,2.8177,2.821,2.821,2.8145,2.8243,2.8131,2.8066,2.7954,2.7822,2.7723,2.7623,2.7458,2.7157,2.6012,2.5086,2.4389,2.931,2.917,2.785,2.6444,2.5084,2.4312,2.3542,2.2842,2.2726,2.2207,2.1554,2.1674,2.1248,2.0317,2.0517,2.0894,2.1357,2.1369,2.1487,2.1698,2.171,2.1761,2.1812,2.1937,2.203,2.2123,2.2297,2.2402,2.2476,2.2376,2.2101,2.1645,2.1293,2.0874,2.0449,2.0625,2.0737,2.0787,2.0911,2.0936,2.0871,2.0772,2.0785,2.0822,2.0983,2.1093,2.1153,2.135,2.1471,2.1568,2.1736,2.1864,2.1935,2.2077,2.2208,2.2333,2.2518,2.264,2.2754,2.2904,2.3031,2.3061,2.3309,2.347,2.353,2.4078,2.4465,2.4524,2.4812,2.5159,2.5434,2.5319,2.5243,2.5412,2.5286,2.502,2.4863,2.4679,2.4523,2.4334,2.4247,2.4157,2.4054,2.3949,2.3891,2.3955,2.4343,2.4935,2.567,2.6308,2.6883,2.7379,2.759,2.7623,2.7656,2.7789,2.7888,2.7921,2.8033,2.8112,2.8079,2.8112,2.8112,2.8079,2.8013,2.7901,2.7855,2.7689,2.759,2.749,2.7351,2.6965,2.5582,2.5046,2.4455,2.9324,2.8926,2.7494,2.6239,2.5173,2.4335,2.3588,2.2994,2.2909,2.2535,2.197,2.2323,2.2091,2.1451,2.1282,2.1488,2.1788,2.1824,2.1855,2.1874,2.1886,2.1968,2.2111,2.2247,2.2402,2.2494,2.2616,2.2634,2.251,2.2272,2.1948,2.1557,2.1222,2.0901,2.0639,2.0788,2.0913,2.0924,2.0997,2.1131,2.1229,2.1155,2.112,2.1106,2.1229,2.1337,2.1471,2.164,2.1759,2.1841,2.1996,2.21,2.2254,2.2347,2.25,2.2669,2.2851,2.2971,2.3001,2.3216,2.3363,2.337,2.3407,2.3451,2.3532,2.3881,2.4097,2.4103,2.4256,2.4641,2.5164,2.5009,2.5027,2.5385,2.5092,2.4792,2.4572,2.4541,2.4453,2.4182,2.4202,2.4247,2.4112,2.4037,2.3979,2.4001,2.4274,2.4862,2.5592,2.619,2.6661,2.7379,2.749,2.7503,2.7536,2.7623,2.7709,2.7756,2.7835,2.7914,2.7914,2.7947,2.7947,2.7802,2.7756,2.7723,2.7689,2.7556,2.7456,2.7436,2.7263,2.6837,2.569,2.5274,2.4589,2.9366,2.8467,2.6557,2.5664,2.5451,2.4075,2.3338,2.309,2.2969,2.2793,2.2634,2.2665,2.2665,2.2525,2.2212,2.2161,2.2166,2.2197,2.2247,2.234,2.2371,2.2463,2.2659,2.269,2.269,2.2678,2.2708,2.2552,2.2193,2.1876,2.1517,2.1129,2.0785,2.0601,2.0687,2.0825,2.0924,2.101,2.1131,2.1253,2.1375,2.1375,2.1375,2.1375,2.1496,2.1578,2.164,2.1841,2.1983,2.1983,2.21,2.2254,2.2356,2.2417,2.2563,2.2859,2.3008,2.3157,2.326,2.3407,2.3516,2.3588,2.3696,2.3818,2.3903,2.3994,2.3997,2.3872,2.3906,2.4246,2.4818,2.4737,2.4537,2.4453,2.4221,2.3953,2.3587,2.396,2.3986,2.3846,2.3995,2.4155,2.4086,2.4125,2.4096,2.4096,2.4135,2.4553,2.5519,2.5845,2.6354,2.715,2.7503,2.7503,2.7503,2.7523,2.7523,2.757,2.7603,2.759,2.7536,2.7536,2.7536,2.757,2.7556,2.7556,2.7536,2.7503,2.7436,2.7302,2.7146,2.6585,2.5762,2.5207,2.4588,2.8889,2.7453,2.6388,2.5584,2.4939,2.4082,2.3552,2.33,2.3241,2.3072,2.286,2.283,2.28,2.269,2.2555,2.2525,2.2525,2.2506,2.2555,2.2586,2.2586,2.2616,2.2708,2.28,2.283,2.2818,2.2927,2.2742,2.2355,2.201,2.1628,2.1223,2.0835,2.0649,2.0724,2.0886,2.0972,2.1021,2.1204,2.135,2.1399,2.1385,2.1434,2.1544,2.1554,2.1688,2.1841,2.1935,2.2044,2.2137,2.224,2.2394,2.2532,2.2729,2.2888,2.3023,2.3223,2.3385,2.348,2.361,2.3754,2.3839,2.3931,2.4015,2.4073,2.4135,2.4135,2.4015,2.3994,2.4169,2.426,2.4336,2.4408,2.4503,2.4291,2.3985,2.384,2.3721,2.358,2.3447,2.3589,2.3785,2.4011,2.4112,2.4125,2.4125,2.4125,2.4618,2.5454,2.578,2.6198,2.715,2.7503,2.7503,2.7503,2.7503,2.7503,2.7503,2.7503,2.7536,2.7503,2.7503,2.7536,2.7536,2.7503,2.7503,2.7503,2.7403,2.7302,2.7146,2.6943,2.6591,2.5845,2.5267,2.4682,2.8439,2.7091,2.6374,2.5625,2.4819,2.4183,2.3772,2.3552,2.3463,2.3271,2.309,2.3,2.2909,2.286,2.2818,2.283,2.2818,2.2739,2.2739,2.2781,2.2769,2.28,2.286,2.2909,2.2957,2.3,2.312,2.2905,2.2299,2.2033,2.1646,2.103,2.0807,2.0737,2.0787,2.0923,2.1021,2.1095,2.1264,2.1385,2.1385,2.1434,2.1506,2.1664,2.1698,2.1793,2.1996,2.2044,2.21,2.2208,2.2324,2.2463,2.2675,2.2947,2.3127,2.3194,2.3385,2.3566,2.3674,2.3861,2.4009,2.4094,2.4198,2.4245,2.4287,2.4343,2.4343,2.4302,2.4281,2.4219,2.4143,2.4182,2.426,2.4303,2.3995,2.3694,2.3477,2.3319,2.3219,2.3137,2.3296,2.3522,2.3788,2.3995,2.4099,2.4125,2.4125,2.4553,2.5493,2.5819,2.6198,2.7242,2.749,2.7503,2.7503,2.7503,2.7503,2.7503,2.7503,2.7503,2.7503,2.7503,2.7503,2.7503,2.7469,2.7469,2.7403,2.7302,2.7134,2.6943,2.6829,2.6587,2.59,2.5264,2.4711,2.7964,2.7256,2.6454,2.5721,2.4994,2.4246,2.3891,2.3802,2.3552,2.3433,2.3313,2.3168,2.3078,2.3078,2.3047,2.3078,2.3017,2.283,2.28,2.2878,2.2909,2.2969,2.3047,2.3078,2.3078,2.3108,2.33,2.2807,2.1873,2.1952,2.1586,2.0719,2.0676,2.0775,2.0901,2.0961,2.1071,2.1193,2.1326,2.1385,2.141,2.152,2.165,2.1769,2.1902,2.1959,2.202,2.2137,2.2208,2.2231,2.2347,2.2523,2.2795,2.3007,2.3157,2.3319,2.3501,2.3674,2.3824,2.4114,2.424,2.4323,2.4487,2.4569,2.4589,2.4609,2.4609,2.4609,2.4589,2.4508,2.4359,2.4296,2.4088,2.3437,2.3257,2.2939,2.2578,2.2644,2.2867,2.2816,2.3028,2.3285,2.3369,2.3652,2.3981,2.4086,2.4138,2.4501,2.5519,2.578,2.6289,2.7137,2.7503,2.7503,2.7503,2.7503,2.7503,2.7503,2.7503,2.7503,2.7503,2.7503,2.7469,2.7469,2.7369,2.7335,2.7248,2.7146,2.6964,2.6794,2.6714,2.6586,2.6063,2.5478,2.4863,2.7863,2.6831,2.6418,2.5601,2.4622,2.4178,2.3995,2.3891,2.3772,2.3624,2.3433,2.3343,2.3241,2.3138,2.3095,2.3095,2.3095,2.2987,2.2987,2.3017,2.3047,2.3047,2.3095,2.3095,2.3168,2.3271,2.3373,2.2936,2.2144,2.2074,2.1601,2.0807,2.0687,2.0775,2.0888,2.0961,2.1057,2.1204,2.1326,2.1385,2.141,2.153,2.1688,2.1793,2.1935,2.2044,2.2123,2.2184,2.2254,2.231,2.2463,2.2684,2.2947,2.3157,2.3319,2.348,2.3653,2.3867,2.4094,2.424,2.4385,2.4487,2.4666,2.4786,2.4851,2.491,2.4895,2.4886,2.4866,2.4786,2.4564,2.4364,2.4094,2.3566,2.3304,2.2994,2.2578,2.2306,2.2251,2.2393,2.2404,2.2631,2.314,2.3516,2.3694,2.406,2.4125,2.4557,2.5467,2.578,2.6237,2.7229,2.7359,2.7503,2.7503,2.7469,2.7456,2.7456,2.7456,2.7469,2.7469,2.7403,2.7403,2.7335,2.7281,2.718,2.7079,2.6943,2.6794,2.6692,2.6624,2.6436,2.6202,2.5601,2.4826,2.7832,2.6712,2.6474,2.5628,2.4432,2.4232,2.4099,2.3979,2.392,2.376,2.3582,2.3522,2.3407,2.3318,2.3288,2.3288,2.33,2.3288,2.3288,2.3258,2.3138,2.3095,2.3138,2.318,2.33,2.345,2.3552,2.3081,2.2113,2.2132,2.168,2.0857,2.0699,2.0774,2.0911,2.0972,2.1082,2.1253,2.135,2.1423,2.1496,2.1616,2.1736,2.1878,2.2006,2.2114,2.2208,2.2254,2.2324,2.2417,2.2601,2.2843,2.3068,2.3297,2.3458,2.361,2.3846,2.4078,2.4281,2.4421,2.4564,2.4726,2.4846,2.4966,2.5084,2.5162,2.5143,2.5123,2.5048,2.4966,2.4751,2.4528,2.4261,2.3909,2.3588,2.3216,2.2746,2.2194,2.1883,2.1952,2.1932,2.2312,2.2828,2.3242,2.3446,2.3926,2.4125,2.453,2.5401,2.5767,2.6459,2.7072,2.7425,2.7503,2.7503,2.7456,2.7423,2.739,2.739,2.739,2.739,2.7268,2.7214,2.7146,2.7045,2.6964,2.6863,2.6726,2.6589,2.6555,2.6568,2.6405,2.6118,2.5202,2.4448,2.7908,2.6816,2.6641,2.5834,2.4616,2.435,2.4203,2.4083,2.3979,2.392,2.3819,2.37,2.3599,2.3599,2.3526,2.3526,2.3586,2.3556,2.3556,2.3467,2.3318,2.3198,2.3198,2.333,2.3492,2.3641,2.3789,2.3266,2.2337,2.2319,2.1825,2.0922,2.0764,2.0785,2.0947,2.0997,2.1131,2.135,2.1385,2.1471,2.1578,2.1712,2.1855,2.1983,2.2114,2.2208,2.2254,2.237,2.2463,2.2486,2.2746,2.2986,2.3179,2.3451,2.3588,2.3674,2.4073,2.424,2.4364,2.4605,2.4826,2.495,2.5048,2.5146,2.5275,2.5278,2.5278,2.5294,2.5185,2.5088,2.495,2.4786,2.4528,2.4261,2.3782,2.3282,2.2678,2.224,2.1934,2.1642,2.1715,2.2073,2.2617,2.2968,2.3396,2.39,2.4138,2.4605,2.5315,2.578,2.6328,2.6837,2.7307,2.7503,2.7503,2.7403,2.7369,2.7335,2.7268,2.7188,2.7222,2.71,2.7045,2.6943,2.6875,2.676,2.6645,2.6589,2.6521,2.6521,2.6465,2.6408,2.5862,2.5036,2.4316,2.7895,2.6833,2.6641,2.5834,2.4658,2.4392,2.4232,2.4112,2.4054,2.3966,2.392,2.3848,2.373,2.3628,2.3586,2.3586,2.3616,2.3616,2.3586,2.3599,2.3539,2.348,2.348,2.3509,2.3641,2.3789,2.3835,2.356,2.2931,2.2596,2.2022,2.1289,2.0922,2.0812,2.0972,2.0997,2.1144,2.1361,2.1385,2.1471,2.1616,2.1722,2.1878,2.1983,2.2123,2.224,2.237,2.2609,2.2754,2.2791,2.2933,2.3187,2.3429,2.3566,2.3739,2.4003,2.4193,2.4364,2.4549,2.4786,2.4985,2.5068,2.5182,2.5294,2.5375,2.5359,2.5359,2.5375,2.5339,2.5243,2.5123,2.4966,2.467,2.4183,2.3739,2.3224,2.2754,2.2356,2.2006,2.1749,2.1635,2.1943,2.2538,2.2788,2.3165,2.3867,2.4178,2.4374,2.5105,2.5694,2.6145,2.67,2.7144,2.7359,2.7469,2.7369,2.7302,2.7248,2.7134,2.693,2.693,2.6909,2.6829,2.676,2.6692,2.6589,2.6555,2.6521,2.6487,2.6487,2.6361,2.6245,2.5741,2.5007,2.4335,2.8044,2.7159,2.681,2.5998,2.4936,2.4556,2.4303,2.4141,2.4125,2.4054,2.3995,2.3979,2.3907,2.3806,2.3806,2.3806,2.3819,2.3806,2.3819,2.3806,2.3806,2.3776,2.376,2.373,2.3819,2.3979,2.3979,2.3686,2.3234,2.2871,2.2309,2.159,2.1262,2.1099,2.0983,2.1057,2.118,2.1361,2.1434,2.1544,2.1688,2.1807,2.1949,2.2077,2.2194,2.2361,2.2583,2.2783,2.2889,2.2934,2.315,2.3407,2.3588,2.3782,2.3967,2.425,2.4359,2.4508,2.467,2.4906,2.5068,2.5166,2.5278,2.5391,2.5451,2.547,2.5489,2.5505,2.5451,2.5336,2.5201,2.4985,2.465,2.424,2.3797,2.3312,2.2912,2.2586,2.2254,2.1949,2.1684,2.1785,2.2724,2.2697,2.3183,2.3861,2.4128,2.4468,2.4966,2.5458,2.5963,2.6517,2.7066,2.7372,2.7436,2.7302,2.718,2.7146,2.6943,2.6726,2.6739,2.6739,2.6692,2.6624,2.6521,2.6487,2.6487,2.6487,2.6487,2.6418,2.6292,2.6057,2.5615,2.5042,2.4371,2.8248,2.7651,2.7091,2.6354,2.5495,2.5005,2.4694,2.4364,2.437,2.4305,2.424,2.423,2.4158,2.4125,2.4054,2.4083,2.4096,2.4054,2.4083,2.4054,2.4054,2.3995,2.392,2.392,2.3979,2.4096,2.4125,2.3809,2.3459,2.3248,2.266,2.1995,2.176,2.1493,2.1261,2.1173,2.1277,2.1385,2.1506,2.1626,2.1769,2.1902,2.2044,2.2161,2.2333,2.2546,2.2743,2.2896,2.2979,2.2979,2.3377,2.3573,2.3674,2.4003,2.4229,2.4338,2.4508,2.4686,2.4826,2.5025,2.5182,2.5278,2.5375,2.5451,2.5543,2.5578,2.5578,2.5578,2.5505,2.5394,2.524,2.4906,2.4569,2.4317,2.4009,2.361,2.3216,2.2828,2.2477,2.2067,2.1674,2.2007,2.2561,2.2884,2.3039,2.401,2.4187,2.4295,2.4792,2.5367,2.5863,2.6334,2.6909,2.7464,2.7369,2.7281,2.7113,2.6977,2.6726,2.6555,2.6555,2.6555,2.6521,2.6487,2.6487,2.6487,2.6487,2.6487,2.6487,2.6349,2.6188,2.605,2.5789,2.5093,2.4391,2.8248,2.7705,2.7569,2.6977,2.6178,2.5974,2.5725,2.5419,2.5388,2.5145,2.4857,2.4779,2.4517,2.4138,2.4109,2.4125,2.4125,2.4125,2.4125,2.4125,2.4125,2.4083,2.4067,2.4067,2.4096,2.4125,2.4125,2.4034,2.3838,2.343,2.3091,2.2779,2.2154,2.1691,2.166,2.141,2.1267,2.1399,2.153,2.1674,2.1793,2.1949,2.2091,2.2231,2.244,2.2655,2.2896,2.3105,2.3282,2.3436,2.353,2.3696,2.3919,2.413,2.4317,2.4477,2.4641,2.4806,2.4946,2.5123,2.5298,2.5375,2.547,2.5578,2.5597,2.5616,2.5597,2.5597,2.5562,2.5467,2.5294,2.4871,2.4589,2.44,2.4151,2.3797,2.3429,2.2994,2.2549,2.2217,2.193,2.2068,2.2972,2.2897,2.3255,2.4044,2.4245,2.4178,2.4618,2.5192,2.5694,2.6125,2.6765,2.7294,2.7436,2.7268,2.7045,2.6875,2.6624,2.6487,2.6487,2.6487,2.6487,2.6487,2.6487,2.6487,2.6487,2.6499,2.6499,2.6292,2.6119,2.5933,2.5636,2.5002,2.4575,2.841,2.8098,2.7841,2.7328,2.6725,2.6427,2.6122,2.5842,2.578,2.5636,2.5354,2.5136,2.4822,2.4504,2.4243,2.4125,2.4125,2.4125,2.4125,2.4125,2.4125,2.4125,2.4125,2.4125,2.4125,2.4125,2.4125,2.4125,2.4008,2.3799,2.3483,2.3223,2.2761,2.2366,2.1991,2.1755,2.1596,2.1464,2.1602,2.1722,2.1793,2.1996,2.2208,2.2385,2.2606,2.2789,2.3,2.3187,2.337,2.3588,2.3717,2.3861,2.4082,2.4276,2.4436,2.4559,2.4701,2.4866,2.5045,2.5201,2.5317,2.5413,2.5546,2.5621,2.5659,2.5659,2.564,2.564,2.56,2.5505,2.5294,2.4886,2.4625,2.4482,2.4229,2.3882,2.3545,2.315,2.2746,2.2379,2.2067,2.2252,2.2569,2.2827,2.3218,2.3866,2.4266,2.4255,2.4308,2.487,2.5406,2.5929,2.6608,2.7131,2.7365,2.7268,2.6998,2.6794,2.6636,2.6521,2.6487,2.6487,2.6487,2.6487,2.6487,2.6487,2.6487,2.6499,2.6443,2.627,2.605,2.5863,2.558,2.5199,2.4852,2.8587,2.856,2.8058,2.7638,2.729,2.6814,2.6466,2.6125,2.6054,2.6125,2.5876,2.545,2.528,2.4913,2.4491,2.4256,2.4125,2.4125,2.4125,2.4125,2.4125,2.4125,2.4125,2.4125,2.4125,2.4125,2.4125,2.4125,2.4125,2.4086,2.3783,2.3448,2.3545,2.3123,2.2444,2.2167,2.2047,2.1768,2.1732,2.1793,2.1864,2.2067,2.2301,2.2546,2.2712,2.2894,2.309,2.3268,2.3429,2.3653,2.3882,2.4046,2.4229,2.4395,2.4523,2.4589,2.4762,2.4962,2.5123,2.5256,2.5352,2.5432,2.5567,2.5663,2.568,2.568,2.5661,2.5624,2.5584,2.5464,2.5294,2.4886,2.465,2.4528,2.4234,2.3903,2.3653,2.3326,2.2926,2.2509,2.2236,2.2287,2.2583,2.2863,2.3245,2.3631,2.4036,2.4303,2.4357,2.4596,2.5171,2.5772,2.6452,2.7079,2.7372,2.7281,2.6977,2.6841,2.6636,2.6521,2.6487,2.6487,2.6487,2.6487,2.6487,2.6487,2.6465,2.643,2.6339,2.6201,2.598,2.5723,2.5571,2.543,2.5082,2.8587,2.8587,2.8492,2.8244,2.7939,2.7813,2.7511,2.7249,2.7124,2.6961,2.653,2.6444,2.5816,2.5214,2.494,2.457,2.4217,2.4125,2.4125,2.4125,2.4125,2.4125,2.4125,2.4125,2.4125,2.4125,2.4125,2.4125,2.4125,2.4099,2.3992,2.3909,2.3823,2.3497,2.3178,2.276,2.241,2.2169,2.2,2.1938,2.1973,2.2161,2.2347,2.2592,2.2735,2.2947,2.3164,2.3297,2.3494,2.3897,2.3982,2.4109,2.4276,2.4462,2.4564,2.4645,2.4826,2.5025,2.5217,2.5275,2.5391,2.5524,2.5602,2.5619,2.5619,2.5635,2.5621,2.5565,2.5451,2.5333,2.5294,2.4851,2.465,2.4508,2.424,2.3925,2.3732,2.3436,2.3075,2.2623,2.2404,2.2235,2.2462,2.2814,2.3244,2.3647,2.411,2.4286,2.4313,2.4619,2.5097,2.568,2.6308,2.6909,2.7398,2.7209,2.699,2.6875,2.6739,2.6521,2.6487,2.6487,2.6487,2.6487,2.6487,2.6499,2.643,2.6374,2.6188,2.6015,2.5793,2.5606,2.5465,2.5347,2.5253,2.8587,2.8587,2.8587,2.8406,2.8145,2.8112,2.7881,2.7536,2.749,2.7346,2.7092,2.6791,2.6431,2.5829,2.5188,2.4661,2.4243,2.4125,2.4125,2.4125,2.4125,2.4125,2.4125,2.4125,2.4125,2.4125,2.4125,2.4125,2.4125,2.4125,2.4112,2.4105,2.4101,2.4031,2.3725,2.3433,2.2926,2.2643,2.2341,2.2155,2.2048,2.2231,2.25,2.2592,2.2789,2.3,2.3209,2.3282,2.3516,2.3897,2.3982,2.4114,2.4281,2.4441,2.4564,2.463,2.4831,2.5084,2.5256,2.5314,2.5407,2.5562,2.5621,2.5642,2.5642,2.5642,2.5602,2.5489,2.541,2.5275,2.5201,2.4831,2.465,2.4528,2.424,2.3967,2.3775,2.348,2.3105,2.2737,2.2491,2.2301,2.2218,2.2617,2.3187,2.3662,2.4114,2.4253,2.431,2.455,2.4921,2.5502,2.6086,2.6772,2.7248,2.7136,2.6977,2.6875,2.6773,2.6555,2.6487,2.6487,2.6487,2.6487,2.6499,2.6465,2.6374,2.6236,2.6015,2.5828,2.5676,2.5535,2.5382,2.5276,2.5218,2.8587,2.8587,2.8587,2.8438,2.8177,2.8112,2.7914,2.759,2.7523,2.749,2.7438,2.7066,2.6791,2.6418,2.5555,2.4691,2.4151,2.4125,2.4125,2.4125,2.4125,2.4125,2.4125,2.4125,2.4125,2.4125,2.4125,2.4125,2.4125,2.4125,2.4112,2.4203,2.4463,2.442,2.4035,2.3946,2.347,2.3051,2.2644,2.246,2.2254,2.2394,2.2615,2.2638,2.2812,2.3023,2.3238,2.3282,2.3516,2.3833,2.3982,2.4088,2.4276,2.4436,2.4539,2.4605,2.4811,2.5045,2.5201,2.5294,2.5371,2.5524,2.5621,2.5661,2.568,2.5624,2.5605,2.5435,2.5336,2.522,2.5068,2.4791,2.463,2.4487,2.4255,2.3961,2.3797,2.3523,2.3157,2.2836,2.2563,2.2339,2.2155,2.2493,2.3031,2.3406,2.3863,2.4313,2.433,2.4295,2.4656,2.5219,2.585,2.6628,2.7025,2.7064,2.6926,2.6829,2.6692,2.6521,2.6487,2.6487,2.6487,2.6487,2.6396,2.6327,2.6236,2.6131,2.5945,2.5758,2.5606,2.5488,2.5347,2.5241,2.5147,2.8587,2.8587,2.8587,2.8476,2.8268,2.8164,2.798,2.7743,2.7556,2.7503,2.7503,2.7385,2.7105,2.6549,2.5607,2.4739,2.4308,2.4204,2.4178,2.4109,2.4125,2.4125,2.4125,2.4125,2.4125,2.4125,2.4125,2.4125,2.4125,2.4125,2.4187,2.4276,2.4463,2.461,2.4508,2.4352,2.3864,2.3444,2.2942,2.2557,2.24,2.2509,2.2652,2.2758,2.2857,2.3023,2.3253,2.3282,2.3494,2.3775,2.394,2.4067,2.4229,2.4395,2.4477,2.458,2.4722,2.4922,2.5103,2.522,2.5333,2.5432,2.5562,2.5581,2.5619,2.56,2.5527,2.5416,2.5317,2.5197,2.5005,2.4751,2.4625,2.4441,2.4213,2.4024,2.3897,2.3538,2.3172,2.2926,2.2655,2.2263,2.1975,2.2418,2.2896,2.3253,2.3636,2.4076,2.4363,2.4297,2.4458,2.5048,2.5654,2.6374,2.683,2.6902,2.69,2.6782,2.6658,2.6487,2.6487,2.6487,2.6452,2.6418,2.6361,2.6223,2.6084,2.5945,2.5828,2.5676,2.5488,2.5382,2.5312,2.5218,2.5087,2.8587,2.8587,2.8587,2.8476,2.83,2.8164,2.7967,2.7789,2.759,2.7503,2.7503,2.749,2.721,2.6641,2.6117,2.5489,2.4766,2.4583,2.4387,2.4135,2.4138,2.4125,2.4125,2.4125,2.4125,2.4125,2.4125,2.4125,2.4112,2.4112,2.4157,2.4334,2.4507,2.4664,2.4806,2.4677,2.4191,2.358,2.2884,2.2432,2.2441,2.2546,2.2652,2.2809,2.2872,2.3045,2.3209,2.3282,2.3458,2.3717,2.3861,2.3961,2.4082,2.4229,2.4354,2.44,2.4523,2.4746,2.5005,2.5107,2.5243,2.5375,2.5451,2.5505,2.5562,2.5524,2.5467,2.5371,2.5243,2.5088,2.4906,2.471,2.4605,2.4436,2.4172,2.4046,2.3876,2.3516,2.3209,2.2963,2.27,2.2287,2.2005,2.2315,2.2732,2.3103,2.3541,2.4051,2.4283,2.4292,2.4531,2.4957,2.5532,2.6166,2.6537,2.6753,2.6841,2.6748,2.6636,2.6499,2.6487,2.6487,2.6418,2.6361,2.627,2.6119,2.5945,2.5793,2.5676,2.5523,2.5382,2.5312,2.5276,2.5182,2.504,2.8587,2.8587,2.8587,2.8509,2.8365,2.8177,2.8,2.7855,2.759,2.7503,2.7503,2.7477,2.721,2.6778,2.6601,2.6078,2.5227,2.507,2.4739,2.4426,2.4161,2.4125,2.4125,2.4125,2.4125,2.4125,2.4125,2.4141,2.4157,2.4187,2.4232,2.4392,2.4565,2.4721,2.4835,2.4869,2.4573,2.3683,2.2714,2.2376,2.244,2.2555,2.2675,2.2803,2.288,2.3,2.3223,2.3297,2.3458,2.3646,2.3797,2.3861,2.3961,2.4067,2.4166,2.4234,2.4359,2.4539,2.4766,2.493,2.5127,2.5262,2.5375,2.541,2.5467,2.5413,2.5339,2.5259,2.5166,2.4989,2.4806,2.465,2.4544,2.4395,2.4172,2.4046,2.3839,2.3516,2.3187,2.2881,2.2632,2.2324,2.2146,2.228,2.2567,2.294,2.3433,2.4012,2.4163,2.4221,2.4383,2.4717,2.5184,2.5717,2.6026,2.6339,2.6506,2.6714,2.6555,2.6499,2.6499,2.643,2.6327,2.627,2.6166,2.5945,2.5758,2.5641,2.5523,2.5418,2.5312,2.5276,2.5218,2.5159,2.5062,2.8587,2.8587,2.8587,2.8587,2.8554,2.8243,2.8112,2.8013,2.7669,2.7503,2.7503,2.7464,2.7223,2.6876,2.6758,2.6412,2.5746,2.521,2.5005,2.4713,2.4413,2.4164,2.4125,2.4125,2.4125,2.4125,2.4141,2.4173,2.4276,2.4334,2.4434,2.4591,2.4692,2.4835,2.4922,2.4968,2.4613,2.3747,2.2828,2.2446,2.2514,2.2615,2.2706,2.2843,2.2902,2.297,2.3119,2.3223,2.3341,2.3531,2.3646,2.3754,2.3797,2.3903,2.3982,2.4067,2.4213,2.4338,2.4482,2.4766,2.4985,2.508,2.5197,2.5333,2.5352,2.5333,2.524,2.5146,2.5088,2.493,2.4731,2.4589,2.4498,2.4312,2.4109,2.3925,2.3754,2.3494,2.315,2.2822,2.254,2.2263,2.1973,2.2018,2.2218,2.2539,2.3152,2.374,2.4038,2.4126,2.4144,2.4374,2.4766,2.5166,2.5428,2.578,2.6248,2.6506,2.6521,2.6499,2.6465,2.6361,2.627,2.605,2.5945,2.5723,2.5571,2.5535,2.5453,2.5347,2.5324,2.5469,2.5444,2.5415,2.5277,2.8587,2.8587,2.8587,2.8587,2.8587,2.8243,2.8112,2.8046,2.7669,2.7503,2.7503,2.749,2.7385,2.7249,2.717,2.6883,2.6321,2.5746,2.5354,2.4857,2.4439,2.4164,2.4125,2.4125,2.4125,2.4112,2.4187,2.4218,2.4292,2.4478,2.4635,2.4734,2.4778,2.4863,2.4951,2.4846,2.4404,2.3856,2.3136,2.2762,2.256,2.2615,2.2706,2.2865,2.2888,2.297,2.3097,2.3149,2.3268,2.3363,2.3473,2.3538,2.361,2.3696,2.3797,2.3861,2.403,2.413,2.4255,2.4564,2.4806,2.5041,2.5178,2.5294,2.5275,2.524,2.5166,2.5088,2.5005,2.4811,2.465,2.4564,2.4457,2.4229,2.4046,2.3861,2.361,2.337,2.3083,2.2746,2.2495,2.2263,2.1959,2.1691,2.1918,2.2179,2.2817,2.34,2.371,2.4029,2.406,2.409,2.4454,2.4918,2.5192,2.5639,2.6087,2.6308,2.6487,2.643,2.6396,2.6305,2.6166,2.5945,2.5735,2.5606,2.55,2.5453,2.5419,2.542,2.5613,2.5852,2.5797,2.57,2.5591,2.8587,2.8587,2.8587,2.8554,2.849,2.821,2.8079,2.7934,2.7636,2.7503,2.7503,2.7503,2.7503,2.7503,2.7477,2.732,2.6844,2.6334,2.5772,2.5236,2.4739,2.4321,2.4178,2.4112,2.4141,2.4157,2.4261,2.4321,2.4494,2.4692,2.4791,2.4835,2.485,2.492,2.4897,2.4669,2.4278,2.3889,2.3385,2.2946,2.2655,2.2615,2.2706,2.2865,2.2888,2.2947,2.3015,2.3082,2.3135,2.3246,2.3297,2.3363,2.3429,2.348,2.3566,2.3689,2.3818,2.394,2.4109,2.438,2.4666,2.4922,2.5005,2.5123,2.5162,2.5143,2.5068,2.5048,2.4906,2.4726,2.4625,2.4544,2.4395,2.4166,2.4067,2.3882,2.3581,2.3297,2.2971,2.2655,2.2426,2.2147,2.1698,2.1388,2.1502,2.1844,2.2511,2.3079,2.3441,2.3733,2.3998,2.4027,2.4136,2.4617,2.5103,2.5345,2.5679,2.635,2.6452,2.6361,2.6292,2.6201,2.6015,2.5793,2.5606,2.5453,2.5467,2.5587,2.56,2.5588,2.5852,2.6181,2.6035,2.5942,2.6035,2.8641,2.8587,2.8627,2.8503,2.8368,2.8164,2.8,2.7822,2.759,2.7503,2.7503,2.7503,2.7503,2.7503,2.7503,2.7425,2.7268,2.6817,2.6255,2.5654,2.5053,2.4609,2.4298,2.4128,2.4216,2.4263,2.4379,2.4536,2.475,2.4806,2.4863,2.492,2.4948,2.5005,2.4979,2.4669,2.4371,2.4056,2.3491,2.3083,2.2789,2.2686,2.2706,2.2843,2.2888,2.2925,2.2947,2.3015,2.3082,2.3105,2.3187,2.3253,2.3297,2.3297,2.3385,2.3509,2.3581,2.3674,2.3824,2.4255,2.4523,2.4762,2.4846,2.4886,2.4982,2.5001,2.4966,2.491,2.4842,2.4706,2.4625,2.4503,2.4297,2.413,2.4024,2.3775,2.3473,2.3194,2.2881,2.2518,2.2278,2.1996,2.1482,2.1097,2.1164,2.151,2.2194,2.2666,2.3013,2.3384,2.3661,2.3857,2.391,2.4392,2.4829,2.4925,2.5342,2.6043,2.6418,2.6292,2.6154,2.6002,2.5828,2.5594,2.5512,2.5419,2.5588,2.5769,2.5985,2.6209,2.6237,2.6391,2.6275,2.6267,2.6403,2.9808,2.9733,2.9227,2.8919,2.8719,2.8292,2.7967,2.7776,2.759,2.7503,2.7503,2.7503,2.7503,2.7503,2.7503,2.749,2.7385,2.6948,2.6373,2.5798,2.5293,2.4737,2.436,2.4261,2.4361,2.4492,2.4578,2.4622,2.4778,2.4863,2.492,2.4977,2.5005,2.5131,2.5258,2.5163,2.5008,2.4659,2.4118,2.3596,2.3212,2.2844,2.2692,2.2865,2.2888,2.2888,2.2888,2.297,2.2992,2.2992,2.3053,2.309,2.3157,2.3157,2.3223,2.3334,2.3392,2.348,2.3674,2.3988,2.4297,2.4498,2.4641,2.4686,2.4746,2.4746,2.4731,2.4746,2.4701,2.46,2.4539,2.4374,2.4187,2.404,2.3855,2.356,2.326,2.3068,2.2799,2.2379,2.2091,2.1554,2.1031,2.0684,2.0692,2.0733,2.1276,2.1886,2.2308,2.2822,2.3203,2.3517,2.3735,2.4187,2.4551,2.4766,2.5244,2.6,2.6252,2.6188,2.6015,2.5828,2.5641,2.5453,2.5419,2.542,2.5829,2.6272,2.6659,2.6887,2.6815,2.6823,2.6848,2.6835,2.6898,3.0405,3.0316,2.9767,2.9409,2.9165,2.8379,2.7901,2.7689,2.7556,2.7503,2.7503,2.7503,2.7503,2.7503,2.7503,2.7503,2.7451,2.717,2.6438,2.5876,2.5533,2.4968,2.4514,2.4392,2.4492,2.4635,2.4763,2.482,2.4892,2.4948,2.5005,2.5005,2.5005,2.5131,2.53,2.5342,2.5272,2.4871,2.4329,2.3812,2.3359,2.2969,2.2712,2.2812,2.2865,2.2888,2.2888,2.2888,2.2888,2.2888,2.291,2.2947,2.2992,2.3037,2.3105,2.3179,2.3297,2.3392,2.361,2.3717,2.403,2.4291,2.4421,2.4528,2.4569,2.463,2.463,2.4609,2.4523,2.4477,2.4395,2.4229,2.4082,2.3919,2.3683,2.3385,2.3083,2.2867,2.2526,2.2123,2.1674,2.1129,2.061,2.0384,2.0207,2.0232,2.0333,2.0982,2.1688,2.2263,2.2821,2.3208,2.3454,2.3819,2.4274,2.4671,2.5234,2.597,2.6061,2.6037,2.5863,2.5711,2.5523,2.5359,2.5372,2.5624,2.6309,2.6784,2.7094,2.7282,2.7249,2.73,2.7418,2.7301,2.719,3.0486,3.0425,3.0212,3.0011,2.9616,2.8437,2.7755,2.7562,2.7516,2.7503,2.7503,2.7503,2.7503,2.7503,2.7503,2.7503,2.749,2.7425,2.6707,2.6117,2.58,2.5143,2.471,2.452,2.4664,2.475,2.4848,2.4892,2.4977,2.5005,2.5005,2.5005,2.5005,2.5118,2.523,2.5356,2.5328,2.5043,2.4444,2.3956,2.3514,2.2931,2.2747,2.2789,2.2857,2.2888,2.2888,2.2888,2.2888,2.2888,2.2902,2.2902,2.2902,2.2902,2.297,2.306,2.3187,2.3326,2.3458,2.3545,2.3732,2.3961,2.413,2.4343,2.4467,2.4467,2.4446,2.4446,2.44,2.4338,2.4261,2.4109,2.3976,2.3747,2.3494,2.3209,2.2859,2.254,2.217,2.1746,2.1288,2.0772,2.0207,1.9914,1.9708,1.9692,1.9851,2.0441,2.1137,2.1816,2.2421,2.3077,2.3281,2.3409,2.3866,2.4366,2.4933,2.5555,2.5921,2.5945,2.5758,2.5606,2.5453,2.5371,2.5396,2.5757,2.6513,2.7057,2.7494,2.7568,2.7485,2.7354,2.7301,2.726,2.719,3.1667,3.1577,3.086,3.0472,3.0228,2.8863,2.8192,2.8085,2.7732,2.7503,2.7503,2.7503,2.7503,2.7503,2.7503,2.7503,2.7503,2.7346,2.6707,2.6248,2.5954,2.5312,2.4906,2.4664,2.482,2.4892,2.4948,2.4948,2.4977,2.5005,2.5005,2.5005,2.5005,2.5076,2.5202,2.5397,2.5425,2.5227,2.4589,2.4143,2.3688,2.3093,2.2896,2.2772,2.2849,2.2865,2.2888,2.2888,2.2888,2.2902,2.2849,2.2841,2.2818,2.2743,2.2729,2.2752,2.2881,2.3046,2.3127,2.3282,2.3436,2.3581,2.3681,2.3897,2.4067,2.4141,2.4162,2.4193,2.4085,2.3926,2.373,2.3568,2.3368,2.3073,2.2812,2.2525,2.2201,2.1955,2.1584,2.1142,2.0673,2.0182,1.9682,1.9396,1.9212,1.9172,1.939,1.9958,2.0585,2.1255,2.2068,2.2728,2.3001,2.3089,2.3554,2.408,2.4571,2.5093,2.5505,2.5769,2.5641,2.55,2.5382,2.5468,2.5721,2.6141,2.6729,2.7245,2.7695,2.7664,2.7568,2.736,2.7231,2.719,2.719,3.2205,3.2092,3.1391,3.0977,3.0623,2.9564,2.8961,2.8634,2.7876,2.7503,2.7503,2.7503,2.7503,2.7503,2.7503,2.7503,2.7503,2.7451,2.6922,2.6185,2.6029,2.5449,2.5039,2.482,2.492,2.4977,2.5005,2.4977,2.5005,2.5005,2.5005,2.5005,2.5005,2.5033,2.5159,2.5272,2.5439,2.5285,2.4917,2.4455,2.3904,2.3321,2.2998,2.2741,2.2803,2.2857,2.2865,2.288,2.2872,2.2834,2.2772,2.2712,2.2712,2.2652,2.2615,2.2646,2.2692,2.2814,2.2867,2.2957,2.3127,2.3143,2.3054,2.2985,2.3298,2.3492,2.3713,2.3831,2.3619,2.3375,2.3143,2.2891,2.2559,2.2242,2.1952,2.169,2.1462,2.1229,2.0866,2.0446,1.9965,1.95,1.9119,1.8869,1.8682,1.864,1.8775,1.9215,1.9929,2.0653,2.1584,2.2451,2.2622,2.2727,2.3242,2.3688,2.4214,2.4765,2.5296,2.5519,2.5452,2.543,2.5347,2.5697,2.619,2.6549,2.686,2.7438,2.7822,2.7719,2.7557,2.7353,2.719,2.719,2.719,3.2205,3.2182,3.1743,3.132,3.0932,3.0294,2.9745,2.9205,2.8111,2.7542,2.7516,2.7503,2.7503,2.7503,2.7503,2.7503,2.7503,2.7464,2.7092,2.6077,2.6197,2.5768,2.5235,2.4947,2.499,2.4977,2.5005,2.5005,2.5005,2.5005,2.5005,2.5005,2.5005,2.5005,2.5033,2.5174,2.5314,2.5343,2.5104,2.4731,2.4129,2.3579,2.3093,2.2683,2.2698,2.2803,2.2834,2.2826,2.2809,2.2749,2.2675,2.2592,2.2509,2.2463,2.2463,2.25,2.2463,2.2518,2.2563,2.264,2.2608,2.2525,2.2272,2.2026,2.2185,2.2609,2.284,2.2825,2.2545,2.2342,2.2113,2.1804,2.1483,2.1155,2.085,2.0685,2.0593,2.0331,1.9989,1.9594,1.92,1.8735,1.8387,1.8116,1.7952,1.7991,1.8105,1.8469,1.9206,1.9965,2.0962,2.1938,2.2144,2.2277,2.2722,2.3207,2.3831,2.4414,2.4978,2.5343,2.5358,2.5347,2.5312,2.5721,2.6129,2.6548,2.694,2.7478,2.781,2.7708,2.7505,2.7272,2.719,2.719,2.719,3.2205,3.2169,3.1793,3.1373,3.0945,3.0372,2.981,2.9222,2.8516,2.7928,2.7555,2.7503,2.7503,2.7503,2.7503,2.7503,2.7503,2.7464,2.7177,2.668,2.6485,2.6042,2.5453,2.5124,2.5017,2.5005,2.5005,2.5005,2.5005,2.5005,2.5005,2.5005,2.5005,2.5005,2.5005,2.5104,2.523,2.5314,2.526,2.4865,2.4168,2.36,2.307,2.2685,2.2569,2.2652,2.2684,2.2661,2.2652,2.2638,2.2509,2.2333,2.2147,2.2053,2.1983,2.202,2.2091,2.2123,2.2147,2.2161,2.2066,2.1736,2.1405,2.1044,2.1026,2.1446,2.1635,2.1528,2.1428,2.1215,2.0974,2.0669,2.038,2.0031,1.9724,1.968,1.9682,1.9396,1.9096,1.8747,1.8402,1.8034,1.765,1.7401,1.7273,1.7217,1.7234,1.7597,1.8416,1.9205,2.016,2.1047,2.1518,2.1777,2.2186,2.2727,2.3346,2.4001,2.4626,2.4952,2.5252,2.5312,2.5348,2.5625,2.6021,2.6452,2.6926,2.7415,2.7629,2.7637,2.7505,2.7231,2.719,2.719,2.719,3.2205,3.2132,3.178,3.141,3.1108,3.0671,3.0059,2.9349,2.8957,2.8294,2.7568,2.7503,2.7503,2.7503,2.7503,2.7503,2.7503,2.7503,2.7308,2.7001,2.6525,2.6139,2.5697,2.526,2.5072,2.5005,2.5005,2.5005,2.5005,2.5005,2.5005,2.5005,2.5005,2.5005,2.5005,2.509,2.5146,2.523,2.5313,2.4914,2.4251,2.3753,2.311,2.2687,2.2477,2.2523,2.2555,2.2555,2.2463,2.2347,2.217,2.1983,2.1831,2.1736,2.1664,2.1626,2.165,2.165,2.165,2.1568,2.1409,2.0974,2.0429,2.0042,1.9398,1.9747,2.0105,2.0056,2.0062,1.9908,1.9594,1.9294,1.9018,1.8714,1.8511,1.8413,1.8499,1.8464,1.82,1.7934,1.7529,1.7129,1.6803,1.6662,1.6542,1.6587,1.6605,1.7082,1.7813,1.8516,1.946,2.0204,2.0715,2.1242,2.1706,2.228,2.289,2.357,2.4242,2.474,2.5133,2.524,2.5396,2.56,2.5901,2.6343,2.6826,2.7258,2.7519,2.7545,2.74,2.719,2.719,2.719,2.719,3.2182,3.2109,3.1743,3.1485,3.1286,3.1086,3.032,2.9392,2.9284,2.8595,2.7581,2.7503,2.7503,2.7503,2.7503,2.7503,2.7503,2.7503,2.738,2.7211,2.6596,2.6344,2.5918,2.5398,2.5127,2.5005,2.5005,2.5005,2.5005,2.5005,2.5005,2.5005,2.5005,2.5005,2.4977,2.4977,2.5005,2.5033,2.5036,2.4846,2.4461,2.4014,2.3258,2.2738,2.2366,2.2394,2.2417,2.237,2.2254,2.2091,2.1841,2.164,2.1482,2.1361,2.1277,2.1215,2.1118,2.1093,2.1044,2.0968,2.0598,2.0136,1.9519,1.8927,1.8337,1.8256,1.8596,1.8661,1.8685,1.8654,1.8344,1.8132,1.7852,1.7721,1.7549,1.7314,1.7426,1.7515,1.7302,1.7039,1.6662,1.6226,1.5997,1.5864,1.5867,1.5937,1.6277,1.683,1.7388,1.8029,1.8828,1.9458,1.9987,2.0539,2.1138,2.1841,2.2476,2.3159,2.3836,2.4481,2.5014,2.5146,2.5277,2.5408,2.5757,2.6187,2.6574,2.6948,2.7163,2.7354,2.7307,2.719,2.719,2.719,2.719,3.2109,3.1927,3.1669,3.1471,3.1272,3.1099,3.037,2.9428,2.9261,2.8608,2.7712,2.7503,2.7503,2.7503,2.7503,2.7503,2.7503,2.749,2.7736,2.778,2.6747,2.6536,2.6191,2.5426,2.51,2.5005,2.5005,2.5005,2.5005,2.5005,2.5005,2.5005,2.5005,2.4948,2.4848,2.4848,2.482,2.4835,2.4809,2.4678,2.4273,2.3778,2.3324,2.2734,2.2176,2.2023,2.1949,2.1912,2.1888,2.1793,2.1592,2.1326,2.1118,2.0932,2.0822,2.0648,2.0548,2.0472,2.0422,2.0308,1.9962,1.9437,1.884,1.8238,1.7728,1.733,1.7506,1.7388,1.746,1.7637,1.7472,1.739,1.7198,1.7279,1.7199,1.6803,1.666,1.6571,1.6373,1.6083,1.5738,1.5362,1.5079,1.5008,1.508,1.5272,1.567,1.6203,1.6809,1.7481,1.8208,1.8707,1.9276,1.9868,2.0475,2.1329,2.2029,2.275,2.3501,2.4307,2.485,2.5063,2.5218,2.5242,2.5565,2.603,2.638,2.6538,2.6904,2.7123,2.7209,2.719,2.719,2.719,2.719]}]]